GFSGL_850_dewp_000.txt.gz
Dewpoint
1 1 0 1 3 3 3 3 3 2 2 2 3 3 2 1 0 0 2 5 8 9 10 10 10 10 10 10 10 10 9 9 9 9 9 9 9 8 8 8 7 7 7
0 -1 -1 -0 1 1 -0 -1 -3 -4 -5 -5 -4 -2 -0 1 3 3 2 2 3 4 6 8 9 9 9 10 10 10 10 9 9 9 9 9 9 9 9 8 8 8 7
-1 1 2 2 1 1 -0 -2 -3 -4 -4 -5 -6 -6 -4 -1 2 2 3 3 4 5 6 6 6 7 9 9 9 10 10 9 9 9 9 9 9 9 9 9 9 8 7
2 1 -1 -1 -1 -3 -3 -4 -5 -4 -4 -4 -5 -6 -5 -4 -0 2 4 4 5 5 5 4 4 3 5 8 9 10 9 9 9 9 9 9 9 9 9 8 7 8 7
1 0 -1 0 -1 -2 -3 -4 -5 -4 -3 -3 -3 -3 -1 0 -0 3 2 3 4 4 4 4 4 3 4 4 8 9 9 9 9 9 9 9 9 8 7 8 8 7 7
0 -0 -1 -0 -1 -2 -3 -3 -2 -2 -2 -3 -2 -1 -1 0 0 -2 2 4 4 4 4 4 4 4 3 3 6 6 8 8 9 8 9 8 8 8 6 8 8 6 5
-2 -3 -2 -3 -5 -5 -5 -4 -4 -4 -4 -3 -2 -1 -0 -2 -1 1 2 2 3 3 3 3 3 5 6 5 4 5 6 7 8 9 8 9 8 8 6 7 7 7 6
-5 -5 -6 -7 -7 -7 -6 -6 -6 -6 -5 -5 -5 -3 -2 -1 -0 0 -0 -0 -1 -1 0 2 3 4 5 6 5 4 6 7 7 8 7 8 8 8 8 7 7 6 6
-8 -10 -13 -13 -13 -13 -11 -10 -11 -9 -7 -9 -7 -6 -3 -3 -3 -4 -5 -9 -11 -7 1 2 3 2 2 4 5 5 4 6 7 6 7 6 8 8 8 7 7 6 4
-18 -19 -19 -19 -18 -17 -16 -15 -13 -11 -13 -9 -10 -9 -7 -5 -7 -10 -17 -8 -6 -6 -13 -13 -5 -1 2 2 3 4 4 4 6 7 7 7 7 7 6 7 7 5 2
-20 -21 -22 -21 -19 -19 -17 -16 -13 -15 -12 -14 -11 -11 -10 -9 -10 -14 -19 -15 -4 -8 -17 -14 -8 -2 0 2 2 3 4 5 5 7 7 6 6 5 6 3 3 4 2
-24 -25 -25 -23 -21 -20 -16 -15 -15 -16 -15 -12 -12 -12 -10 -10 -15 -18 -18 -12 -7 -17 -20 -15 -4 -0 0 1 2 3 5 5 5 6 6 6 4 3 2 1 1 0 -1
-22 -21 -20 -19 -18 -16 -15 -16 -16 -15 -15 -13 -12 -12 -12 -15 -16 -17 -11 -8 -10 -14 -20 -13 -2 0 2 2 3 3 4 4 5 5 5 2 2 1 0 -0 -0 -5 -11
-19 -18 -19 -18 -17 -18 -17 -14 -15 -14 -13 -13 -12 -12 -10 -9 -11 -8 -5 -5 -9 -16 -15 -7 -1 -0 0 1 1 2 3 3 4 3 2 1 1 -1 0 -3 -5 -3 -4
-18 -20 -19 -18 -18 -17 -16 -14 -12 -13 -12 -11 -10 -9 -9 -8 -8 -7 -5 -7 -6 -10 -4 -3 -2 -1 -1 -0 -1 0 1 1 0 0 -0 -1 -1 -1 -1 -3 -3 -4 -2
-18 -18 -18 -17 -16 -16 -13 -12 -13 -11 -10 -10 -9 -9 -9 -8 -10 -6 -8 -7 -11 -5 -4 -3 -3 -3 -2 -2 -2 -1 -1 -1 -1 -2 -2 -2 -2 -3 -3 -2 -3 -3 -12
-16 -16 -15 -14 -14 -12 -11 -10 -9 -12 -9 -9 -9 -9 -9 -8 -7 -8 -7 -7 -6 -5 -5 -5 -4 -3 -3 -3 -2 -2 -2 -2 -2 -2 -3 -3 -4 -4 -4 -3 -4 -10 -18
-14 -14 -15 -14 -12 -11 -10 -9 -9 -9 -9 -9 -9 -9 -8 -7 -8 -7 -7 -8 -6 -6 -6 -5 -4 -4 -3 -3 -3 -3 -3 -3 -3 -3 -4 -4 -4 -3 -5 -4 -6 -18 -19
-14 -14 -13 -11 -10 -9 -9 -9 -9 -8 -9 -9 -9 -10 -10 -9 -8 -8 -8 -8 -7 -7 -7 -5 -5 -5 -4 -3 -3 -4 -4 -4 -4 -4 -5 -4 -3 -4 -4 -7 -17 -19 -18
-14 -14 -11 -10 -10 -10 -10 -9 -9 -10 -9 -9 -9 -10 -11 -9 -9 -10 -10 -8 -8 -8 -7 -6 -6 -5 -5 -4 -4 -5 -5 -5 -5 -5 -4 -3 -4 -4 -5 -16 -19 -18 -21
-15 -12 -10 -10 -10 -10 -10 -10 -10 -9 -10 -10 -10 -11 -9 -10 -10 -11 -10 -9 -8 -8 -7 -7 -6 -5 -5 -4 -5 -5 -6 -6 -6 -5 -5 -4 -4 -4 -15 -18 -18 -21 -23
-11 -11 -10 -10 -10 -10 -10 -9 -9 -10 -10 -10 -9 -10 -10 -11 -11 -12 -11 -10 -9 -8 -8 -7 -7 -6 -5 -5 -5 -6 -6 -6 -6 -6 -5 -4 -4 -12 -18 -19 -21 -23 -24
-10 -10 -10 -11 -10 -10 -11 -10 -10 -10 -10 -10 -10 -10 -10 -10 -11 -12 -11 -11 -10 -9 -8 -9 -8 -6 -5 -5 -5 -6 -6 -6 -6 -5 -5 -4 -6 -18 -19 -21 -23 -24 -29
-10 -10 -10 -10 -10 -10 -10 -11 -11 -11 -11 -11 -11 -10 -11 -11 -11 -12 -12 -11 -10 -9 -9 -11 -8 -6 -6 -6 -6 -6 -7 -7 -7 -5 -4 -4 -17 -19 -20 -22 -24 -31 -25
-10 -11 -10 -10 -10 -10 -10 -10 -10 -11 -11 -12 -11 -11 -11 -12 -12 -13 -12 -12 -10 -10 -11 -11 -7 -6 -6 -6 -6 -7 -7 -6 -6 -5 -4 -10 -19 -20 -21 -24 -30 -22 -14
-11 -10 -10 -11 -11 -11 -11 -11 -12 -12 -12 -13 -13 -12 -13 -14 -14 -13 -12 -11 -10 -10 -12 -11 -7 -7 -6 -6 -6 -7 -7 -6 -6 -5 -5 -18 -19 -21 -24 -30 -22 -13 -9

GFSGL_850_dewp_003.txt.gz
Dewpoint
-6 -5 -2 -1 -1 -0 1 1 -1 -2 -4 -5 -6 -6 -7 -7 -7 -5 -2 1 2 2 2 4 4 4 6 7 6 8 10 10 10 9 8 8 9 9 8 7 7 7 7
-3 -1 -0 -0 -1 -1 -1 -2 -2 -3 -4 -5 -5 -4 -4 -4 -4 -4 -2 -2 4 4 5 5 6 6 5 5 6 7 9 9 9 9 9 9 9 8 8 7 7 7 8
-1 0 1 1 -0 -1 -1 -1 -3 -5 -6 -6 -4 -2 -3 -2 -1 -1 -2 2 3 1 2 3 4 4 4 4 4 4 4 5 8 9 9 9 9 8 8 8 7 8 8
1 0 2 1 0 -1 -2 -4 -6 -7 -7 -7 -6 -5 -3 -1 -1 -0 1 0 -1 2 3 3 3 3 4 4 5 6 6 5 6 7 8 9 9 9 8 8 8 8 8
-0 0 -0 -1 -3 -5 -7 -9 -9 -9 -7 -6 -6 -5 -3 -4 0 -2 -3 -0 1 2 2 1 1 1 2 3 4 5 6 6 6 7 8 8 9 8 7 8 8 8 8
-2 -4 -6 -7 -9 -15 -20 -22 -18 -14 -11 -10 -5 -4 -4 -2 -3 -4 -1 -0 -0 -1 -2 -9 -7 -2 1 3 4 5 6 6 7 7 7 7 7 7 7 8 7 6 6
-8 -11 -14 -21 -32 -33 -31 -28 -24 -21 -19 -16 -8 -9 -7 -8 -6 -3 -1 -3 -4 -9 -11 -11 -7 -0 -4 -1 1 3 3 4 5 6 6 6 7 7 8 7 6 7 5
-24 -30 -32 -31 -30 -29 -27 -25 -23 -20 -17 -12 -13 -12 -8 -16 -9 -4 -6 -6 -14 -19 -21 -16 -16 -20 -13 -6 1 2 3 3 3 5 5 5 6 7 7 8 7 5 5
-33 -29 -28 -28 -28 -27 -25 -24 -21 -19 -18 -20 -16 -13 -14 -12 -7 -7 -8 -9 -18 -19 -8 -5 -15 -22 -18 -9 0 1 1 1 2 3 4 4 3 5 7 7 6 5 3
-27 -27 -26 -25 -24 -23 -22 -21 -20 -19 -20 -18 -19 -17 -14 -10 -10 -10 -11 -22 -9 -10 -3 -7 -13 -16 -18 -8 -0 0 0 1 2 3 3 4 4 4 5 7 6 6 2
-25 -24 -24 -23 -22 -22 -21 -20 -18 -17 -17 -16 -17 -13 -12 -13 -14 -21 -19 -8 -8 -4 -4 -4 -8 -17 -16 -3 -1 0 1 1 1 2 3 4 4 5 5 5 5 5 3
-23 -23 -22 -22 -22 -22 -20 -19 -18 -16 -15 -16 -13 -12 -13 -12 -14 -13 -8 -7 -6 -4 -3 -4 -8 -15 -5 -2 -1 -0 -0 0 1 2 3 4 4 4 2 2 2 2 1
-22 -22 -22 -22 -21 -21 -19 -18 -16 -16 -15 -12 -11 -11 -10 -9 -11 -10 -7 -7 -5 -5 -5 -5 -7 -4 -3 -2 -2 -2 -2 -1 -0 0 1 1 1 0 0 -0 -1 -1 -1
-21 -21 -21 -20 -20 -19 -18 -17 -16 -15 -12 -10 -9 -8 -8 -8 -8 -7 -7 -6 -6 -6 -6 -7 -4 -3 -3 -3 -4 -3 -3 -2 -2 -1 -1 -1 -1 -1 -2 -2 -1 -2 -1
-20 -20 -20 -19 -19 -19 -18 -17 -15 -14 -10 -8 -8 -8 -7 -7 -7 -7 -7 -6 -6 -6 -6 -5 -5 -5 -5 -4 -5 -4 -4 -3 -3 -2 -2 -2 -2 -2 -3 -3 -2 -2 -2
-20 -19 -18 -16 -16 -16 -15 -15 -15 -13 -9 -8 -8 -7 -7 -8 -7 -7 -7 -7 -7 -7 -6 -6 -6 -6 -6 -5 -4 -5 -4 -4 -4 -3 -3 -3 -3 -3 -4 -4 -3 -4 -3
-17 -16 -16 -15 -15 -14 -12 -10 -9 -12 -11 -9 -8 -8 -8 -8 -8 -8 -8 -7 -8 -7 -8 -7 -7 -7 -7 -5 -5 -5 -5 -4 -4 -4 -4 -4 -4 -4 -4 -4 -4 -5 -6
-16 -15 -13 -14 -14 -12 -10 -9 -9 -9 -9 -10 -11 -9 -9 -9 -9 -8 -8 -10 -11 -10 -8 -9 -9 -8 -7 -6 -6 -6 -5 -5 -5 -5 -5 -5 -6 -5 -5 -5 -5 -4 -14
-13 -12 -13 -13 -11 -10 -9 -9 -9 -9 -9 -10 -11 -10 -12 -12 -9 -8 -10 -12 -10 -10 -9 -9 -9 -9 -7 -7 -6 -6 -6 -6 -6 -6 -6 -7 -7 -6 -5 -5 -4 -14 -15
-14 -15 -13 -11 -10 -10 -10 -10 -10 -10 -10 -10 -10 -10 -11 -10 -9 -10 -12 -12 -11 -10 -10 -10 -10 -9 -8 -7 -7 -7 -6 -6 -7 -7 -7 -7 -7 -6 -5 -5 -15 -17 -18
-14 -15 -12 -11 -10 -10 -10 -10 -10 -10 -9 -10 -11 -12 -10 -10 -10 -12 -12 -11 -11 -10 -10 -10 -9 -10 -9 -7 -7 -7 -6 -7 -7 -7 -7 -7 -6 -5 -5 -15 -16 -18 -22
-14 -12 -11 -10 -10 -10 -10 -10 -10 -11 -11 -10 -11 -12 -11 -11 -11 -11 -11 -12 -12 -12 -11 -10 -10 -12 -8 -8 -8 -7 -7 -7 -7 -7 -7 -6 -5 -6 -15 -17 -19 -23 -24
-12 -11 -11 -11 -11 -10 -11 -11 -10 -10 -11 -11 -10 -11 -11 -12 -11 -11 -12 -13 -13 -12 -12 -10 -12 -11 -8 -8 -8 -7 -7 -7 -7 -7 -6 -6 -5 -14 -17 -19 -23 -25 -31
-11 -10 -10 -10 -11 -11 -11 -11 -11 -11 -11 -11 -12 -12 -13 -12 -12 -13 -13 -13 -13 -12 -11 -11 -12 -9 -8 -8 -8 -7 -7 -7 -7 -7 -6 -6 -12 -18 -19 -23 -25 -30 -18
-11 -11 -11 -10 -11 -11 -11 -11 -11 -11 -12 -13 -13 -12 -12 -13 -13 -13 -14 -13 -12 -11 -11 -12 -12 -8 -8 -8 -7 -7 -7 -7 -6 -6 -6 -7 -17 -19 -23 -27 -25 -15 -8
-11 -11 -11 -11 -11 -11 -11 -12 -12 -12 -13 -12 -13 -13 -13 -13 -13 -13 -12 -12 -12 -12 -13 -12 -12 -8 -8 -8 -7 -7 -7 -7 -6 -6 -6 -16 -19 -23 -28 -21 -12 -8 -6

GFSGL_850_dewp_006.txt.gz
Dewpoint
-8 -6 -4 -3 -2 -1 -1 -1 -1 -2 -3 -4 -6 -6 -5 -5 -5 -4 -2 -2 -1 1 3 2 1 2 3 4 4 4 5 6 7 6 7 7 8 8 8 9 9 8 7
-6 -4 -4 -5 -5 -3 -2 -2 -2 -4 -7 -9 -9 -9 -8 -7 -4 -2 -3 -0 1 -0 -1 -1 2 3 3 3 3 3 4 4 6 7 7 7 7 6 8 8 7 7 8
-4 -4 -4 -3 -3 -3 -5 -7 -10 -14 -17 -18 -16 -14 -12 -8 -6 -5 0 1 -3 -2 -0 2 2 1 1 -1 -0 2 3 3 4 6 7 7 7 7 7 7 8 8 9
-4 -4 -4 -5 -7 -10 -15 -25 -34 -37 -37 -36 -34 -31 -20 -10 -10 -7 -6 -6 -3 -1 -1 -2 -3 -6 -9 -8 0 2 2 4 5 5 6 6 6 6 7 7 8 7 7
-4 -6 -9 -13 -22 -35 -37 -35 -35 -35 -35 -34 -33 -30 -23 -17 -18 -11 -12 -9 -4 -2 -6 -8 -10 -13 -14 -2 -9 -9 -3 2 2 3 4 5 6 6 6 6 7 7 6
-8 -13 -24 -37 -35 -33 -34 -35 -34 -33 -32 -32 -32 -31 -31 -27 -17 -19 -15 -6 -3 -6 -8 -10 -15 -19 -11 -15 -22 -15 -10 0 2 2 3 4 4 5 5 6 6 7 6
-19 -34 -35 -32 -33 -32 -31 -29 -28 -27 -26 -26 -26 -26 -26 -25 -21 -13 -7 -6 -10 -10 -10 -12 -19 -15 -2 -9 -19 -18 -15 -4 -1 0 1 2 3 4 5 5 5 5 6
-34 -32 -32 -31 -30 -28 -27 -26 -25 -25 -24 -24 -23 -23 -22 -22 -18 -10 -7 -11 -14 -18 -14 -19 -20 -3 -5 -9 -11 -9 -11 -3 -1 -0 0 1 1 2 3 3 4 4 5
-31 -31 -30 -28 -27 -26 -25 -25 -24 -23 -22 -21 -20 -20 -20 -15 -12 -12 -14 -19 -18 -13 -10 -11 -6 -4 -4 -3 -4 -5 -4 -2 -1 -0 0 0 1 2 2 2 3 3 4
-31 -29 -27 -25 -24 -24 -23 -23 -22 -21 -20 -19 -19 -18 -16 -13 -13 -12 -9 -8 -7 -7 -6 -6 -4 -4 -4 -4 -4 -4 -2 -2 -2 -1 -1 -1 1 1 2 2 3 3 3
-27 -26 -24 -23 -22 -22 -22 -22 -21 -20 -18 -17 -16 -16 -13 -11 -11 -9 -7 -7 -6 -5 -5 -6 -6 -8 -6 -6 -4 -3 -2 -3 -3 -3 -2 -1 0 1 2 2 2 2 3
-25 -24 -24 -23 -22 -21 -21 -21 -20 -19 -17 -15 -13 -11 -10 -9 -9 -8 -7 -6 -6 -6 -6 -7 -7 -7 -7 -4 -4 -4 -4 -4 -3 -4 -3 -2 -1 -0 0 0 1 1 1
-24 -24 -23 -23 -22 -21 -19 -19 -19 -17 -14 -12 -10 -8 -8 -9 -10 -8 -7 -7 -6 -7 -7 -6 -7 -6 -5 -5 -5 -5 -5 -4 -5 -4 -4 -4 -3 -2 -2 -2 -2 -2 -1
-23 -23 -23 -21 -20 -19 -19 -18 -16 -14 -11 -9 -8 -8 -8 -8 -8 -8 -7 -8 -8 -7 -7 -8 -8 -7 -7 -7 -7 -6 -6 -5 -5 -5 -5 -4 -4 -3 -3 -4 -3 -3 -2
-22 -23 -22 -20 -18 -18 -19 -17 -14 -12 -9 -8 -9 -8 -8 -8 -8 -7 -8 -8 -7 -8 -9 -9 -10 -10 -9 -9 -8 -7 -6 -6 -6 -6 -5 -5 -5 -5 -4 -4 -5 -4 -3
-22 -22 -20 -17 -17 -16 -16 -17 -16 -13 -10 -9 -9 -9 -9 -9 -8 -9 -9 -8 -8 -9 -10 -10 -10 -10 -8 -8 -8 -7 -7 -6 -6 -6 -6 -6 -6 -6 -5 -5 -5 -5 -5
-21 -19 -18 -16 -15 -15 -14 -12 -10 -13 -11 -10 -10 -9 -9 -9 -9 -9 -8 -8 -10 -10 -12 -10 -10 -10 -9 -9 -8 -8 -7 -7 -7 -6 -6 -6 -7 -6 -7 -6 -6 -6 -6
-19 -18 -15 -15 -15 -14 -11 -10 -10 -10 -10 -11 -13 -10 -10 -10 -10 -9 -8 -9 -12 -12 -11 -11 -11 -10 -10 -9 -9 -8 -8 -7 -7 -7 -7 -7 -7 -7 -7 -7 -6 -6 -6
-17 -15 -15 -13 -13 -11 -11 -11 -10 -10 -10 -11 -11 -11 -11 -11 -10 -9 -10 -11 -11 -11 -11 -11 -11 -10 -10 -9 -10 -8 -8 -8 -7 -7 -7 -8 -8 -8 -7 -7 -6 -6 -14
-16 -15 -13 -13 -12 -12 -12 -11 -10 -10 -10 -11 -10 -10 -12 -10 -10 -11 -13 -12 -11 -12 -13 -12 -12 -11 -10 -11 -8 -8 -8 -8 -7 -7 -8 -8 -8 -7 -7 -6 -7 -14 -14
-16 -15 -13 -13 -12 -12 -11 -10 -10 -10 -10 -11 -12 -12 -11 -10 -11 -15 -12 -10 -12 -13 -14 -12 -12 -11 -10 -10 -9 -9 -9 -8 -8 -8 -8 -8 -7 -7 -6 -10 -13 -15 -20
-14 -13 -12 -11 -12 -11 -10 -10 -11 -11 -11 -11 -11 -12 -10 -12 -13 -13 -11 -12 -13 -14 -13 -12 -11 -11 -12 -9 -9 -9 -9 -8 -8 -8 -8 -7 -7 -6 -13 -16 -17 -22 -26
-13 -12 -11 -11 -11 -11 -11 -11 -11 -11 -11 -11 -11 -11 -12 -12 -12 -13 -13 -13 -13 -14 -12 -13 -12 -12 -12 -8 -9 -9 -8 -8 -8 -8 -8 -7 -6 -14 -16 -18 -22 -30 -20
-11 -11 -11 -11 -11 -11 -11 -12 -11 -12 -11 -12 -12 -12 -12 -12 -12 -13 -12 -13 -13 -12 -13 -13 -13 -12 -10 -9 -9 -8 -8 -8 -8 -8 -7 -6 -14 -17 -20 -24 -30 -18 -11
-11 -11 -11 -11 -11 -12 -12 -12 -12 -12 -12 -12 -12 -12 -13 -13 -13 -13 -13 -13 -14 -13 -13 -14 -13 -12 -9 -9 -8 -8 -8 -8 -7 -7 -6 -12 -18 -21 -26 -24 -12 -7 -7
-12 -12 -13 -13 -13 -13 -12 -12 -13 -13 -12 -13 -13 -13 -13 -13 -13 -13 -13 -14 -13 -13 -13 -14 -13 -9 -9 -9 -8 -8 -8 -7 -6 -6 -13 -18 -21 -28 -18 -9 -7 -6 -6

GFSGL_850_dewp_009.txt.gz
Dewpoint
-6 -5 -4 -4 -4 -4 -4 -5 -7 -9 -13 -19 -26 -31 -31 -29 -24 -15 -11 -7 0 1 -2 -3 -2 1 3 1 0 0 -1 -0 4 3 4 4 5 5 6 6 5 5 5
-4 -4 -3 -3 -4 -6 -8 -12 -19 -31 -37 -37 -36 -36 -36 -34 -30 -23 -19 -8 -5 -10 -8 -3 -1 -1 -6 -9 -9 -7 -8 -2 2 3 2 3 5 5 5 5 6 6 6
-2 -2 -3 -5 -8 -13 -23 -35 -36 -35 -35 -35 -35 -34 -34 -33 -33 -31 -24 -14 -13 -14 -9 -3 -2 -8 -11 -13 -15 -1 -1 -13 -12 -3 2 2 2 3 4 4 5 6 5
-1 -2 -5 -11 -20 -35 -35 -34 -34 -33 -32 -32 -31 -31 -31 -31 -31 -29 -26 -19 -15 -11 -6 -3 -6 -8 -10 -16 -6 1 -4 -14 -6 -2 -2 1 1 1 3 4 5 6 5
-2 -6 -14 -27 -35 -33 -33 -32 -32 -31 -30 -30 -30 -30 -31 -30 -30 -28 -24 -15 -6 -5 -7 -10 -12 -12 -13 -13 -3 -3 -4 -6 -3 -3 -2 -1 -0 0 1 2 2 4 4
-7 -16 -29 -33 -32 -32 -31 -30 -30 -29 -29 -29 -29 -28 -29 -27 -26 -24 -16 -8 -6 -10 -12 -13 -16 -17 -17 -9 -7 -7 -4 -3 -3 -3 -3 -2 -2 -1 -0 1 1 2 3
-18 -29 -31 -31 -31 -30 -29 -28 -27 -27 -27 -27 -27 -27 -26 -25 -23 -19 -12 -8 -11 -13 -13 -12 -14 -12 -9 -6 -5 -4 -4 -3 -4 -4 -3 -2 -2 -1 -1 -0 0 1 2
-28 -30 -30 -29 -28 -27 -27 -26 -26 -26 -26 -26 -25 -24 -23 -22 -20 -15 -10 -10 -9 -9 -9 -9 -7 -6 -6 -5 -5 -5 -5 -6 -11 -5 -2 -2 -2 -2 -1 -0 -0 0 1
-29 -30 -29 -28 -27 -26 -26 -25 -25 -25 -25 -24 -23 -22 -21 -20 -16 -12 -8 -7 -8 -8 -8 -6 -6 -6 -6 -6 -6 -6 -6 -6 -5 -4 -3 -3 -3 -3 -2 -1 0 1 1
-30 -28 -27 -25 -25 -25 -24 -24 -23 -23 -23 -22 -21 -19 -18 -15 -13 -8 -8 -7 -7 -6 -6 -7 -8 -7 -7 -6 -6 -6 -4 -4 -3 -4 -4 -4 -4 -4 -3 -1 -1 -1 -1
-27 -26 -26 -24 -24 -24 -23 -22 -22 -22 -21 -20 -19 -19 -17 -12 -10 -8 -8 -7 -7 -6 -7 -7 -8 -7 -6 -7 -6 -6 -6 -5 -6 -5 -5 -6 -5 -5 -4 -3 -2 -3 -2
-26 -25 -24 -24 -23 -23 -22 -22 -22 -22 -20 -19 -17 -16 -12 -10 -10 -9 -8 -8 -7 -7 -7 -8 -8 -8 -8 -8 -8 -8 -7 -6 -6 -6 -6 -6 -6 -4 -4 -4 -4 -3 -3
-24 -24 -24 -23 -23 -22 -21 -21 -21 -19 -16 -15 -11 -9 -9 -10 -11 -10 -8 -7 -8 -8 -8 -7 -8 -9 -8 -9 -9 -8 -7 -7 -7 -6 -6 -6 -6 -6 -5 -5 -5 -5 -5
-23 -23 -23 -22 -22 -21 -20 -20 -18 -17 -15 -11 -9 -9 -9 -10 -9 -10 -8 -8 -9 -9 -8 -9 -11 -11 -9 -10 -10 -9 -8 -8 -7 -7 -7 -7 -7 -6 -6 -5 -6 -6 -6
-22 -22 -22 -22 -21 -20 -21 -20 -18 -16 -10 -9 -9 -9 -9 -9 -9 -8 -8 -9 -9 -7 -9 -11 -13 -10 -10 -10 -10 -9 -9 -9 -8 -8 -7 -7 -7 -7 -7 -6 -6 -6 -6
-22 -22 -21 -20 -19 -19 -20 -21 -20 -14 -10 -9 -9 -9 -10 -10 -9 -9 -9 -9 -8 -9 -10 -11 -11 -10 -10 -11 -11 -10 -9 -9 -8 -8 -7 -7 -7 -7 -7 -7 -7 -7 -6
-21 -21 -20 -19 -19 -19 -18 -15 -12 -12 -10 -14 -10 -10 -10 -10 -10 -10 -10 -9 -9 -11 -11 -11 -11 -11 -11 -11 -11 -10 -10 -9 -9 -8 -8 -8 -8 -8 -8 -8 -7 -7 -7
-20 -19 -18 -18 -18 -17 -13 -11 -11 -10 -10 -11 -13 -11 -10 -10 -10 -10 -9 -11 -15 -12 -10 -11 -11 -11 -11 -11 -11 -10 -10 -10 -9 -9 -8 -8 -8 -8 -8 -8 -8 -7 -7
-19 -18 -18 -18 -16 -12 -12 -12 -12 -11 -10 -11 -11 -11 -11 -11 -10 -10 -11 -15 -13 -10 -11 -12 -11 -12 -12 -11 -11 -10 -10 -10 -9 -9 -8 -8 -8 -8 -8 -8 -8 -7 -9
-19 -19 -18 -15 -13 -13 -13 -11 -11 -11 -11 -11 -11 -11 -12 -11 -10 -12 -14 -14 -12 -11 -13 -12 -12 -12 -12 -12 -11 -10 -10 -10 -9 -9 -8 -8 -8 -8 -8 -8 -8 -10 -13
-20 -19 -17 -14 -13 -12 -11 -11 -11 -11 -11 -11 -12 -12 -11 -11 -12 -14 -13 -13 -13 -12 -13 -12 -12 -13 -12 -12 -10 -10 -10 -9 -9 -9 -8 -8 -8 -7 -8 -10 -14 -17 -22
-19 -16 -13 -12 -12 -11 -11 -11 -11 -11 -12 -11 -12 -12 -11 -12 -13 -13 -13 -13 -13 -13 -13 -12 -13 -13 -12 -11 -10 -10 -10 -9 -9 -8 -8 -8 -8 -11 -12 -15 -21 -26 -21
-16 -12 -12 -12 -11 -11 -11 -11 -11 -12 -11 -12 -12 -12 -13 -13 -13 -13 -13 -13 -13 -13 -13 -13 -13 -14 -12 -10 -10 -9 -9 -9 -9 -8 -8 -7 -12 -15 -18 -25 -27 -15 -9
-11 -11 -11 -12 -12 -11 -12 -12 -12 -12 -12 -12 -13 -13 -13 -13 -13 -13 -13 -13 -14 -13 -14 -13 -14 -13 -10 -9 -9 -9 -8 -8 -8 -7 -7 -13 -17 -22 -26 -22 -13 -7 -6
-11 -12 -13 -13 -14 -14 -14 -13 -13 -13 -13 -13 -13 -13 -13 -13 -14 -13 -13 -14 -13 -14 -14 -14 -14 -11 -9 -9 -9 -8 -8 -8 -7 -8 -15 -17 -23 -23 -9 -6 -6 -6 -6
-13 -14 -15 -15 -14 -14 -13 -13 -13 -13 -13 -13 -13 -13 -13 -14 -13 -13 -14 -13 -13 -14 -14 -15 -13 -9 -9 -9 -9 -8 -8 -7 -9 -17 -18 -24 -16 -8 -6 -6 -7 -7 -7

GFSGL_850_dewp_012.txt.gz
Dewpoint
-4 -3 -2 -1 -2 -5 -9 -15 -25 -34 -35 -34 -34 -33 -32 -31 -31 -32 -32 -31 -28 -23 -20 -17 -9 -2 -0 -3 -8 -8 -14 -7 1 -2 -5 -12 -14 -9 -1 1 2 2 3
-2 -1 -1 -2 -5 -10 -19 -30 -34 -33 -33 -32 -31 -30 -30 -30 -30 -30 -30 -27 -25 -22 -16 -9 -5 -5 -6 -7 -8 -10 -11 -1 -0 -1 -6 -11 -15 -17 -15 -7 0 -0 0
-1 -0 -1 -5 -12 -22 -31 -32 -32 -31 -31 -30 -30 -29 -29 -29 -29 -30 -29 -27 -21 -15 -7 -7 -8 -9 -11 -12 -12 -13 -5 -2 -2 -4 -7 -10 -12 -14 -8 -6 -9 -5 -0
0 -1 -6 -13 -22 -29 -32 -31 -31 -30 -29 -29 -29 -28 -28 -28 -29 -29 -28 -26 -20 -11 -8 -10 -13 -13 -12 -10 -8 -7 -3 -3 -3 -3 -3 -3 -4 -7 -4 -4 -5 -4 -2
-1 -7 -13 -21 -28 -31 -31 -30 -29 -29 -28 -28 -27 -27 -27 -28 -28 -27 -25 -20 -15 -12 -13 -15 -15 -15 -10 -7 -6 -6 -5 -4 -4 -4 -4 -3 -4 -4 -3 -3 -2 -3 -1
-4 -9 -19 -26 -30 -30 -29 -29 -28 -27 -26 -26 -26 -26 -27 -28 -28 -25 -14 -10 -10 -10 -11 -12 -11 -10 -7 -6 -6 -6 -6 -6 -6 -5 -5 -5 -5 -4 -3 -2 -2 -2 -2
-4 -11 -24 -30 -29 -29 -28 -27 -26 -25 -25 -25 -26 -26 -27 -26 -23 -20 -9 -8 -8 -9 -10 -9 -9 -7 -6 -7 -7 -7 -6 -6 -6 -7 -6 -5 -5 -5 -3 -3 -3 -2 -2
-11 -16 -29 -29 -28 -27 -26 -25 -25 -24 -24 -25 -25 -25 -24 -23 -20 -14 -8 -8 -9 -9 -9 -9 -6 -7 -9 -7 -6 -6 -6 -9 -9 -5 -4 -4 -4 -3 -3 -4 -3 -3 -3
-17 -26 -29 -27 -26 -25 -25 -24 -24 -23 -24 -24 -24 -23 -22 -22 -17 -9 -8 -8 -9 -8 -9 -8 -7 -8 -8 -7 -7 -7 -8 -8 -9 -8 -6 -5 -5 -5 -5 -4 -4 -4 -3
-27 -28 -27 -25 -25 -24 -24 -23 -23 -22 -23 -24 -24 -22 -21 -18 -15 -9 -8 -8 -8 -9 -8 -8 -9 -8 -8 -7 -8 -7 -7 -9 -9 -7 -7 -8 -7 -6 -6 -6 -5 -5 -4
-27 -26 -25 -24 -24 -23 -22 -22 -22 -22 -22 -23 -23 -23 -20 -13 -11 -9 -9 -9 -8 -7 -8 -9 -10 -8 -7 -9 -9 -8 -9 -9 -8 -8 -8 -8 -7 -6 -6 -6 -6 -6 -6
-26 -25 -24 -23 -22 -21 -21 -21 -21 -22 -22 -23 -22 -19 -13 -10 -10 -9 -9 -9 -8 -8 -9 -10 -9 -8 -9 -10 -9 -9 -9 -8 -9 -9 -8 -8 -7 -7 -7 -7 -7 -6 -6
-25 -23 -22 -21 -21 -21 -21 -21 -21 -22 -21 -20 -13 -10 -9 -9 -10 -11 -9 -8 -8 -9 -10 -8 -9 -9 -11 -12 -10 -10 -10 -10 -10 -9 -9 -8 -8 -8 -7 -8 -7 -7 -6
-22 -21 -20 -20 -20 -20 -21 -21 -21 -20 -17 -12 -9 -9 -10 -10 -10 -11 -9 -9 -9 -10 -8 -8 -10 -13 -14 -11 -12 -12 -12 -10 -10 -9 -9 -9 -9 -8 -7 -8 -7 -7 -7
-21 -20 -19 -19 -20 -20 -20 -20 -19 -16 -11 -9 -10 -10 -10 -10 -10 -9 -9 -9 -9 -9 -9 -11 -13 -13 -12 -11 -11 -11 -12 -10 -10 -10 -10 -9 -9 -8 -8 -8 -8 -7 -8
-20 -18 -19 -19 -20 -20 -20 -20 -17 -14 -10 -10 -10 -10 -10 -10 -10 -9 -10 -10 -9 -11 -12 -12 -11 -11 -12 -12 -12 -12 -11 -11 -10 -10 -10 -10 -9 -8 -8 -8 -8 -8 -8
-18 -18 -19 -19 -20 -19 -19 -16 -13 -14 -14 -14 -11 -10 -10 -10 -11 -10 -10 -10 -11 -13 -14 -11 -12 -12 -12 -12 -12 -12 -11 -11 -11 -11 -10 -10 -9 -9 -8 -8 -8 -8 -8
-18 -19 -19 -20 -20 -19 -15 -12 -12 -12 -12 -12 -13 -11 -10 -11 -11 -11 -10 -11 -15 -15 -13 -12 -12 -12 -12 -12 -12 -12 -11 -11 -11 -11 -10 -9 -9 -8 -8 -8 -8 -8 -8
-19 -19 -20 -20 -18 -14 -13 -13 -12 -11 -11 -11 -11 -11 -11 -11 -11 -10 -12 -14 -13 -12 -13 -12 -12 -12 -12 -12 -12 -11 -11 -11 -11 -10 -9 -9 -9 -8 -8 -8 -8 -8 -8
-20 -20 -21 -19 -15 -14 -13 -12 -11 -11 -11 -11 -11 -11 -12 -11 -11 -13 -14 -13 -12 -12 -13 -13 -12 -13 -13 -13 -11 -11 -12 -11 -10 -10 -9 -9 -8 -8 -8 -8 -8 -10 -14
-21 -21 -19 -16 -15 -14 -13 -11 -11 -11 -11 -11 -12 -12 -11 -11 -13 -13 -13 -13 -13 -13 -13 -13 -13 -13 -14 -12 -11 -11 -11 -10 -10 -9 -9 -9 -8 -9 -9 -10 -15 -22 -24
-21 -19 -15 -14 -14 -13 -11 -11 -12 -12 -12 -12 -12 -13 -12 -13 -13 -13 -13 -13 -13 -13 -14 -13 -14 -14 -14 -11 -11 -11 -10 -10 -9 -9 -8 -8 -10 -11 -16 -22 -23 -13 -8
-20 -16 -14 -14 -12 -12 -13 -12 -13 -13 -12 -13 -13 -13 -13 -13 -13 -13 -13 -13 -14 -14 -14 -14 -14 -14 -12 -10 -10 -10 -9 -9 -9 -8 -8 -12 -15 -19 -24 -22 -13 -8 -7
-15 -13 -13 -13 -14 -12 -14 -14 -14 -13 -13 -13 -13 -13 -13 -13 -13 -13 -13 -14 -14 -14 -14 -15 -14 -14 -10 -10 -10 -9 -8 -9 -8 -8 -15 -17 -23 -17 -8 -7 -7 -7 -6
-14 -14 -15 -15 -15 -15 -14 -14 -13 -13 -13 -14 -13 -13 -13 -13 -13 -13 -13 -14 -14 -14 -15 -15 -15 -11 -10 -9 -9 -8 -8 -8 -10 -16 -21 -20 -8 -7 -7 -6 -7 -7 -7
-16 -16 -16 -15 -15 -14 -14 -13 -14 -14 -14 -14 -14 -14 -14 -14 -13 -13 -13 -14 -14 -14 -16 -16 -12 -10 -9 -9 -8 -8 -8 -12 -17 -23 -15 -7 -6 -7 -7 -7 -8 -7 -6

GFSGL_850_dewp_015.txt.gz
Dewpoint
-3 -1 -0 -1 -2 -4 -8 -13 -22 -30 -31 -30 -30 -29 -28 -27 -26 -26 -26 -27 -27 -25 -22 -15 -8 -6 -12 -14 -12 -9 -9 -9 -8 -9 -5 -2 -2 -5 -6 -5 -10 -12 -10
-1 0 -0 -2 -5 -9 -14 -23 -30 -31 -30 -29 -28 -28 -26 -25 -24 -25 -26 -26 -23 -19 -13 -7 -8 -11 -12 -11 -11 -9 -7 -6 -6 -4 -2 -4 -5 -4 -3 -4 -5 -4 -7
1 0 -2 -4 -7 -13 -21 -29 -30 -29 -29 -28 -26 -25 -24 -23 -24 -25 -26 -25 -21 -16 -10 -9 -12 -11 -10 -9 -7 -7 -6 -6 -6 -5 -4 -5 -5 -4 -5 -5 -4 -7 -6
0 -1 -3 -5 -12 -22 -28 -30 -29 -28 -27 -25 -23 -23 -23 -23 -25 -26 -25 -21 -18 -14 -11 -11 -10 -9 -8 -7 -7 -6 -6 -6 -6 -6 -6 -6 -6 -6 -6 -6 -6 -5 -6
-1 -3 -5 -10 -20 -29 -30 -28 -27 -26 -24 -22 -22 -22 -23 -24 -26 -25 -18 -16 -14 -12 -12 -10 -9 -8 -7 -7 -6 -7 -6 -7 -6 -6 -6 -6 -6 -7 -6 -6 -5 -5 -5
-4 -7 -12 -12 -25 -29 -28 -27 -25 -23 -21 -20 -20 -22 -23 -25 -25 -25 -22 -11 -8 -8 -9 -9 -8 -8 -7 -7 -7 -7 -6 -6 -7 -6 -6 -7 -7 -7 -6 -5 -4 -4 -4
-8 -14 -18 -20 -28 -28 -26 -25 -22 -20 -19 -20 -21 -22 -24 -24 -24 -23 -9 -8 -8 -8 -8 -8 -9 -8 -7 -8 -8 -7 -7 -7 -8 -8 -7 -7 -7 -9 -6 -5 -4 -4 -5
-9 -16 -24 -27 -28 -26 -24 -21 -19 -19 -20 -21 -22 -23 -24 -24 -22 -15 -8 -8 -9 -9 -8 -8 -8 -7 -9 -8 -8 -7 -10 -13 -9 -8 -8 -8 -8 -7 -7 -6 -5 -6 -6
-15 -22 -27 -27 -25 -24 -21 -19 -19 -19 -20 -21 -22 -23 -23 -23 -18 -11 -8 -9 -10 -9 -9 -8 -7 -9 -9 -8 -7 -8 -10 -10 -10 -9 -8 -8 -7 -7 -6 -6 -6 -6 -6
-21 -26 -26 -25 -23 -21 -19 -18 -19 -20 -20 -21 -22 -22 -21 -20 -16 -9 -9 -9 -9 -9 -8 -8 -9 -10 -8 -8 -8 -9 -10 -10 -9 -9 -10 -11 -10 -9 -7 -7 -7 -6 -6
-26 -26 -24 -23 -21 -19 -18 -18 -19 -20 -21 -22 -22 -21 -19 -14 -11 -9 -9 -9 -9 -8 -8 -9 -10 -10 -7 -8 -10 -11 -10 -9 -10 -11 -11 -9 -9 -9 -8 -8 -7 -7 -7
-25 -24 -22 -21 -19 -17 -18 -19 -20 -21 -21 -21 -21 -18 -14 -11 -10 -10 -9 -9 -9 -8 -9 -10 -9 -8 -9 -10 -11 -10 -10 -10 -12 -10 -10 -10 -9 -9 -9 -9 -8 -8 -7
-23 -22 -21 -19 -17 -17 -18 -19 -20 -21 -20 -20 -16 -11 -11 -11 -10 -10 -9 -9 -9 -9 -10 -9 -9 -12 -12 -11 -11 -11 -10 -11 -11 -11 -10 -10 -10 -10 -9 -9 -9 -8 -8
-21 -21 -18 -15 -16 -18 -19 -20 -21 -20 -19 -14 -11 -10 -10 -11 -11 -11 -9 -9 -10 -9 -9 -11 -13 -13 -11 -11 -12 -12 -11 -11 -11 -11 -11 -11 -10 -10 -10 -9 -8 -8 -8
-21 -17 -15 -16 -18 -19 -20 -20 -20 -18 -13 -10 -10 -10 -10 -10 -11 -9 -10 -10 -9 -9 -11 -12 -14 -11 -12 -13 -12 -12 -12 -11 -11 -11 -11 -11 -11 -10 -10 -9 -8 -8 -8
-15 -15 -17 -18 -19 -20 -21 -22 -19 -16 -12 -11 -10 -10 -10 -10 -10 -10 -10 -10 -9 -11 -12 -12 -13 -12 -12 -12 -12 -12 -12 -11 -11 -12 -11 -11 -10 -10 -9 -9 -8 -8 -8
-15 -17 -18 -19 -20 -22 -22 -18 -16 -15 -14 -13 -11 -10 -10 -11 -10 -11 -10 -10 -11 -12 -12 -13 -12 -12 -12 -12 -12 -12 -12 -12 -12 -12 -11 -11 -10 -10 -9 -8 -8 -8 -9
-17 -18 -19 -21 -23 -21 -17 -14 -14 -13 -12 -11 -12 -11 -10 -11 -11 -11 -10 -11 -14 -13 -12 -12 -13 -13 -13 -13 -13 -12 -12 -12 -12 -12 -11 -10 -10 -9 -9 -8 -8 -9 -9
-18 -19 -21 -22 -20 -16 -14 -15 -14 -12 -11 -11 -12 -12 -12 -11 -11 -11 -12 -13 -13 -13 -13 -13 -13 -13 -13 -13 -12 -12 -12 -12 -12 -11 -10 -10 -10 -9 -9 -8 -8 -8 -10
-19 -21 -22 -20 -16 -15 -15 -14 -13 -11 -11 -12 -12 -12 -12 -12 -11 -13 -13 -13 -13 -13 -13 -13 -13 -13 -13 -13 -12 -12 -13 -12 -11 -11 -10 -9 -9 -9 -10 -11 -15 -17 -20
-20 -22 -21 -16 -16 -15 -15 -13 -11 -11 -12 -12 -12 -13 -12 -12 -13 -13 -13 -13 -13 -13 -13 -13 -13 -14 -14 -12 -12 -12 -12 -11 -10 -10 -9 -9 -11 -13 -18 -21 -20 -12 -9
-22 -21 -17 -16 -15 -15 -12 -12 -14 -13 -13 -13 -13 -14 -13 -13 -13 -13 -13 -13 -13 -13 -13 -13 -14 -15 -13 -11 -12 -12 -11 -10 -9 -9 -9 -11 -15 -20 -22 -18 -8 -8 -8
-21 -18 -17 -16 -15 -14 -15 -15 -15 -14 -13 -13 -13 -13 -13 -13 -13 -13 -14 -13 -13 -13 -14 -14 -15 -14 -11 -11 -11 -10 -10 -9 -9 -9 -13 -18 -14 -9 -8 -8 -7 -7 -7
-19 -16 -16 -16 -16 -15 -15 -15 -14 -14 -13 -13 -14 -13 -13 -13 -13 -14 -14 -14 -14 -14 -14 -15 -15 -10 -11 -10 -9 -9 -8 -8 -9 -16 -17 -8 -7 -7 -7 -7 -7 -7 -7
-17 -17 -17 -17 -16 -16 -15 -15 -14 -13 -13 -14 -14 -14 -14 -14 -14 -14 -14 -14 -14 -14 -15 -16 -10 -11 -10 -9 -9 -8 -9 -13 -18 -14 -7 -7 -7 -7 -7 -7 -7 -6 -6
-19 -18 -17 -16 -16 -15 -15 -14 -14 -13 -14 -14 -14 -14 -14 -14 -14 -14 -14 -14 -14 -15 -16 -12 -10 -10 -9 -9 -8 -10 -17 -20 -10 -7 -7 -7 -8 -7 -7 -6 -6 -6 -6

GFSGL_850_dewp_018.txt.gz
Dewpoint
-2 -0 0 -1 -2 -4 -7 -10 -18 -24 -29 -29 -28 -27 -24 -22 -21 -20 -18 -17 -14 -13 -11 -11 -10 -8 -9 -10 -11 -11 -10 -9 -8 -7 -7 -8 -8 -7 -6 -7 -7 -6 -5
-0 0 -1 -2 -4 -6 -11 -15 -24 -30 -29 -27 -25 -23 -21 -20 -21 -21 -18 -15 -13 -12 -11 -10 -10 -10 -10 -10 -10 -10 -9 -8 -7 -5 -7 -7 -7 -7 -7 -6 -7 -7 -7
0 -1 -3 -4 -5 -8 -16 -28 -29 -28 -26 -24 -21 -20 -20 -20 -21 -19 -16 -13 -12 -11 -11 -10 -10 -10 -10 -10 -9 -9 -8 -7 -7 -7 -7 -7 -7 -7 -7 -7 -6 -7 -8
-1 -3 -5 -6 -9 -15 -26 -29 -27 -26 -23 -20 -19 -19 -19 -20 -21 -17 -17 -12 -11 -10 -10 -9 -9 -10 -9 -9 -8 -8 -7 -7 -8 -7 -6 -6 -7 -8 -8 -7 -8 -8 -7
-2 -5 -7 -9 -11 -20 -28 -27 -25 -22 -19 -18 -18 -19 -19 -20 -18 -23 -20 -11 -10 -9 -9 -10 -10 -9 -8 -8 -7 -7 -7 -8 -7 -6 -6 -8 -9 -9 -8 -8 -6 -8 -8
-4 -6 -7 -11 -17 -27 -26 -25 -22 -19 -18 -17 -18 -19 -19 -19 -22 -23 -19 -9 -9 -9 -10 -10 -10 -10 -10 -8 -8 -8 -8 -6 -7 -6 -7 -9 -9 -8 -8 -8 -8 -7 -6
-4 -6 -11 -16 -26 -26 -25 -21 -18 -17 -17 -17 -17 -18 -19 -19 -21 -21 -9 -8 -9 -10 -10 -10 -10 -11 -9 -8 -9 -9 -8 -7 -7 -8 -8 -9 -8 -9 -8 -7 -7 -6 -6
-5 -9 -15 -26 -26 -24 -22 -19 -17 -17 -17 -16 -16 -18 -18 -16 -16 -10 -9 -9 -10 -10 -10 -10 -10 -9 -8 -8 -9 -8 -7 -8 -10 -10 -10 -9 -8 -8 -8 -7 -7 -8 -8
-6 -15 -25 -26 -24 -22 -19 -17 -16 -17 -17 -17 -16 -15 -15 -15 -12 -10 -9 -9 -10 -10 -10 -10 -9 -9 -9 -9 -8 -7 -8 -9 -12 -10 -9 -8 -9 -9 -8 -8 -8 -7 -6
-13 -23 -26 -24 -22 -20 -18 -16 -17 -17 -17 -17 -16 -15 -14 -14 -11 -9 -9 -9 -10 -10 -10 -9 -9 -9 -9 -8 -7 -10 -9 -11 -10 -9 -10 -10 -9 -9 -8 -9 -8 -8 -7
-20 -25 -24 -22 -21 -18 -16 -17 -17 -17 -17 -16 -15 -15 -13 -12 -10 -10 -9 -9 -10 -9 -9 -9 -10 -9 -8 -10 -11 -10 -10 -10 -10 -10 -11 -10 -10 -10 -10 -9 -9 -9 -9
-24 -23 -22 -21 -17 -16 -17 -18 -18 -16 -16 -16 -15 -13 -12 -11 -11 -10 -9 -9 -9 -8 -9 -9 -9 -8 -11 -11 -11 -10 -11 -11 -11 -11 -11 -10 -10 -10 -10 -10 -10 -9 -9
-23 -22 -20 -16 -15 -17 -17 -18 -16 -16 -15 -14 -13 -12 -11 -11 -11 -10 -10 -9 -9 -9 -10 -9 -9 -11 -12 -12 -11 -11 -11 -12 -11 -11 -10 -10 -11 -11 -10 -10 -10 -10 -9
-22 -20 -15 -15 -17 -18 -18 -17 -17 -15 -14 -12 -11 -11 -11 -11 -11 -11 -10 -10 -10 -11 -9 -9 -12 -12 -12 -12 -12 -12 -12 -11 -11 -11 -11 -11 -11 -11 -10 -10 -10 -9 -8
-19 -15 -15 -16 -17 -17 -18 -17 -16 -15 -13 -10 -10 -10 -10 -10 -11 -10 -9 -10 -10 -9 -9 -12 -13 -13 -12 -12 -12 -12 -12 -11 -11 -11 -11 -12 -11 -11 -10 -10 -9 -8 -8
-16 -15 -16 -17 -17 -19 -18 -16 -13 -11 -10 -10 -11 -10 -10 -10 -10 -10 -10 -10 -9 -10 -12 -12 -12 -12 -12 -12 -12 -12 -12 -12 -12 -12 -12 -11 -11 -11 -10 -9 -8 -8 -9
-15 -16 -17 -17 -17 -15 -14 -13 -12 -13 -12 -11 -11 -10 -10 -11 -11 -11 -10 -10 -11 -12 -12 -12 -12 -12 -12 -12 -12 -12 -12 -12 -12 -12 -12 -11 -11 -10 -9 -8 -9 -9 -9
-15 -16 -18 -18 -17 -14 -13 -12 -12 -12 -12 -12 -12 -11 -11 -11 -11 -11 -10 -11 -13 -13 -13 -12 -12 -13 -13 -13 -12 -12 -13 -13 -12 -12 -11 -11 -10 -10 -9 -9 -9 -9 -9
-16 -17 -19 -20 -16 -14 -12 -12 -12 -12 -12 -12 -12 -12 -12 -12 -11 -11 -11 -12 -12 -13 -13 -13 -13 -13 -13 -13 -13 -13 -13 -13 -12 -12 -11 -10 -9 -9 -11 -14 -17 -14 -16
-17 -18 -21 -21 -14 -12 -12 -12 -12 -12 -12 -12 -12 -12 -12 -12 -12 -12 -12 -13 -13 -13 -13 -13 -13 -13 -13 -13 -13 -13 -13 -11 -11 -10 -10 -10 -10 -10 -13 -18 -13 -9 -9
-18 -20 -21 -17 -12 -12 -12 -12 -12 -12 -12 -12 -13 -12 -11 -12 -13 -13 -13 -13 -13 -13 -13 -13 -13 -13 -12 -13 -13 -13 -12 -10 -10 -9 -10 -11 -11 -12 -12 -10 -9 -8 -8
-19 -20 -17 -12 -12 -12 -12 -12 -12 -12 -12 -12 -12 -12 -12 -12 -13 -13 -13 -13 -13 -13 -13 -13 -13 -12 -12 -13 -12 -11 -10 -9 -9 -10 -14 -12 -9 -9 -8 -8 -8 -8 -8
-20 -17 -12 -12 -12 -12 -12 -12 -13 -13 -12 -12 -12 -12 -13 -13 -13 -13 -13 -13 -14 -13 -13 -14 -13 -11 -11 -11 -10 -10 -9 -9 -10 -11 -11 -8 -8 -7 -7 -7 -7 -7 -7
-14 -12 -12 -13 -13 -13 -13 -13 -13 -13 -12 -13 -13 -13 -13 -14 -13 -14 -14 -14 -14 -13 -14 -14 -11 -11 -11 -10 -10 -10 -10 -10 -11 -10 -8 -7 -7 -7 -7 -7 -7 -7 -7
-13 -13 -14 -14 -14 -14 -14 -13 -13 -13 -13 -14 -14 -14 -14 -14 -14 -14 -14 -14 -13 -14 -16 -11 -11 -10 -10 -9 -10 -14 -14 -11 -8 -8 -7 -7 -7 -7 -7 -7 -6 -6 -7
-19 -20 -19 -17 -16 -15 -15 -14 -13 -13 -14 -14 -14 -14 -14 -14 -14 -14 -13 -13 -14 -15 -14 -11 -10 -10 -9 -10 -17 -18 -11 -8 -8 -7 -8 -7 -7 -6 -7 -7 -7 -7 -7

GFSGL_850_dewp_021.txt.gz
Dewpoint
-2 -0 -0 -1 -2 -3 -5 -7 -11 -20 -27 -28 -27 -26 -22 -19 -18 -17 -17 -16 -15 -14 -13 -12 -11 -11 -10 -10 -10 -10 -10 -9 -9 -8 -8 -7 -7 -8 -8 -7 -7 -6 -7
-1 -0 -1 -2 -3 -5 -8 -12 -22 -27 -28 -27 -25 -20 -18 -17 -17 -16 -16 -15 -15 -13 -12 -11 -11 -10 -10 -9 -10 -10 -9 -9 -9 -7 -7 -7 -8 -7 -7 -6 -8 -8 -8
-0 -1 -2 -3 -5 -7 -9 -17 -26 -28 -26 -24 -19 -17 -17 -17 -16 -15 -15 -15 -13 -12 -11 -11 -10 -10 -9 -10 -10 -9 -9 -8 -7 -7 -7 -8 -8 -6 -7 -8 -11 -11 -9
-1 -2 -3 -5 -6 -9 -14 -23 -27 -26 -23 -18 -17 -16 -16 -15 -15 -15 -16 -15 -12 -11 -10 -10 -10 -10 -10 -10 -9 -8 -7 -6 -8 -7 -8 -7 -6 -7 -7 -9 -10 -9 -8
-1 -2 -3 -5 -8 -14 -24 -27 -26 -22 -18 -16 -15 -14 -15 -15 -16 -15 -14 -11 -10 -9 -9 -10 -10 -10 -10 -9 -9 -8 -7 -7 -7 -7 -6 -6 -7 -8 -9 -9 -10 -9 -8
-1 -2 -4 -8 -13 -23 -26 -26 -22 -19 -16 -15 -14 -14 -15 -15 -15 -12 -10 -10 -9 -9 -9 -10 -10 -11 -11 -10 -9 -9 -7 -7 -8 -7 -6 -6 -8 -9 -10 -9 -8 -7 -8
-2 -4 -7 -12 -20 -26 -26 -23 -19 -16 -15 -14 -14 -15 -15 -15 -14 -12 -10 -9 -9 -9 -10 -10 -11 -11 -10 -10 -9 -8 -8 -9 -7 -8 -7 -8 -10 -10 -9 -8 -7 -7 -8
-4 -7 -11 -16 -25 -25 -23 -19 -17 -15 -14 -15 -15 -15 -15 -15 -14 -12 -10 -9 -9 -10 -10 -10 -10 -10 -10 -8 -8 -7 -9 -9 -10 -10 -10 -9 -9 -8 -8 -8 -8 -8 -8
-6 -10 -15 -24 -25 -23 -20 -18 -15 -15 -15 -16 -16 -15 -15 -15 -14 -11 -9 -9 -9 -10 -10 -10 -9 -8 -9 -8 -8 -8 -9 -10 -11 -10 -9 -10 -10 -10 -9 -9 -9 -8 -8
-9 -11 -21 -25 -22 -21 -17 -15 -15 -16 -16 -16 -15 -16 -16 -15 -12 -10 -9 -9 -9 -9 -9 -9 -9 -9 -9 -8 -8 -9 -9 -11 -9 -10 -10 -11 -11 -11 -9 -10 -9 -9 -9
-9 -15 -24 -22 -21 -17 -15 -15 -16 -16 -15 -15 -16 -16 -14 -13 -12 -11 -10 -9 -9 -8 -9 -9 -9 -10 -8 -9 -11 -10 -11 -9 -10 -11 -12 -11 -10 -10 -10 -10 -10 -10 -10
-12 -23 -22 -21 -16 -15 -15 -16 -16 -15 -16 -16 -16 -15 -13 -12 -11 -11 -10 -9 -9 -8 -9 -9 -10 -8 -10 -11 -11 -12 -10 -11 -12 -11 -10 -10 -10 -10 -11 -11 -11 -10 -10
-23 -22 -21 -17 -15 -15 -16 -15 -15 -16 -16 -16 -14 -12 -11 -11 -11 -10 -10 -10 -9 -9 -9 -10 -9 -11 -12 -12 -12 -11 -11 -12 -11 -11 -10 -11 -11 -11 -11 -11 -10 -10 -10
-22 -21 -17 -15 -15 -15 -14 -15 -16 -16 -15 -13 -12 -10 -10 -10 -10 -10 -10 -9 -9 -10 -9 -9 -12 -12 -12 -12 -12 -12 -12 -11 -11 -11 -11 -12 -12 -11 -11 -10 -10 -9 -9
-21 -18 -15 -15 -15 -14 -15 -16 -15 -14 -12 -11 -10 -10 -10 -10 -11 -10 -10 -10 -10 -10 -10 -11 -12 -13 -12 -12 -12 -12 -12 -11 -12 -12 -12 -12 -11 -11 -10 -10 -9 -8 -8
-19 -15 -14 -15 -14 -15 -16 -15 -15 -13 -12 -12 -11 -10 -10 -10 -10 -10 -10 -10 -10 -10 -11 -12 -12 -12 -12 -12 -12 -12 -12 -12 -12 -12 -12 -12 -11 -11 -10 -10 -9 -8 -9
-16 -14 -15 -15 -15 -15 -14 -14 -13 -14 -13 -12 -12 -11 -11 -11 -11 -11 -11 -10 -11 -12 -12 -12 -12 -12 -12 -12 -12 -12 -12 -12 -12 -12 -12 -12 -11 -10 -10 -10 -11 -10 -9
-14 -14 -15 -15 -16 -15 -14 -13 -13 -13 -13 -12 -12 -12 -12 -12 -11 -11 -11 -11 -13 -13 -12 -12 -12 -12 -13 -12 -12 -12 -13 -13 -12 -12 -11 -10 -10 -10 -9 -10 -11 -10 -10
-14 -15 -15 -17 -17 -14 -13 -13 -13 -13 -12 -12 -12 -13 -13 -12 -12 -11 -12 -13 -12 -12 -13 -13 -13 -13 -13 -12 -12 -13 -13 -12 -12 -11 -10 -11 -10 -10 -10 -10 -10 -9 -9
-14 -16 -16 -16 -16 -14 -13 -13 -13 -12 -12 -12 -12 -12 -13 -12 -12 -13 -13 -13 -13 -13 -13 -13 -13 -13 -13 -12 -13 -13 -12 -11 -10 -10 -10 -11 -10 -10 -10 -10 -10 -9 -9
-16 -17 -17 -15 -13 -12 -12 -12 -12 -12 -12 -12 -13 -12 -12 -12 -13 -13 -13 -13 -13 -13 -13 -13 -13 -13 -12 -12 -12 -12 -11 -10 -10 -10 -10 -10 -10 -9 -9 -9 -9 -8 -8
-17 -18 -16 -13 -12 -12 -12 -12 -13 -13 -13 -13 -13 -13 -12 -13 -13 -13 -13 -13 -13 -13 -13 -13 -13 -12 -12 -12 -12 -11 -11 -10 -10 -10 -10 -9 -8 -8 -9 -8 -8 -8 -8
-18 -17 -12 -12 -13 -13 -14 -14 -14 -14 -13 -13 -13 -13 -13 -13 -13 -13 -13 -14 -13 -13 -13 -14 -12 -11 -11 -11 -10 -11 -11 -10 -10 -10 -9 -8 -8 -8 -8 -8 -8 -8 -7
-17 -12 -12 -13 -14 -14 -15 -14 -14 -13 -13 -13 -13 -13 -13 -13 -13 -14 -14 -13 -13 -13 -14 -12 -11 -11 -10 -10 -10 -12 -10 -10 -10 -9 -8 -7 -8 -7 -8 -7 -7 -7 -7
-14 -13 -15 -15 -16 -15 -14 -14 -14 -13 -13 -13 -13 -13 -13 -14 -14 -14 -14 -13 -13 -14 -15 -11 -10 -10 -10 -14 -14 -10 -9 -9 -8 -8 -7 -7 -7 -7 -8 -7 -7 -7 -7
-16 -18 -18 -16 -16 -15 -14 -14 -14 -13 -14 -14 -14 -14 -14 -14 -14 -14 -13 -13 -13 -14 -13 -10 -10 -9 -14 -15 -9 -9 -8 -8 -7 -7 -7 -7 -7 -7 -8 -8 -8 -7 -7

GFSGL_850_dewp_024.txt.gz
Dewpoint
-2 -1 -1 -0 -1 -2 -3 -4 -6 -13 -20 -24 -25 -26 -22 -19 -17 -17 -18 -19 -18 -16 -18 -18 -13 -12 -11 -10 -10 -9 -9 -9 -8 -8 -9 -9 -7 -8 -11 -8 -8 -7 -7
-1 -1 -0 -1 -2 -3 -4 -6 -10 -17 -23 -26 -25 -22 -19 -17 -17 -18 -18 -17 -16 -17 -19 -16 -13 -10 -10 -10 -9 -10 -9 -9 -9 -9 -8 -7 -8 -10 -8 -8 -6 -7 -6
-1 -1 -1 -1 -3 -4 -6 -9 -16 -23 -26 -25 -21 -19 -17 -17 -18 -17 -17 -16 -16 -16 -17 -15 -12 -11 -9 -9 -10 -10 -10 -9 -7 -6 -7 -9 -7 -8 -8 -7 -7 -7 -9
-1 -1 -1 -2 -3 -5 -8 -16 -24 -26 -24 -21 -19 -16 -16 -17 -16 -16 -15 -14 -13 -12 -13 -14 -10 -9 -9 -10 -10 -9 -8 -7 -7 -7 -7 -7 -7 -8 -7 -7 -8 -10 -11
-1 -1 -2 -2 -4 -8 -15 -24 -26 -23 -21 -18 -16 -16 -16 -16 -15 -14 -12 -11 -11 -11 -12 -11 -9 -9 -9 -9 -9 -8 -8 -8 -7 -6 -7 -7 -7 -8 -8 -9 -10 -11 -10
-1 -1 -2 -4 -7 -12 -22 -25 -23 -21 -18 -16 -16 -16 -16 -16 -16 -12 -11 -11 -10 -10 -10 -9 -9 -10 -10 -9 -9 -9 -8 -7 -7 -7 -7 -8 -10 -10 -9 -8 -9 -9 -9
-1 -2 -4 -6 -10 -20 -25 -23 -21 -17 -16 -16 -17 -18 -17 -18 -17 -12 -11 -10 -9 -10 -9 -9 -9 -10 -10 -10 -9 -8 -7 -8 -8 -9 -10 -10 -10 -9 -9 -9 -8 -8 -8
-2 -4 -5 -8 -17 -24 -23 -21 -17 -15 -16 -17 -19 -19 -19 -18 -15 -13 -11 -10 -9 -9 -9 -9 -9 -9 -9 -9 -8 -8 -8 -10 -9 -9 -11 -10 -9 -9 -9 -9 -9 -9 -9
-4 -6 -9 -16 -24 -23 -21 -16 -15 -16 -18 -19 -19 -20 -18 -17 -16 -12 -10 -10 -10 -9 -9 -8 -9 -9 -9 -8 -8 -8 -9 -9 -12 -11 -9 -9 -10 -10 -10 -10 -10 -9 -10
-6 -8 -13 -23 -23 -21 -16 -15 -16 -17 -18 -19 -19 -19 -18 -16 -15 -11 -10 -10 -9 -9 -8 -9 -9 -9 -10 -8 -8 -9 -9 -11 -10 -9 -11 -13 -13 -12 -10 -10 -10 -10 -10
-7 -11 -22 -23 -21 -16 -15 -15 -16 -18 -18 -19 -19 -19 -17 -15 -12 -11 -10 -9 -9 -9 -9 -10 -10 -10 -8 -9 -10 -10 -11 -9 -10 -12 -13 -12 -11 -11 -11 -11 -11 -11 -11
-9 -22 -23 -21 -17 -14 -15 -15 -18 -18 -18 -18 -17 -18 -15 -13 -11 -10 -10 -10 -9 -9 -9 -10 -11 -9 -10 -10 -11 -12 -10 -11 -13 -12 -11 -11 -11 -11 -12 -11 -10 -10 -9
-22 -23 -21 -17 -14 -14 -15 -17 -17 -17 -17 -17 -15 -13 -12 -11 -11 -10 -10 -9 -10 -10 -10 -10 -9 -10 -11 -12 -12 -11 -11 -13 -12 -11 -11 -12 -12 -12 -11 -11 -10 -10 -9
-23 -21 -18 -14 -14 -14 -16 -17 -17 -16 -15 -14 -12 -11 -11 -11 -11 -11 -9 -10 -9 -10 -10 -9 -11 -12 -13 -12 -13 -13 -13 -12 -11 -12 -12 -12 -12 -12 -11 -10 -10 -10 -9
-21 -19 -15 -13 -13 -15 -17 -18 -17 -16 -14 -12 -11 -11 -11 -10 -11 -10 -10 -10 -10 -10 -10 -11 -14 -13 -12 -12 -12 -13 -12 -12 -12 -12 -12 -12 -12 -11 -10 -10 -10 -10 -10
-20 -17 -14 -13 -14 -16 -17 -18 -18 -17 -15 -12 -11 -11 -11 -11 -11 -11 -11 -10 -10 -11 -11 -13 -12 -12 -12 -12 -12 -12 -12 -12 -12 -12 -12 -11 -11 -11 -11 -10 -10 -10 -10
-19 -16 -13 -13 -15 -17 -17 -17 -18 -20 -15 -13 -12 -12 -11 -11 -11 -11 -11 -11 -11 -12 -13 -12 -12 -12 -12 -13 -12 -12 -12 -12 -12 -12 -11 -11 -11 -11 -10 -10 -10 -10 -10
-18 -14 -13 -14 -16 -17 -17 -16 -14 -14 -14 -15 -14 -12 -12 -12 -12 -11 -11 -11 -14 -14 -13 -12 -13 -13 -13 -13 -13 -13 -13 -12 -12 -11 -10 -10 -10 -10 -10 -10 -10 -10 -9
-16 -13 -14 -16 -16 -16 -16 -16 -14 -14 -13 -13 -13 -13 -13 -12 -11 -11 -12 -13 -13 -13 -13 -13 -13 -13 -13 -13 -13 -13 -12 -12 -11 -10 -10 -10 -10 -10 -10 -9 -9 -9 -8
-13 -14 -16 -16 -15 -17 -16 -15 -14 -13 -13 -13 -12 -13 -13 -11 -11 -13 -13 -14 -13 -13 -13 -13 -13 -13 -12 -13 -12 -12 -12 -11 -11 -10 -10 -10 -10 -10 -9 -9 -9 -9 -8
-13 -16 -17 -18 -17 -17 -15 -13 -13 -13 -13 -13 -13 -13 -12 -11 -13 -13 -14 -14 -14 -14 -13 -13 -13 -12 -12 -12 -12 -12 -11 -12 -10 -10 -10 -9 -9 -9 -9 -9 -9 -8 -8
-16 -17 -19 -18 -16 -15 -14 -13 -16 -15 -15 -14 -13 -13 -12 -13 -13 -13 -14 -14 -14 -13 -13 -13 -12 -11 -12 -12 -11 -11 -11 -11 -10 -10 -9 -9 -8 -8 -8 -8 -8 -8 -8
-18 -22 -20 -16 -15 -17 -17 -16 -16 -15 -14 -13 -13 -13 -13 -13 -13 -14 -14 -14 -13 -13 -14 -13 -12 -11 -11 -11 -12 -11 -10 -10 -9 -9 -9 -8 -8 -8 -8 -8 -8 -7 -7
-24 -21 -18 -18 -19 -18 -17 -16 -15 -15 -14 -13 -13 -13 -13 -14 -14 -14 -14 -14 -13 -13 -14 -12 -11 -10 -11 -12 -10 -9 -9 -9 -8 -8 -8 -7 -7 -8 -7 -8 -7 -7 -7
-23 -22 -21 -20 -19 -17 -16 -16 -15 -15 -14 -14 -13 -14 -14 -14 -14 -14 -14 -13 -13 -14 -13 -11 -10 -10 -11 -9 -9 -9 -8 -8 -7 -7 -7 -7 -8 -8 -7 -7 -8 -7 -7
-23 -21 -20 -18 -17 -16 -15 -15 -14 -14 -13 -13 -14 -14 -14 -14 -14 -14 -13 -13 -13 -14 -11 -10 -10 -10 -9 -9 -8 -8 -8 -7 -7 -7 -7 -7 -8 -8 -7 -7 -7 -7 -7

GFSGL_850_dewp_027.txt.gz
Dewpoint
-2 -1 -1 -1 -1 -1 -1 -2 -4 -8 -14 -20 -25 -24 -21 -19 -17 -18 -19 -20 -20 -20 -18 -17 -17 -19 -17 -14 -12 -10 -9 -9 -9 -10 -10 -10 -9 -10 -9 -9 -7 -8 -8
-2 -1 -1 -1 -1 -1 -1 -3 -8 -14 -21 -25 -24 -21 -18 -17 -18 -19 -20 -21 -18 -16 -15 -14 -15 -17 -13 -11 -9 -9 -9 -10 -9 -9 -9 -8 -9 -10 -8 -8 -7 -8 -8
-2 -1 -1 -1 -1 -1 -3 -7 -13 -21 -25 -24 -21 -17 -17 -19 -20 -22 -20 -16 -14 -13 -12 -12 -13 -13 -11 -9 -9 -9 -9 -8 -7 -7 -7 -9 -8 -7 -8 -7 -8 -10 -9
-2 -1 -1 -1 -1 -3 -6 -11 -20 -25 -24 -20 -17 -17 -19 -21 -21 -21 -16 -14 -12 -11 -11 -11 -12 -12 -9 -8 -9 -9 -7 -8 -8 -8 -8 -7 -8 -7 -9 -10 -11 -11 -10
-2 -2 -1 -1 -3 -5 -9 -19 -24 -23 -19 -16 -17 -18 -21 -22 -21 -16 -13 -11 -11 -11 -11 -11 -11 -10 -9 -9 -9 -9 -9 -8 -7 -7 -7 -7 -8 -10 -11 -11 -10 -10 -9
-2 -1 -1 -3 -4 -7 -17 -24 -23 -19 -16 -16 -18 -21 -21 -21 -21 -16 -11 -11 -11 -10 -10 -10 -10 -9 -9 -9 -9 -9 -8 -7 -8 -7 -7 -8 -10 -10 -10 -10 -9 -8 -9
-2 -1 -3 -4 -7 -16 -24 -23 -18 -15 -16 -18 -20 -20 -20 -22 -23 -14 -11 -11 -10 -10 -10 -10 -9 -9 -9 -9 -10 -9 -9 -8 -8 -8 -9 -9 -9 -10 -9 -8 -9 -9 -9
-2 -3 -5 -6 -12 -23 -23 -18 -15 -15 -17 -19 -20 -20 -21 -22 -19 -13 -11 -10 -10 -10 -10 -9 -9 -9 -9 -9 -8 -8 -8 -9 -10 -9 -10 -10 -9 -9 -9 -10 -10 -10 -10
-3 -5 -6 -10 -22 -23 -17 -15 -15 -16 -19 -19 -20 -21 -20 -19 -17 -12 -10 -9 -10 -10 -10 -10 -9 -9 -10 -9 -9 -8 -9 -10 -13 -11 -9 -9 -11 -11 -10 -10 -10 -10 -10
-5 -6 -9 -22 -23 -17 -14 -14 -15 -17 -19 -19 -20 -20 -19 -17 -15 -10 -9 -10 -9 -11 -10 -11 -10 -10 -10 -9 -8 -9 -10 -13 -10 -10 -11 -14 -14 -13 -10 -11 -11 -11 -11
-6 -9 -21 -23 -18 -14 -14 -14 -16 -18 -19 -19 -20 -20 -17 -15 -14 -10 -9 -9 -9 -9 -10 -10 -11 -10 -9 -10 -10 -11 -11 -10 -10 -13 -14 -13 -12 -11 -12 -11 -11 -11 -11
-8 -20 -23 -18 -14 -13 -13 -15 -18 -18 -19 -20 -20 -17 -14 -12 -12 -12 -10 -10 -9 -9 -9 -11 -10 -9 -11 -11 -11 -11 -11 -10 -13 -12 -11 -11 -11 -12 -12 -11 -10 -10 -10
-18 -23 -19 -15 -13 -13 -14 -16 -18 -18 -19 -20 -15 -12 -12 -12 -12 -12 -10 -9 -10 -10 -10 -10 -10 -11 -12 -13 -12 -11 -11 -13 -12 -12 -11 -12 -12 -11 -11 -11 -11 -10 -10
-23 -20 -17 -14 -13 -13 -15 -17 -18 -19 -21 -14 -12 -11 -11 -11 -11 -11 -10 -10 -10 -10 -10 -11 -12 -13 -12 -13 -13 -13 -12 -12 -12 -12 -12 -12 -11 -11 -11 -11 -10 -10 -10
-21 -19 -16 -14 -12 -13 -16 -18 -19 -21 -17 -12 -12 -11 -11 -11 -11 -10 -10 -10 -10 -10 -11 -12 -14 -13 -13 -13 -13 -13 -12 -12 -12 -12 -12 -11 -11 -11 -11 -11 -10 -10 -10
-20 -18 -16 -13 -12 -15 -17 -19 -23 -22 -19 -15 -12 -11 -11 -11 -11 -11 -11 -10 -10 -11 -12 -13 -13 -13 -13 -12 -12 -13 -13 -12 -12 -12 -11 -11 -11 -11 -11 -10 -10 -10 -10
-19 -18 -15 -12 -14 -17 -18 -21 -20 -20 -18 -19 -15 -12 -11 -11 -11 -11 -10 -11 -11 -12 -13 -13 -13 -13 -13 -12 -13 -13 -13 -12 -12 -11 -11 -11 -10 -10 -10 -10 -10 -9 -9
-19 -16 -12 -13 -16 -17 -20 -19 -18 -17 -18 -19 -18 -15 -12 -12 -11 -11 -11 -12 -14 -13 -13 -13 -13 -13 -13 -13 -13 -13 -13 -12 -12 -11 -10 -10 -10 -10 -10 -10 -9 -9 -9
-17 -13 -12 -16 -17 -20 -19 -18 -18 -16 -16 -17 -18 -17 -14 -12 -11 -13 -13 -14 -13 -13 -14 -14 -13 -13 -13 -12 -13 -12 -12 -12 -11 -10 -10 -9 -9 -9 -10 -9 -9 -9 -8
-14 -12 -15 -17 -22 -21 -19 -19 -17 -15 -17 -17 -16 -15 -13 -12 -13 -14 -14 -13 -13 -14 -14 -13 -13 -12 -12 -12 -12 -12 -12 -11 -10 -10 -9 -9 -9 -9 -9 -9 -8 -8 -8
-11 -15 -18 -24 -22 -19 -18 -18 -17 -17 -17 -16 -16 -14 -12 -12 -14 -13 -13 -14 -14 -13 -13 -13 -13 -12 -11 -11 -11 -11 -11 -10 -9 -9 -8 -8 -8 -9 -8 -8 -8 -8 -8
-15 -18 -25 -23 -20 -19 -19 -18 -18 -17 -16 -15 -15 -15 -13 -14 -13 -14 -14 -14 -14 -13 -13 -13 -12 -11 -11 -11 -11 -10 -10 -9 -9 -8 -8 -8 -8 -8 -8 -8 -8 -7 -7
-20 -25 -24 -22 -21 -20 -19 -18 -17 -16 -15 -15 -14 -14 -14 -13 -14 -14 -14 -14 -13 -13 -14 -12 -11 -10 -10 -10 -9 -9 -9 -8 -8 -8 -8 -8 -8 -8 -8 -8 -8 -7 -7
-25 -24 -23 -22 -20 -19 -18 -17 -17 -16 -15 -14 -14 -14 -13 -14 -14 -14 -14 -13 -13 -14 -13 -11 -10 -10 -10 -9 -9 -8 -8 -7 -7 -7 -7 -7 -7 -8 -8 -7 -7 -7 -7
-25 -24 -22 -20 -19 -18 -17 -17 -15 -14 -14 -14 -14 -13 -14 -14 -14 -14 -14 -13 -13 -14 -11 -10 -10 -10 -9 -9 -8 -8 -7 -7 -7 -7 -7 -7 -8 -7 -7 -8 -7 -7 -6
-24 -22 -21 -19 -18 -17 -16 -15 -14 -14 -14 -14 -14 -14 -14 -14 -14 -14 -14 -13 -14 -13 -11 -10 -10 -9 -9 -8 -8 -7 -7 -7 -7 -7 -7 -7 -8 -8 -8 -7 -7 -7 -6

GFSGL_850_dewp_030.txt.gz
Dewpoint
-2 -2 -1 -1 -1 -1 -1 -1 -3 -7 -12 -18 -24 -24 -22 -18 -18 -20 -21 -21 -21 -19 -17 -16 -14 -13 -15 -16 -15 -12 -10 -9 -8 -9 -10 -9 -8 -9 -9 -8 -7 -8 -8
-2 -2 -1 -1 -1 -1 -1 -2 -6 -12 -19 -24 -23 -20 -17 -18 -20 -22 -21 -21 -19 -17 -15 -12 -12 -13 -13 -14 -13 -10 -9 -9 -8 -7 -9 -9 -9 -10 -8 -8 -7 -8 -8
-2 -2 -1 -1 -1 -1 -2 -5 -10 -19 -24 -23 -19 -17 -18 -20 -22 -22 -22 -20 -19 -14 -12 -11 -12 -11 -12 -12 -10 -9 -9 -8 -8 -9 -9 -10 -9 -9 -9 -7 -8 -11 -11
-3 -2 -2 -1 -1 -2 -4 -9 -18 -23 -23 -18 -16 -18 -20 -21 -22 -23 -22 -18 -14 -12 -12 -11 -11 -10 -11 -9 -9 -8 -8 -8 -8 -8 -8 -7 -8 -8 -8 -10 -11 -11 -12
-3 -3 -2 -1 -2 -4 -8 -17 -23 -23 -17 -16 -17 -19 -21 -22 -23 -24 -16 -12 -12 -12 -11 -10 -10 -10 -9 -9 -9 -8 -9 -8 -8 -8 -8 -8 -8 -10 -10 -10 -11 -10 -10
-3 -2 -2 -2 -4 -7 -15 -22 -23 -17 -15 -17 -19 -20 -21 -22 -23 -19 -11 -11 -12 -10 -10 -10 -11 -11 -9 -9 -9 -9 -9 -8 -9 -8 -7 -9 -10 -10 -10 -10 -9 -9 -10
-3 -2 -2 -4 -6 -12 -21 -23 -16 -15 -16 -18 -20 -20 -21 -23 -23 -19 -13 -12 -11 -10 -10 -11 -11 -10 -10 -11 -10 -9 -10 -8 -8 -9 -10 -10 -10 -10 -9 -9 -10 -10 -10
-3 -2 -4 -6 -9 -20 -22 -16 -14 -15 -17 -19 -20 -20 -21 -23 -22 -21 -18 -12 -12 -12 -12 -11 -9 -10 -10 -10 -9 -9 -9 -12 -12 -11 -11 -10 -9 -10 -10 -10 -10 -10 -10
-3 -4 -5 -7 -18 -23 -16 -14 -14 -16 -18 -19 -20 -21 -22 -22 -21 -20 -10 -10 -11 -11 -12 -9 -9 -10 -10 -9 -8 -9 -10 -11 -14 -11 -10 -10 -11 -11 -10 -10 -11 -11 -11
-3 -5 -7 -16 -23 -16 -13 -13 -14 -17 -18 -19 -21 -23 -22 -21 -19 -16 -9 -10 -10 -11 -9 -10 -10 -10 -9 -9 -10 -10 -11 -13 -10 -10 -12 -14 -14 -13 -11 -11 -11 -11 -11
-5 -6 -14 -23 -17 -13 -13 -13 -15 -18 -19 -20 -23 -24 -23 -20 -16 -12 -9 -9 -9 -8 -10 -10 -11 -10 -9 -11 -11 -11 -11 -10 -11 -13 -14 -13 -12 -12 -11 -11 -11 -11 -11
-6 -13 -23 -18 -14 -13 -13 -13 -16 -18 -20 -23 -24 -24 -21 -18 -14 -13 -10 -10 -9 -10 -9 -11 -10 -10 -11 -11 -11 -11 -10 -10 -13 -13 -12 -11 -11 -11 -11 -11 -11 -11 -10
-10 -22 -19 -16 -14 -13 -13 -14 -17 -19 -23 -24 -21 -18 -16 -15 -13 -12 -10 -10 -10 -10 -11 -10 -10 -11 -13 -15 -13 -11 -11 -13 -12 -12 -12 -12 -11 -11 -11 -11 -11 -10 -10
-22 -21 -18 -16 -14 -12 -13 -16 -18 -22 -24 -21 -18 -15 -14 -13 -12 -10 -9 -11 -10 -10 -10 -11 -13 -14 -16 -14 -13 -13 -13 -12 -12 -12 -12 -11 -11 -11 -11 -10 -10 -10 -10
-22 -19 -17 -15 -13 -12 -14 -17 -20 -23 -22 -16 -15 -12 -12 -11 -11 -10 -10 -10 -10 -10 -11 -13 -15 -15 -15 -13 -13 -13 -13 -12 -12 -12 -11 -11 -11 -11 -10 -10 -10 -10 -10
-20 -19 -17 -14 -12 -13 -16 -18 -23 -23 -23 -22 -21 -15 -13 -11 -11 -11 -11 -10 -11 -11 -12 -14 -14 -14 -13 -13 -12 -12 -12 -12 -12 -12 -11 -11 -11 -10 -10 -10 -10 -10 -9
-19 -18 -16 -13 -12 -15 -18 -22 -22 -25 -24 -23 -21 -19 -13 -11 -11 -11 -11 -11 -13 -12 -14 -14 -13 -13 -13 -12 -12 -12 -12 -12 -11 -11 -11 -10 -10 -10 -10 -10 -10 -9 -9
-19 -17 -13 -12 -15 -18 -22 -21 -21 -21 -21 -21 -19 -18 -17 -14 -11 -11 -11 -12 -15 -15 -14 -13 -14 -13 -12 -12 -12 -12 -12 -11 -11 -11 -10 -9 -9 -9 -9 -9 -9 -9 -9
-18 -14 -12 -14 -18 -22 -21 -22 -22 -21 -20 -19 -19 -18 -17 -14 -11 -13 -14 -14 -14 -14 -14 -14 -14 -13 -12 -11 -11 -11 -11 -11 -11 -10 -9 -9 -9 -9 -9 -9 -8 -8 -8
-15 -12 -14 -18 -24 -23 -22 -22 -22 -20 -19 -18 -18 -17 -14 -12 -13 -15 -15 -14 -14 -14 -13 -14 -13 -12 -11 -11 -11 -11 -10 -10 -9 -9 -9 -8 -8 -8 -8 -8 -8 -8 -8
-11 -15 -19 -24 -24 -23 -22 -22 -20 -18 -18 -17 -17 -16 -12 -12 -14 -14 -14 -14 -14 -13 -13 -14 -12 -11 -11 -11 -10 -10 -10 -9 -9 -8 -8 -8 -8 -8 -8 -8 -8 -7 -7
-15 -20 -25 -25 -24 -24 -22 -20 -19 -18 -17 -16 -15 -15 -14 -14 -14 -14 -14 -14 -14 -13 -14 -12 -11 -11 -10 -10 -10 -10 -9 -8 -8 -7 -7 -7 -8 -8 -8 -8 -8 -7 -7
-22 -25 -25 -25 -24 -22 -21 -19 -18 -17 -16 -15 -14 -14 -14 -14 -14 -14 -14 -14 -14 -14 -14 -11 -11 -10 -10 -9 -9 -9 -8 -7 -7 -7 -7 -8 -8 -8 -8 -7 -8 -7 -8
-25 -25 -25 -24 -23 -21 -19 -18 -16 -15 -14 -14 -14 -14 -14 -14 -14 -15 -14 -14 -14 -14 -13 -11 -10 -10 -9 -9 -8 -8 -7 -7 -7 -8 -7 -8 -7 -8 -7 -7 -7 -7 -7
-25 -25 -25 -23 -21 -19 -17 -16 -15 -14 -14 -14 -14 -14 -14 -14 -14 -15 -14 -14 -14 -14 -11 -10 -10 -9 -9 -8 -7 -7 -7 -7 -7 -7 -7 -7 -8 -8 -7 -7 -7 -7 -7
-25 -25 -24 -21 -19 -17 -16 -15 -14 -14 -14 -14 -14 -14 -14 -14 -14 -15 -14 -14 -15 -12 -11 -10 -9 -9 -8 -8 -7 -7 -7 -7 -8 -7 -7 -7 -8 -7 -7 -7 -7 -7 -7

GFSGL_850_dewp_033.txt.gz
Dewpoint
-1 -2 -2 -2 -1 -1 -1 -0 -1 -4 -9 -15 -21 -23 -22 -19 -18 -20 -22 -23 -24 -24 -23 -17 -15 -13 -13 -12 -12 -13 -11 -10 -9 -10 -12 -11 -12 -11 -11 -9 -9 -8 -8
-2 -3 -2 -2 -1 -1 -1 -1 -4 -8 -14 -21 -22 -21 -18 -18 -20 -22 -23 -24 -24 -22 -18 -15 -13 -12 -11 -11 -11 -10 -10 -10 -8 -8 -10 -12 -12 -12 -11 -8 -8 -8 -8
-3 -2 -2 -1 -1 -1 -1 -3 -6 -13 -20 -22 -20 -17 -17 -20 -22 -22 -24 -24 -21 -18 -15 -13 -12 -10 -10 -10 -10 -10 -9 -8 -8 -8 -9 -9 -9 -8 -9 -8 -10 -11 -12
-3 -2 -2 -2 -1 -1 -3 -5 -12 -19 -22 -20 -16 -17 -19 -21 -22 -23 -24 -20 -18 -15 -14 -12 -11 -11 -11 -9 -9 -9 -8 -9 -9 -9 -8 -8 -8 -8 -10 -11 -12 -12 -12
-3 -3 -2 -2 -2 -3 -5 -10 -18 -22 -19 -16 -17 -18 -20 -21 -22 -23 -22 -17 -14 -14 -12 -13 -13 -13 -10 -9 -9 -10 -9 -9 -8 -8 -8 -8 -9 -11 -12 -11 -10 -10 -10
-3 -3 -2 -2 -3 -4 -9 -14 -22 -18 -15 -16 -17 -20 -21 -22 -23 -25 -22 -15 -14 -14 -15 -15 -14 -13 -11 -10 -10 -9 -9 -9 -8 -8 -10 -10 -11 -11 -11 -10 -9 -10 -10
-4 -3 -2 -3 -4 -7 -13 -21 -18 -14 -14 -16 -18 -20 -21 -23 -24 -23 -19 -11 -15 -15 -14 -13 -12 -10 -11 -11 -10 -9 -8 -9 -9 -10 -11 -11 -10 -10 -9 -10 -10 -10 -10
-4 -3 -3 -4 -6 -10 -20 -18 -14 -13 -14 -16 -18 -19 -21 -24 -23 -22 -16 -17 -14 -13 -12 -11 -9 -11 -10 -10 -9 -8 -11 -12 -13 -12 -10 -10 -9 -10 -10 -10 -10 -10 -10
-4 -3 -4 -5 -8 -19 -19 -14 -13 -13 -14 -16 -18 -20 -24 -24 -22 -22 -21 -13 -11 -11 -11 -9 -9 -10 -10 -9 -9 -9 -10 -12 -14 -10 -10 -10 -11 -11 -10 -10 -11 -11 -11
-4 -3 -5 -7 -17 -20 -14 -13 -13 -13 -15 -18 -19 -24 -24 -23 -23 -22 -11 -10 -10 -10 -8 -10 -10 -10 -10 -9 -10 -10 -11 -13 -10 -10 -13 -13 -13 -12 -11 -11 -11 -11 -11
-4 -5 -7 -14 -21 -15 -13 -13 -12 -14 -16 -18 -23 -25 -25 -24 -23 -20 -10 -9 -10 -8 -11 -11 -12 -10 -9 -10 -10 -11 -11 -10 -11 -12 -13 -13 -12 -12 -11 -11 -10 -11 -11
-5 -6 -13 -21 -17 -14 -13 -12 -13 -15 -18 -23 -25 -26 -27 -24 -21 -18 -10 -9 -9 -10 -10 -11 -11 -10 -11 -11 -12 -11 -10 -11 -13 -12 -12 -12 -12 -11 -11 -11 -10 -10 -10
-6 -12 -21 -18 -15 -14 -13 -12 -13 -17 -22 -24 -24 -24 -22 -22 -18 -15 -10 -10 -10 -10 -10 -10 -10 -11 -13 -16 -14 -11 -11 -12 -12 -12 -12 -12 -11 -11 -11 -10 -10 -10 -10
-10 -21 -19 -17 -16 -14 -12 -13 -16 -20 -23 -24 -23 -20 -20 -18 -15 -11 -10 -11 -10 -10 -10 -11 -13 -15 -16 -14 -13 -13 -13 -12 -12 -12 -11 -11 -11 -11 -10 -10 -10 -10 -10
-22 -20 -18 -18 -16 -13 -12 -15 -18 -22 -23 -21 -20 -18 -15 -14 -11 -10 -10 -10 -10 -10 -11 -13 -15 -15 -15 -13 -13 -12 -12 -12 -12 -11 -11 -11 -10 -10 -10 -10 -9 -9 -10
-21 -19 -19 -17 -14 -12 -14 -16 -21 -23 -24 -24 -23 -20 -16 -14 -11 -10 -10 -10 -10 -11 -12 -14 -14 -15 -13 -12 -12 -12 -12 -11 -11 -11 -11 -10 -10 -10 -9 -9 -9 -9 -9
-20 -19 -18 -15 -12 -14 -17 -22 -24 -26 -26 -25 -22 -20 -19 -18 -12 -11 -10 -11 -13 -13 -14 -14 -14 -14 -13 -12 -12 -12 -11 -11 -10 -10 -10 -10 -10 -9 -9 -9 -9 -9 -9
-19 -18 -16 -12 -13 -17 -22 -23 -23 -23 -22 -23 -21 -19 -18 -17 -12 -11 -12 -13 -15 -15 -14 -14 -14 -13 -12 -11 -11 -11 -11 -10 -10 -10 -10 -9 -9 -9 -9 -9 -8 -8 -9
-18 -17 -13 -13 -17 -23 -24 -24 -24 -23 -22 -21 -20 -19 -17 -16 -12 -14 -15 -15 -14 -14 -14 -14 -14 -12 -11 -11 -11 -11 -10 -10 -10 -9 -9 -8 -8 -8 -9 -9 -8 -8 -8
-17 -12 -13 -17 -23 -25 -25 -24 -23 -22 -20 -19 -18 -17 -15 -12 -13 -15 -15 -14 -14 -14 -14 -14 -13 -11 -11 -11 -10 -10 -10 -9 -8 -8 -8 -8 -8 -8 -8 -8 -8 -8 -8
-12 -13 -18 -24 -25 -25 -24 -23 -21 -20 -19 -18 -16 -15 -13 -12 -14 -15 -15 -15 -14 -14 -14 -14 -12 -11 -10 -10 -10 -10 -9 -8 -8 -8 -8 -8 -8 -8 -8 -8 -8 -7 -7
-13 -19 -25 -26 -25 -24 -23 -22 -21 -19 -18 -16 -15 -15 -15 -15 -15 -15 -15 -15 -14 -14 -14 -13 -11 -10 -10 -9 -9 -9 -8 -8 -8 -8 -8 -8 -8 -8 -8 -8 -7 -7 -7
-20 -25 -25 -25 -25 -24 -22 -21 -19 -17 -16 -15 -15 -15 -15 -15 -14 -14 -15 -15 -14 -14 -14 -11 -10 -10 -9 -9 -8 -8 -8 -8 -8 -8 -8 -8 -8 -8 -8 -7 -7 -7 -7
-25 -25 -25 -25 -24 -22 -20 -18 -16 -15 -15 -15 -15 -15 -15 -15 -14 -15 -15 -15 -14 -14 -11 -10 -10 -9 -9 -8 -7 -7 -7 -7 -8 -8 -8 -7 -7 -7 -7 -7 -7 -7 -7
-25 -25 -25 -24 -22 -19 -17 -16 -15 -15 -15 -15 -16 -16 -15 -15 -14 -15 -15 -14 -14 -13 -11 -10 -9 -9 -8 -8 -7 -7 -7 -7 -7 -8 -7 -7 -7 -7 -7 -7 -7 -7 -7
-25 -25 -24 -21 -19 -17 -16 -15 -15 -15 -16 -16 -16 -16 -15 -14 -14 -15 -15 -14 -14 -11 -10 -9 -9 -8 -8 -7 -7 -7 -7 -7 -8 -8 -7 -7 -7 -7 -7 -7 -8 -8 -9

GFSGL_850_dewp_036.txt.gz
Dewpoint
2 -1 -3 -3 -3 -2 -1 -1 -1 -1 -4 -7 -11 -18 -21 -19 -18 -19 -22 -22 -24 -24 -23 -21 -19 -17 -15 -13 -11 -10 -11 -10 -9 -12 -11 -13 -12 -12 -13 -11 -9 -8 -9
0 -2 -3 -3 -2 -2 -1 -1 -1 -3 -5 -10 -17 -20 -19 -17 -19 -21 -22 -23 -24 -23 -21 -19 -18 -15 -13 -12 -11 -11 -10 -10 -8 -9 -10 -11 -11 -13 -10 -8 -9 -12 -13
-1 -3 -3 -2 -2 -1 -1 -1 -2 -4 -9 -16 -20 -18 -16 -18 -20 -21 -22 -23 -23 -21 -19 -17 -16 -14 -14 -14 -11 -10 -9 -9 -9 -9 -9 -10 -11 -9 -9 -11 -12 -13 -13
-3 -3 -3 -2 -2 -1 -1 -2 -4 -8 -15 -20 -17 -16 -16 -19 -20 -22 -23 -24 -23 -22 -20 -18 -17 -15 -14 -10 -9 -9 -9 -10 -10 -9 -9 -9 -9 -11 -11 -13 -12 -12 -11
-4 -3 -2 -2 -2 -2 -2 -4 -8 -14 -19 -17 -15 -15 -17 -19 -20 -22 -24 -23 -21 -20 -18 -16 -14 -13 -12 -9 -9 -9 -9 -9 -9 -8 -9 -9 -10 -11 -12 -12 -10 -10 -10
-4 -3 -2 -2 -2 -2 -4 -7 -14 -19 -16 -14 -14 -15 -17 -19 -21 -25 -25 -21 -20 -16 -15 -13 -13 -12 -11 -10 -10 -9 -9 -8 -8 -9 -10 -10 -11 -11 -11 -10 -10 -10 -10
-4 -3 -3 -2 -3 -4 -7 -13 -18 -16 -14 -13 -14 -16 -17 -20 -24 -26 -26 -23 -15 -14 -13 -13 -12 -11 -12 -11 -11 -9 -8 -9 -10 -10 -11 -11 -10 -10 -9 -10 -10 -10 -10
-4 -4 -3 -3 -4 -6 -11 -17 -17 -14 -13 -13 -14 -16 -18 -23 -26 -26 -25 -20 -14 -13 -12 -11 -10 -11 -11 -10 -9 -8 -10 -12 -13 -12 -10 -10 -10 -10 -10 -10 -10 -10 -10
-5 -4 -3 -4 -6 -10 -16 -17 -14 -13 -12 -12 -15 -17 -22 -25 -26 -26 -24 -13 -13 -12 -11 -9 -10 -10 -10 -9 -9 -9 -10 -13 -14 -11 -10 -10 -11 -12 -10 -10 -11 -11 -11
-5 -4 -5 -7 -10 -15 -18 -14 -13 -12 -12 -13 -15 -21 -25 -26 -25 -24 -15 -11 -10 -11 -9 -10 -11 -10 -9 -9 -10 -10 -11 -13 -10 -10 -12 -13 -13 -12 -12 -11 -11 -12 -12
-5 -5 -7 -9 -13 -18 -15 -14 -13 -12 -13 -15 -19 -24 -26 -26 -25 -22 -18 -9 -10 -9 -10 -11 -11 -10 -9 -10 -10 -11 -11 -10 -11 -12 -13 -13 -12 -12 -11 -11 -10 -11 -11
-6 -7 -8 -12 -19 -16 -15 -14 -13 -13 -14 -18 -23 -26 -27 -26 -23 -21 -15 -9 -10 -10 -10 -10 -11 -10 -10 -11 -12 -11 -10 -11 -13 -13 -12 -12 -11 -11 -10 -10 -10 -9 -9
-6 -7 -11 -19 -17 -16 -15 -13 -12 -13 -17 -23 -25 -26 -25 -24 -22 -20 -14 -10 -10 -10 -10 -10 -10 -11 -15 -16 -14 -11 -12 -12 -12 -12 -12 -11 -11 -10 -10 -10 -10 -9 -9
-7 -11 -20 -18 -17 -16 -14 -13 -13 -15 -22 -24 -24 -23 -23 -22 -21 -14 -10 -11 -10 -10 -10 -11 -14 -15 -16 -15 -13 -13 -12 -12 -11 -11 -11 -11 -10 -10 -10 -9 -9 -9 -9
-11 -20 -19 -18 -18 -16 -13 -13 -14 -21 -23 -23 -22 -20 -18 -18 -14 -10 -10 -10 -10 -11 -10 -14 -15 -15 -16 -13 -13 -12 -12 -11 -11 -11 -10 -10 -10 -10 -9 -9 -9 -9 -9
-21 -20 -19 -18 -17 -15 -12 -13 -20 -23 -24 -24 -23 -21 -20 -19 -13 -11 -10 -10 -10 -11 -13 -15 -15 -15 -14 -12 -12 -12 -11 -11 -10 -10 -10 -10 -10 -10 -9 -9 -9 -8 -8
-21 -19 -19 -18 -15 -12 -14 -21 -25 -26 -25 -24 -23 -22 -20 -20 -17 -11 -10 -11 -14 -15 -15 -14 -14 -14 -12 -12 -11 -11 -11 -10 -10 -10 -10 -9 -9 -9 -9 -9 -9 -8 -9
-20 -19 -19 -15 -12 -15 -22 -24 -24 -23 -24 -25 -24 -21 -19 -18 -16 -11 -12 -14 -16 -15 -14 -14 -14 -14 -12 -11 -11 -11 -10 -10 -9 -9 -9 -9 -9 -9 -9 -9 -8 -8 -8
-19 -18 -15 -12 -15 -22 -25 -24 -24 -24 -23 -21 -20 -19 -17 -17 -15 -14 -15 -15 -15 -15 -14 -14 -14 -12 -11 -11 -10 -10 -10 -9 -9 -9 -9 -9 -9 -9 -9 -8 -8 -8 -8
-18 -14 -12 -16 -23 -25 -25 -24 -24 -23 -21 -19 -18 -17 -16 -14 -14 -15 -15 -15 -15 -15 -14 -14 -13 -11 -11 -10 -10 -10 -9 -8 -9 -9 -9 -8 -8 -8 -8 -8 -8 -8 -8
-13 -12 -18 -24 -25 -25 -25 -24 -22 -20 -18 -17 -17 -16 -14 -13 -15 -15 -15 -15 -15 -15 -14 -14 -11 -11 -10 -10 -9 -9 -8 -8 -8 -8 -8 -8 -8 -8 -8 -8 -8 -7 -7
-13 -19 -25 -25 -25 -25 -24 -22 -20 -18 -17 -16 -16 -16 -16 -16 -16 -15 -15 -15 -15 -14 -14 -12 -11 -10 -10 -9 -9 -8 -8 -8 -8 -8 -8 -8 -8 -8 -8 -8 -8 -7 -7
-21 -25 -25 -25 -25 -24 -23 -20 -18 -17 -16 -16 -16 -16 -17 -16 -16 -15 -15 -15 -15 -15 -13 -11 -10 -10 -9 -8 -8 -8 -8 -8 -8 -8 -8 -8 -8 -8 -8 -8 -7 -7 -7
-25 -25 -25 -25 -24 -22 -20 -18 -17 -16 -15 -16 -17 -17 -17 -15 -14 -14 -15 -15 -15 -14 -11 -10 -9 -9 -8 -8 -7 -7 -7 -8 -8 -8 -8 -7 -7 -8 -8 -7 -7 -8 -7
-25 -25 -25 -24 -22 -20 -18 -17 -16 -15 -16 -17 -17 -17 -15 -14 -14 -15 -15 -14 -15 -12 -10 -9 -9 -8 -8 -8 -7 -8 -8 -8 -7 -8 -8 -7 -7 -7 -7 -7 -7 -9 -9
-24 -25 -24 -22 -20 -17 -16 -15 -15 -15 -16 -16 -16 -16 -14 -14 -14 -15 -14 -14 -14 -10 -9 -9 -8 -8 -8 -7 -8 -8 -8 -8 -8 -8 -8 -7 -7 -7 -8 -7 -7 -9 -9

GFSGL_850_dewp_039.txt.gz
Dewpoint
9 8 6 1 -3 -3 -2 -1 -1 -0 -1 -3 -6 -12 -17 -19 -17 -18 -20 -21 -22 -23 -23 -22 -22 -20 -19 -18 -17 -15 -14 -11 -9 -13 -10 -10 -9 -9 -9 -9 -8 -8 -9
7 4 -0 -3 -3 -2 -2 -1 -1 -1 -2 -5 -11 -16 -18 -17 -17 -19 -20 -21 -22 -23 -24 -23 -21 -20 -20 -19 -18 -16 -12 -10 -9 -9 -10 -9 -10 -9 -8 -8 -9 -10 -10
2 -1 -3 -3 -3 -2 -1 -1 -2 -3 -5 -9 -15 -18 -16 -16 -17 -19 -20 -21 -23 -24 -23 -21 -19 -18 -18 -17 -14 -10 -9 -9 -9 -9 -10 -12 -8 -8 -9 -11 -11 -11 -11
-2 -3 -3 -3 -2 -2 -1 -2 -3 -5 -8 -14 -17 -15 -15 -16 -17 -18 -20 -23 -24 -24 -22 -19 -18 -16 -15 -12 -9 -8 -8 -9 -9 -9 -9 -8 -9 -10 -12 -11 -11 -11 -10
-3 -4 -3 -3 -2 -2 -2 -3 -5 -8 -13 -16 -15 -14 -14 -15 -16 -19 -23 -25 -24 -23 -21 -19 -17 -14 -12 -9 -9 -9 -9 -9 -9 -8 -8 -9 -10 -11 -11 -11 -10 -10 -10
-3 -3 -3 -2 -2 -3 -3 -5 -9 -13 -16 -14 -13 -13 -14 -15 -17 -22 -26 -25 -23 -20 -19 -18 -15 -12 -11 -9 -9 -9 -9 -9 -8 -8 -10 -9 -11 -11 -11 -10 -9 -10 -10
-4 -3 -3 -3 -3 -3 -5 -8 -12 -15 -14 -13 -13 -13 -14 -16 -21 -25 -26 -24 -22 -21 -19 -14 -11 -11 -11 -11 -10 -9 -8 -8 -9 -10 -10 -11 -10 -11 -9 -10 -10 -10 -10
-4 -4 -3 -3 -4 -5 -8 -11 -15 -15 -13 -12 -12 -13 -15 -20 -24 -26 -26 -26 -23 -19 -15 -12 -11 -11 -10 -9 -9 -9 -9 -11 -10 -10 -10 -10 -10 -10 -10 -10 -10 -10 -10
-4 -4 -4 -4 -5 -7 -11 -14 -15 -14 -13 -12 -13 -14 -18 -24 -26 -26 -26 -24 -18 -13 -12 -11 -10 -10 -9 -9 -9 -9 -10 -10 -13 -10 -10 -10 -11 -12 -11 -11 -10 -11 -11
-5 -5 -5 -6 -7 -10 -13 -16 -14 -13 -13 -13 -14 -18 -24 -26 -26 -27 -24 -14 -10 -9 -9 -9 -10 -9 -9 -9 -9 -10 -10 -12 -10 -10 -12 -13 -12 -12 -11 -10 -10 -11 -12
-5 -5 -5 -7 -9 -10 -16 -15 -14 -13 -13 -13 -15 -22 -26 -26 -26 -25 -23 -10 -9 -9 -10 -10 -10 -10 -9 -10 -10 -10 -11 -10 -10 -12 -12 -12 -12 -11 -11 -10 -10 -10 -11
-6 -6 -6 -7 -11 -17 -16 -15 -14 -13 -13 -15 -21 -26 -27 -27 -26 -24 -19 -9 -9 -10 -10 -10 -10 -9 -10 -11 -12 -13 -10 -11 -12 -12 -11 -11 -11 -10 -10 -10 -10 -10 -9
-6 -6 -7 -11 -17 -17 -16 -15 -14 -13 -15 -22 -25 -27 -27 -27 -25 -22 -15 -10 -10 -10 -10 -10 -10 -11 -15 -16 -15 -12 -12 -12 -11 -11 -11 -11 -10 -10 -10 -10 -10 -10 -10
-6 -7 -11 -18 -18 -17 -16 -14 -13 -15 -21 -25 -26 -25 -25 -24 -22 -15 -10 -11 -11 -10 -11 -11 -14 -15 -16 -16 -13 -12 -12 -11 -11 -11 -10 -10 -10 -10 -10 -10 -9 -9 -9
-7 -12 -19 -19 -18 -17 -15 -13 -14 -21 -24 -25 -24 -24 -21 -19 -15 -10 -10 -10 -10 -10 -10 -13 -15 -15 -16 -13 -12 -12 -11 -11 -10 -10 -10 -10 -10 -10 -10 -10 -9 -9 -9
-13 -20 -19 -18 -18 -15 -13 -14 -21 -25 -25 -25 -25 -23 -22 -19 -13 -11 -10 -10 -10 -11 -13 -15 -15 -15 -14 -12 -11 -11 -11 -10 -10 -10 -10 -10 -10 -10 -10 -10 -9 -9 -9
-21 -20 -19 -18 -15 -12 -13 -21 -26 -25 -26 -26 -24 -22 -20 -19 -17 -11 -10 -11 -13 -16 -16 -15 -15 -15 -13 -11 -11 -11 -10 -10 -9 -9 -9 -9 -10 -10 -10 -9 -9 -9 -9
-20 -19 -18 -16 -12 -15 -23 -26 -25 -25 -25 -26 -24 -21 -20 -19 -18 -11 -12 -14 -16 -16 -16 -15 -15 -14 -11 -11 -11 -10 -10 -9 -9 -9 -10 -9 -9 -9 -9 -9 -9 -8 -9
-19 -18 -15 -12 -16 -24 -25 -25 -25 -25 -24 -22 -21 -20 -18 -17 -17 -16 -16 -15 -15 -16 -15 -15 -15 -12 -11 -10 -10 -10 -9 -9 -9 -9 -9 -9 -8 -9 -9 -9 -9 -8 -8
-18 -14 -11 -17 -25 -25 -25 -25 -25 -23 -22 -20 -18 -17 -17 -15 -16 -17 -16 -15 -15 -16 -15 -15 -12 -11 -10 -10 -10 -9 -9 -8 -8 -8 -8 -8 -8 -8 -9 -8 -8 -8 -8
-12 -12 -20 -25 -25 -25 -25 -24 -23 -21 -19 -18 -17 -17 -17 -14 -17 -16 -15 -15 -15 -15 -15 -14 -11 -10 -10 -9 -9 -8 -8 -8 -8 -8 -8 -8 -8 -8 -8 -8 -8 -8 -8
-14 -22 -25 -25 -25 -25 -24 -23 -21 -19 -17 -16 -16 -17 -18 -18 -16 -15 -15 -15 -15 -15 -14 -11 -10 -10 -9 -9 -8 -8 -8 -8 -8 -8 -8 -8 -8 -8 -8 -8 -8 -7 -8
-23 -25 -25 -25 -25 -25 -24 -21 -19 -17 -16 -16 -17 -17 -17 -16 -15 -14 -15 -15 -15 -15 -11 -10 -10 -9 -8 -8 -8 -8 -8 -8 -8 -7 -7 -8 -8 -7 -8 -8 -7 -8 -8
-25 -24 -25 -25 -25 -24 -21 -19 -17 -16 -16 -16 -16 -16 -17 -15 -14 -14 -15 -15 -15 -12 -10 -9 -9 -8 -8 -8 -8 -8 -8 -8 -8 -8 -7 -8 -7 -7 -8 -7 -8 -9 -9
-24 -25 -25 -26 -24 -20 -19 -17 -16 -15 -15 -16 -15 -16 -16 -14 -14 -14 -14 -14 -13 -10 -10 -9 -8 -8 -8 -8 -8 -7 -8 -8 -7 -8 -8 -8 -7 -7 -8 -7 -8 -8 -9
-25 -26 -26 -23 -20 -18 -17 -16 -15 -15 -15 -15 -15 -16 -14 -13 -13 -14 -14 -12 -10 -10 -9 -8 -8 -8 -8 -8 -8 -8 -8 -7 -8 -8 -8 -7 -7 -8 -8 -8 -8 -8 -9

GFSGL_850_dewp_042.txt.gz
Dewpoint
8 9 10 8 5 5 -0 -3 -2 -2 -1 -2 -4 -7 -12 -17 -17 -16 -17 -18 -19 -20 -21 -22 -22 -20 -16 -13 -12 -11 -11 -11 -11 -11 -10 -10 -10 -10 -10 -9 -9 -9 -10
9 9 8 6 5 -1 -4 -3 -2 -2 -2 -4 -7 -11 -16 -16 -16 -16 -17 -17 -19 -21 -22 -22 -20 -16 -19 -14 -12 -11 -11 -10 -10 -9 -9 -9 -10 -10 -9 -9 -10 -12 -12
8 7 7 2 -4 -4 -3 -2 -2 -2 -3 -5 -10 -15 -15 -15 -15 -15 -16 -17 -20 -22 -22 -22 -21 -19 -14 -12 -11 -10 -9 -9 -9 -8 -9 -10 -9 -8 -8 -10 -10 -11 -11
7 5 0 -4 -4 -3 -2 -2 -3 -4 -6 -9 -13 -15 -14 -14 -14 -15 -16 -19 -21 -21 -22 -22 -19 -15 -11 -10 -9 -9 -9 -9 -10 -9 -9 -9 -7 -8 -10 -11 -11 -11 -10
3 -2 -4 -4 -3 -2 -2 -3 -4 -6 -9 -12 -14 -14 -13 -13 -14 -16 -20 -19 -18 -18 -19 -16 -13 -12 -15 -10 -8 -9 -9 -9 -9 -9 -8 -7 -9 -10 -12 -11 -10 -10 -9
-3 -4 -4 -3 -3 -3 -3 -4 -6 -9 -12 -14 -14 -13 -13 -13 -15 -18 -22 -24 -17 -17 -14 -12 -11 -10 -10 -9 -9 -9 -8 -8 -8 -7 -8 -9 -11 -12 -11 -10 -9 -9 -9
-4 -4 -3 -3 -3 -4 -5 -7 -9 -11 -13 -14 -13 -12 -13 -14 -16 -21 -25 -27 -19 -15 -12 -11 -10 -10 -9 -9 -9 -9 -8 -8 -8 -9 -9 -11 -11 -10 -10 -10 -9 -10 -9
-4 -4 -3 -3 -4 -5 -7 -9 -11 -13 -14 -13 -13 -13 -14 -16 -21 -25 -27 -25 -15 -11 -10 -10 -9 -9 -10 -9 -9 -9 -9 -9 -10 -10 -11 -10 -10 -10 -9 -10 -10 -10 -10
-4 -4 -4 -4 -5 -6 -9 -11 -13 -14 -13 -13 -13 -13 -15 -21 -25 -27 -27 -20 -11 -10 -10 -10 -9 -10 -9 -9 -9 -9 -10 -11 -11 -11 -9 -9 -9 -9 -10 -10 -10 -10 -10
-4 -4 -5 -5 -6 -9 -11 -11 -15 -14 -13 -13 -13 -15 -20 -25 -26 -27 -26 -18 -10 -10 -10 -10 -10 -9 -9 -9 -8 -10 -10 -11 -11 -10 -9 -11 -11 -10 -10 -10 -10 -10 -10
-5 -5 -5 -7 -8 -8 -14 -15 -15 -14 -14 -13 -14 -20 -25 -26 -26 -26 -25 -14 -10 -10 -10 -11 -10 -10 -9 -9 -10 -10 -11 -10 -10 -10 -11 -10 -10 -10 -10 -10 -10 -10 -10
-5 -5 -6 -8 -11 -14 -16 -16 -15 -14 -13 -14 -19 -25 -24 -24 -23 -25 -23 -12 -9 -10 -10 -10 -10 -9 -10 -10 -11 -11 -10 -10 -10 -11 -11 -10 -10 -10 -10 -10 -10 -10 -10
-6 -6 -8 -10 -13 -17 -16 -16 -15 -13 -14 -20 -25 -25 -22 -22 -20 -19 -16 -10 -10 -10 -10 -10 -9 -10 -13 -16 -14 -12 -12 -11 -11 -11 -11 -10 -10 -10 -10 -10 -10 -10 -10
-7 -8 -9 -13 -17 -17 -17 -16 -13 -14 -21 -24 -19 -17 -18 -16 -14 -13 -10 -10 -10 -10 -10 -10 -11 -13 -13 -14 -12 -12 -11 -11 -11 -11 -11 -10 -10 -10 -10 -10 -10 -10 -10
-7 -9 -14 -18 -18 -18 -16 -13 -14 -21 -25 -25 -24 -24 -18 -14 -13 -10 -10 -10 -10 -10 -10 -11 -12 -13 -12 -12 -11 -11 -11 -11 -11 -11 -10 -10 -10 -10 -10 -10 -10 -10 -9
-8 -16 -19 -19 -18 -17 -13 -14 -22 -25 -25 -25 -26 -25 -23 -20 -15 -11 -10 -10 -10 -11 -12 -12 -13 -12 -12 -12 -12 -11 -11 -10 -10 -10 -10 -10 -10 -10 -10 -10 -9 -9 -9
-18 -20 -19 -19 -17 -12 -15 -23 -25 -24 -25 -27 -26 -24 -22 -19 -18 -12 -10 -11 -13 -16 -13 -12 -12 -12 -12 -12 -11 -11 -10 -10 -9 -9 -10 -9 -10 -10 -9 -9 -9 -9 -9
-20 -20 -19 -15 -12 -17 -24 -25 -25 -25 -27 -28 -26 -21 -20 -19 -19 -11 -12 -18 -16 -14 -13 -13 -13 -13 -12 -11 -10 -10 -10 -9 -9 -9 -9 -9 -9 -9 -9 -9 -9 -9 -9
-20 -18 -13 -12 -19 -24 -25 -25 -25 -26 -26 -23 -21 -19 -18 -19 -19 -19 -18 -16 -15 -13 -13 -13 -13 -12 -11 -10 -10 -10 -9 -9 -9 -9 -9 -9 -8 -9 -9 -9 -9 -8 -9
-17 -12 -13 -20 -25 -25 -25 -26 -26 -26 -23 -20 -17 -16 -17 -16 -16 -18 -16 -14 -13 -14 -15 -15 -12 -11 -10 -10 -9 -9 -9 -8 -8 -8 -8 -8 -8 -8 -8 -8 -8 -8 -8
-11 -14 -22 -25 -24 -24 -26 -26 -25 -21 -19 -18 -17 -17 -18 -17 -17 -15 -14 -14 -14 -15 -15 -13 -11 -10 -9 -9 -9 -9 -8 -8 -8 -8 -8 -8 -8 -8 -8 -8 -8 -8 -8
-17 -23 -25 -24 -24 -26 -26 -24 -21 -19 -18 -17 -17 -17 -17 -17 -15 -14 -14 -15 -15 -15 -13 -10 -10 -9 -9 -9 -8 -8 -8 -8 -8 -8 -8 -8 -8 -8 -7 -8 -8 -8 -8
-24 -24 -24 -24 -26 -27 -24 -20 -19 -18 -17 -16 -16 -16 -16 -16 -15 -14 -14 -14 -15 -13 -10 -10 -9 -9 -8 -8 -8 -8 -8 -8 -8 -8 -7 -7 -8 -8 -7 -8 -7 -8 -8
-24 -24 -25 -26 -27 -24 -21 -19 -18 -17 -16 -16 -16 -16 -16 -15 -14 -13 -14 -14 -12 -10 -10 -9 -9 -8 -8 -8 -8 -8 -8 -7 -7 -8 -7 -7 -7 -7 -8 -8 -7 -8 -9
-24 -25 -27 -27 -24 -21 -19 -18 -17 -16 -16 -15 -15 -15 -16 -15 -13 -13 -13 -11 -10 -10 -9 -9 -8 -8 -8 -8 -8 -8 -7 -7 -7 -7 -7 -8 -8 -8 -8 -7 -8 -8 -8
-25 -27 -27 -24 -21 -19 -18 -17 -16 -16 -15 -15 -15 -15 -16 -14 -13 -13 -12 -11 -10 -9 -9 -8 -8 -8 -8 -8 -8 -7 -7 -7 -7 -8 -8 -8 -8 -8 -8 -8 -8 -8 -8

GFSGL_850_dewp_045.txt.gz
Dewpoint
6 4 5 8 9 9 7 2 1 0 -3 -3 -3 -3 -5 -8 -12 -15 -15 -15 -16 -16 -17 -17 -18 -18 -16 -14 -13 -12 -12 -11 -11 -11 -10 -9 -9 -9 -9 -10 -9 -10 -9
3 4 6 9 8 6 0 2 -1 -3 -3 -3 -4 -5 -8 -11 -14 -15 -15 -15 -15 -16 -17 -17 -17 -14 -14 -14 -13 -11 -11 -11 -9 -9 -9 -9 -9 -9 -9 -8 -8 -8 -11
3 5 7 6 4 1 3 1 -3 -3 -3 -4 -5 -7 -11 -14 -14 -14 -14 -14 -16 -16 -16 -15 -15 -14 -13 -12 -11 -10 -10 -9 -9 -9 -9 -9 -9 -9 -8 -7 -10 -10 -11
3 4 4 2 3 3 -3 -3 -3 -3 -4 -5 -7 -10 -13 -14 -13 -13 -14 -15 -16 -16 -14 -14 -13 -13 -12 -11 -11 -9 -9 -9 -9 -8 -10 -9 -8 -7 -8 -10 -11 -11 -10
4 3 2 2 -2 -4 -4 -4 -4 -4 -5 -7 -9 -13 -14 -13 -13 -14 -15 -18 -20 -18 -16 -14 -12 -12 -12 -9 -8 -8 -8 -9 -9 -10 -8 -7 -7 -9 -10 -11 -10 -9 -11
3 2 -2 -4 -5 -4 -3 -3 -4 -6 -7 -9 -12 -14 -13 -13 -13 -14 -16 -21 -24 -22 -15 -15 -13 -12 -11 -10 -8 -8 -9 -8 -8 -8 -8 -8 -8 -10 -10 -10 -10 -9 -8
1 -2 -3 -5 -4 -4 -4 -5 -6 -7 -8 -12 -14 -13 -13 -13 -14 -16 -21 -25 -26 -18 -15 -12 -11 -10 -10 -9 -9 -9 -9 -9 -8 -9 -8 -9 -10 -10 -11 -10 -8 -9 -9
-3 -3 -5 -4 -3 -4 -5 -6 -7 -8 -12 -14 -13 -13 -13 -13 -15 -22 -25 -26 -24 -17 -12 -10 -10 -10 -10 -9 -9 -9 -10 -10 -9 -10 -10 -10 -11 -10 -8 -8 -9 -10 -11
-4 -4 -4 -4 -4 -5 -6 -8 -6 -8 -14 -14 -13 -13 -13 -17 -21 -25 -26 -26 -21 -14 -11 -10 -10 -9 -10 -9 -8 -9 -9 -10 -11 -10 -10 -9 -8 -8 -9 -9 -11 -10 -10
-3 -5 -5 -5 -5 -6 -8 -0 -9 -14 -14 -14 -14 -13 -15 -21 -24 -25 -26 -26 -18 -11 -11 -10 -10 -10 -9 -9 -8 -9 -10 -10 -11 -11 -10 -10 -10 -11 -9 -10 -10 -10 -10
-5 -5 -5 -6 -7 -3 -1 -13 -15 -15 -15 -14 -13 -16 -20 -20 -21 -22 -24 -23 -12 -10 -10 -10 -10 -9 -9 -9 -9 -10 -10 -10 -10 -10 -11 -11 -11 -10 -10 -10 -10 -10 -11
-5 -5 -5 -3 0 -7 -13 -16 -16 -16 -14 -13 -16 -21 -18 -15 -15 -16 -18 -12 -9 -9 -9 -10 -10 -9 -9 -10 -10 -10 -10 -10 -11 -11 -11 -11 -11 -11 -10 -10 -10 -10 -10
-4 -2 -2 -5 -10 -13 -17 -17 -16 -15 -13 -17 -21 -20 -18 -18 -16 -14 -12 -10 -9 -9 -10 -9 -9 -10 -10 -11 -12 -10 -10 -11 -11 -11 -11 -10 -10 -10 -10 -10 -10 -10 -10
-5 -7 -8 -9 -14 -17 -17 -17 -15 -13 -18 -23 -22 -21 -22 -19 -15 -13 -15 -12 -11 -10 -10 -10 -10 -11 -12 -12 -12 -12 -11 -11 -11 -11 -10 -10 -10 -10 -10 -10 -10 -10 -10
-6 -7 -9 -15 -18 -18 -18 -14 -13 -18 -24 -24 -25 -26 -24 -21 -17 -14 -11 -10 -10 -10 -10 -12 -13 -13 -13 -12 -12 -12 -11 -11 -10 -10 -10 -10 -10 -10 -10 -10 -10 -10 -10
-7 -10 -16 -19 -18 -17 -13 -13 -18 -24 -24 -25 -26 -26 -24 -22 -19 -17 -12 -10 -10 -10 -12 -13 -13 -12 -12 -12 -11 -11 -10 -10 -10 -10 -9 -9 -9 -9 -9 -9 -9 -9 -10
-11 -18 -19 -19 -17 -13 -14 -21 -24 -23 -23 -23 -23 -24 -22 -20 -19 -17 -10 -11 -16 -13 -13 -13 -13 -12 -12 -11 -11 -10 -10 -10 -9 -9 -9 -9 -9 -9 -9 -9 -9 -9 -9
-20 -20 -19 -16 -12 -15 -22 -24 -24 -25 -25 -24 -21 -19 -18 -20 -19 -11 -11 -16 -15 -14 -13 -13 -13 -13 -12 -11 -10 -10 -10 -9 -9 -9 -9 -9 -8 -9 -9 -8 -8 -9 -9
-20 -18 -15 -12 -17 -23 -24 -24 -25 -26 -26 -22 -20 -19 -18 -19 -18 -13 -14 -14 -14 -14 -13 -14 -14 -12 -11 -10 -10 -10 -9 -9 -9 -9 -9 -8 -8 -9 -8 -8 -8 -8 -9
-17 -13 -12 -20 -24 -24 -24 -25 -26 -26 -22 -20 -19 -17 -16 -17 -17 -17 -16 -15 -14 -14 -14 -14 -11 -10 -10 -10 -9 -9 -9 -9 -8 -8 -8 -8 -8 -8 -8 -8 -8 -8 -8
-11 -14 -21 -24 -24 -24 -26 -27 -26 -22 -21 -19 -18 -16 -14 -14 -16 -16 -15 -14 -14 -14 -14 -11 -10 -10 -9 -9 -9 -9 -9 -8 -8 -8 -8 -8 -8 -8 -8 -8 -8 -8 -8
-16 -22 -24 -24 -24 -26 -27 -26 -22 -20 -19 -17 -16 -17 -17 -17 -16 -15 -14 -14 -14 -12 -10 -10 -10 -9 -9 -9 -9 -9 -8 -8 -8 -8 -7 -7 -8 -8 -8 -8 -8 -8 -8
-22 -23 -23 -24 -26 -28 -26 -22 -20 -18 -17 -17 -16 -16 -16 -16 -16 -14 -14 -13 -11 -10 -10 -10 -9 -9 -8 -8 -8 -8 -8 -8 -7 -8 -7 -7 -8 -8 -8 -8 -8 -8 -8
-23 -23 -24 -26 -27 -26 -23 -20 -19 -17 -16 -16 -16 -16 -16 -16 -16 -14 -13 -12 -11 -10 -10 -9 -9 -8 -8 -8 -8 -8 -8 -8 -8 -8 -8 -8 -8 -8 -8 -8 -8 -8 -8
-23 -24 -26 -27 -26 -23 -21 -19 -17 -17 -16 -16 -16 -16 -16 -16 -15 -13 -13 -11 -11 -10 -9 -9 -8 -8 -8 -8 -8 -7 -7 -7 -7 -8 -8 -8 -8 -8 -8 -8 -8 -8 -8
-24 -26 -27 -26 -23 -21 -19 -18 -17 -16 -16 -16 -15 -15 -15 -16 -14 -13 -12 -11 -10 -10 -9 -9 -8 -8 -8 -8 -8 -7 -7 -7 -7 -8 -8 -8 -8 -8 -8 -8 -8 -8 -8

GFSGL_850_dewp_048.txt.gz
Dewpoint
9 9 9 10 9 8 10 9 8 5 2 -1 -1 -2 -3 -4 -5 -8 -13 -15 -15 -14 -15 -15 -16 -17 -17 -18 -18 -16 -15 -12 -11 -11 -11 -9 -9 -9 -10 -9 -11 -9 -8
8 9 9 8 7 9 9 7 3 0 -1 -2 -3 -3 -5 -5 -8 -12 -14 -14 -14 -14 -15 -15 -16 -17 -18 -18 -15 -14 -12 -11 -10 -9 -9 -9 -9 -10 -11 -10 -9 -10 -11
7 8 6 6 7 6 4 2 -0 -0 -2 -3 -4 -5 -5 -8 -11 -14 -14 -14 -14 -14 -15 -16 -17 -17 -17 -15 -14 -12 -12 -12 -10 -9 -9 -10 -11 -10 -9 -9 -11 -11 -10
5 4 3 4 3 3 -1 -1 0 -1 -1 -3 -6 -6 -7 -10 -13 -14 -13 -14 -14 -16 -18 -18 -17 -15 -13 -12 -11 -10 -9 -8 -8 -9 -9 -9 -8 -8 -9 -8 -9 -10 -11
2 1 0 -0 -0 -1 -1 -1 -0 -3 -5 -7 -5 -7 -10 -13 -13 -13 -13 -14 -16 -20 -22 -22 -17 -15 -13 -10 -9 -9 -8 -8 -8 -8 -8 -8 -8 -8 -8 -9 -9 -10 -12
-1 -3 -3 -3 -1 -1 -1 -3 -4 -5 -5 -5 -6 -10 -13 -14 -13 -13 -14 -16 -21 -23 -24 -21 -18 -15 -14 -10 -9 -8 -8 -8 -8 -9 -8 -8 -8 -9 -9 -9 -11 -11 -9
-5 -5 -3 -2 -3 -4 -4 -4 -5 -6 -5 -6 -9 -13 -14 -13 -13 -14 -17 -22 -23 -24 -23 -19 -15 -12 -11 -10 -10 -9 -9 -8 -9 -8 -9 -10 -9 -9 -9 -10 -9 -8 -9
-6 -6 -6 -5 -3 -5 -6 -6 -6 -5 -5 -10 -13 -14 -14 -14 -13 -17 -22 -24 -25 -26 -23 -17 -11 -10 -10 -9 -9 -8 -8 -9 -10 -9 -9 -9 -9 -9 -9 -8 -9 -9 -11
-7 -5 -3 -2 -4 -7 -6 -5 -5 -4 -8 -12 -14 -14 -14 -14 -16 -21 -23 -24 -26 -26 -21 -16 -13 -10 -10 -9 -8 -9 -9 -10 -10 -11 -10 -9 -9 -9 -9 -9 -10 -10 -11
-2 -2 -2 -2 -2 -3 -6 -2 -2 -6 -14 -15 -15 -13 -14 -18 -20 -21 -23 -24 -24 -23 -20 -15 -12 -9 -9 -9 -9 -8 -8 -10 -11 -10 -11 -12 -12 -11 -11 -10 -10 -10 -10
1 1 0 -3 -8 -4 1 -2 -8 -15 -16 -15 -13 -14 -19 -19 -19 -20 -19 -18 -16 -11 -9 -10 -10 -9 -9 -9 -9 -9 -10 -10 -10 -10 -12 -11 -11 -11 -10 -10 -10 -10 -11
-2 -7 -8 -6 1 1 -7 -15 -16 -16 -16 -13 -14 -20 -21 -19 -18 -19 -13 -11 -10 -9 -10 -10 -10 -9 -9 -9 -10 -10 -10 -9 -11 -11 -11 -11 -10 -10 -10 -10 -10 -10 -10
-5 -1 0 1 -7 -12 -16 -17 -17 -16 -13 -16 -22 -22 -22 -23 -23 -20 -20 -18 -18 -10 -11 -10 -9 -10 -10 -11 -13 -10 -10 -12 -11 -11 -11 -10 -10 -10 -10 -10 -10 -10 -10
-2 -3 -6 -9 -13 -17 -18 -17 -15 -13 -17 -23 -23 -24 -26 -27 -27 -24 -21 -18 -15 -12 -11 -10 -11 -14 -13 -13 -14 -13 -12 -11 -10 -10 -10 -10 -10 -10 -10 -10 -9 -9 -10
-5 -7 -8 -13 -18 -19 -18 -15 -13 -18 -23 -23 -24 -26 -28 -28 -23 -18 -13 -11 -10 -10 -10 -12 -15 -15 -15 -15 -13 -12 -11 -11 -10 -10 -9 -10 -10 -9 -9 -9 -9 -9 -10
-6 -8 -14 -18 -19 -18 -15 -12 -19 -22 -23 -24 -26 -29 -26 -20 -19 -16 -13 -10 -10 -10 -12 -14 -15 -15 -14 -13 -11 -11 -11 -10 -10 -9 -9 -9 -9 -9 -9 -9 -9 -9 -9
-7 -14 -19 -20 -18 -14 -13 -21 -23 -23 -24 -25 -26 -22 -18 -14 -16 -14 -10 -11 -16 -13 -15 -16 -15 -15 -13 -11 -10 -10 -10 -10 -9 -9 -9 -9 -9 -9 -9 -9 -9 -9 -9
-15 -20 -20 -17 -12 -15 -22 -23 -23 -25 -27 -27 -22 -19 -18 -18 -18 -16 -12 -15 -17 -16 -15 -15 -15 -13 -11 -10 -10 -10 -10 -9 -9 -9 -9 -9 -8 -8 -9 -8 -8 -9 -9
-20 -19 -15 -12 -17 -22 -23 -23 -25 -27 -26 -23 -21 -20 -19 -19 -18 -18 -17 -15 -15 -15 -15 -15 -12 -11 -10 -10 -10 -9 -9 -9 -9 -9 -8 -8 -8 -8 -8 -8 -8 -8 -9
-18 -13 -13 -19 -22 -23 -24 -25 -27 -27 -23 -21 -20 -18 -17 -16 -18 -18 -17 -15 -15 -14 -13 -11 -11 -10 -10 -9 -9 -9 -9 -8 -8 -8 -8 -8 -8 -8 -8 -8 -8 -8 -8
-12 -14 -20 -23 -23 -24 -26 -27 -26 -23 -21 -20 -18 -17 -15 -13 -16 -17 -16 -15 -14 -12 -11 -11 -10 -10 -9 -9 -9 -9 -8 -8 -8 -8 -8 -8 -8 -8 -8 -8 -8 -8 -8
-17 -21 -23 -23 -24 -26 -27 -26 -23 -21 -19 -18 -18 -17 -16 -16 -17 -17 -15 -14 -12 -11 -10 -10 -10 -9 -9 -9 -9 -8 -8 -8 -7 -8 -8 -8 -8 -8 -8 -8 -8 -8 -8
-21 -22 -22 -23 -25 -27 -25 -23 -21 -19 -18 -17 -16 -16 -16 -16 -17 -17 -14 -13 -12 -11 -10 -10 -9 -9 -9 -8 -8 -8 -8 -7 -7 -7 -8 -8 -8 -8 -8 -8 -8 -8 -8
-22 -22 -23 -25 -27 -26 -24 -22 -19 -18 -17 -16 -16 -16 -15 -16 -17 -15 -13 -12 -11 -11 -10 -9 -9 -9 -8 -8 -8 -8 -7 -7 -7 -7 -7 -8 -8 -8 -8 -8 -8 -8 -8
-22 -23 -24 -27 -26 -24 -22 -20 -18 -17 -16 -16 -16 -15 -16 -16 -16 -14 -13 -11 -11 -10 -10 -9 -9 -8 -8 -8 -8 -7 -7 -7 -7 -7 -7 -7 -7 -8 -8 -8 -8 -8 -8
-22 -24 -27 -27 -25 -22 -20 -18 -17 -16 -16 -16 -16 -15 -16 -16 -15 -14 -11 -11 -10 -10 -9 -9 -8 -8 -8 -8 -8 -7 -7 -7 -7 -7 -7 -7 -7 -8 -8 -8 -8 -8 -7

GFSGL_850_dewp_051.txt.gz
Dewpoint
7 8 8 9 10 10 9 8 9 9 8 6 4 3 -1 -4 -6 -4 -7 -11 -13 -14 -14 -14 -15 -15 -16 -17 -18 -17 -16 -14 -12 -14 -13 -13 -12 -13 -13 -12 -11 -12 -12
7 8 9 10 9 9 9 8 9 7 5 4 -1 -3 -3 -1 -4 -2 -1 -9 -14 -14 -14 -15 -15 -16 -17 -17 -17 -16 -15 -14 -13 -11 -11 -11 -11 -10 -11 -11 -11 -12 -12
6 7 9 8 9 8 8 8 6 5 2 -0 -1 -3 -6 -6 -6 -10 -13 -14 -14 -14 -14 -15 -17 -18 -18 -16 -15 -14 -13 -11 -10 -10 -9 -9 -9 -10 -10 -10 -10 -12 -12
7 7 7 7 7 7 7 5 5 1 -2 -4 -5 -5 -4 -6 -9 -10 -13 -14 -14 -15 -17 -20 -21 -19 -16 -14 -13 -11 -9 -9 -9 -8 -8 -9 -9 -9 -9 -9 -10 -11 -12
7 7 7 5 4 4 2 1 1 0 -4 -3 -1 1 1 -6 -12 -14 -14 -14 -15 -17 -21 -23 -22 -18 -16 -14 -10 -9 -9 -8 -8 -8 -8 -9 -9 -9 -9 -10 -9 -11 -12
6 5 4 2 2 0 -2 -2 -3 -3 -2 -1 -2 -2 -9 -13 -14 -14 -14 -15 -18 -21 -23 -24 -22 -20 -16 -12 -9 -9 -8 -8 -8 -8 -8 -8 -9 -10 -10 -9 -10 -10 -9
1 0 -2 -3 -4 -6 -4 -2 -4 -3 -3 -6 -7 -11 -13 -13 -14 -14 -14 -18 -22 -23 -25 -26 -24 -18 -13 -11 -11 -9 -9 -8 -8 -8 -9 -10 -9 -10 -10 -10 -9 -8 -9
-5 -6 -7 -7 -4 -1 -3 -3 -2 -2 -0 -6 -12 -8 -13 -14 -14 -14 -19 -22 -23 -24 -26 -26 -20 -17 -16 -11 -9 -8 -8 -9 -10 -10 -9 -9 -9 -9 -9 -9 -9 -9 -10
-8 -7 -3 -1 -5 -4 -4 -4 -7 -6 -5 -6 -12 -14 -14 -14 -15 -20 -21 -22 -24 -26 -26 -21 -17 -16 -12 -8 -8 -9 -8 -9 -10 -11 -10 -9 -9 -10 -10 -10 -10 -10 -11
-4 -1 -4 -2 -3 -5 -5 -1 -1 -6 -8 -12 -15 -14 -14 -17 -20 -20 -21 -24 -23 -23 -24 -20 -16 -11 -9 -9 -8 -8 -9 -10 -11 -10 -11 -11 -12 -11 -11 -10 -10 -10 -11
-2 -0 -0 0 0 0 -0 -3 -4 -10 -15 -15 -14 -14 -19 -20 -20 -20 -20 -13 -12 -11 -15 -18 -17 -13 -9 -9 -9 -9 -10 -9 -9 -11 -12 -12 -11 -11 -10 -10 -10 -10 -10
-0 -0 -0 -1 -1 -3 -3 -11 -16 -16 -16 -13 -15 -20 -21 -21 -22 -24 -22 -19 -15 -16 -17 -14 -11 -9 -9 -10 -10 -11 -10 -10 -12 -12 -11 -11 -10 -10 -10 -10 -10 -10 -10
-2 -8 -6 -1 -2 -13 -16 -17 -17 -15 -13 -17 -22 -23 -23 -25 -27 -28 -26 -23 -21 -17 -13 -10 -9 -10 -14 -17 -17 -14 -13 -12 -11 -11 -10 -10 -10 -10 -10 -10 -10 -10 -10
-1 -0 -2 -10 -13 -17 -18 -17 -14 -14 -20 -23 -23 -24 -26 -29 -28 -24 -23 -20 -16 -12 -10 -10 -12 -16 -17 -16 -14 -12 -11 -11 -10 -10 -10 -9 -10 -10 -10 -9 -9 -9 -9
-2 -8 -10 -13 -18 -18 -17 -13 -15 -21 -22 -23 -24 -27 -29 -27 -23 -19 -13 -11 -10 -10 -10 -15 -17 -18 -17 -13 -12 -11 -11 -10 -10 -10 -9 -9 -9 -9 -9 -9 -9 -9 -10
-8 -10 -15 -18 -18 -16 -13 -17 -21 -22 -23 -25 -27 -28 -22 -17 -14 -15 -10 -10 -10 -13 -16 -17 -17 -16 -13 -11 -11 -11 -10 -10 -10 -9 -9 -9 -9 -9 -9 -9 -9 -9 -9
-9 -16 -19 -18 -15 -13 -17 -22 -22 -23 -24 -26 -26 -22 -20 -15 -16 -12 -12 -13 -17 -17 -17 -16 -15 -12 -11 -10 -10 -10 -10 -10 -9 -9 -9 -9 -9 -9 -9 -9 -9 -9 -9
-18 -19 -18 -14 -13 -18 -21 -22 -23 -25 -27 -27 -24 -22 -20 -19 -16 -17 -18 -18 -18 -17 -16 -14 -12 -11 -10 -10 -10 -9 -9 -9 -9 -9 -8 -8 -9 -9 -9 -9 -9 -9 -9
-20 -18 -13 -13 -19 -22 -22 -23 -25 -27 -26 -24 -23 -21 -19 -18 -17 -17 -18 -17 -15 -15 -14 -11 -11 -10 -10 -10 -9 -9 -9 -9 -8 -8 -8 -8 -8 -9 -9 -9 -8 -8 -8
-17 -12 -15 -20 -22 -22 -23 -25 -27 -26 -24 -22 -20 -18 -18 -17 -18 -18 -18 -16 -15 -13 -11 -11 -10 -10 -9 -9 -9 -9 -9 -9 -8 -8 -8 -8 -8 -8 -8 -8 -8 -8 -9
-12 -16 -20 -22 -22 -23 -25 -26 -26 -24 -22 -20 -19 -18 -16 -14 -16 -17 -18 -15 -14 -12 -11 -11 -10 -9 -9 -9 -9 -9 -9 -8 -8 -8 -8 -8 -8 -8 -8 -8 -8 -8 -8
-17 -20 -22 -22 -23 -25 -27 -26 -24 -22 -20 -18 -18 -17 -17 -16 -16 -17 -16 -14 -13 -11 -11 -10 -10 -9 -9 -9 -9 -9 -8 -8 -7 -7 -7 -8 -8 -8 -8 -8 -8 -8 -8
-20 -21 -22 -23 -24 -27 -27 -24 -22 -20 -18 -17 -17 -17 -16 -16 -16 -17 -15 -14 -12 -11 -10 -9 -9 -9 -9 -8 -8 -8 -8 -8 -7 -7 -8 -8 -8 -8 -8 -8 -8 -8 -8
-21 -21 -22 -24 -27 -27 -24 -22 -20 -18 -18 -17 -17 -16 -16 -16 -17 -16 -14 -12 -11 -10 -9 -9 -9 -8 -8 -8 -8 -8 -7 -7 -7 -7 -8 -8 -8 -8 -8 -8 -8 -8 -7
-21 -22 -24 -27 -27 -25 -22 -20 -19 -18 -17 -17 -16 -16 -16 -16 -16 -15 -13 -11 -10 -10 -9 -9 -8 -8 -8 -8 -8 -8 -7 -7 -7 -7 -7 -8 -8 -8 -8 -8 -8 -8 -7
-21 -23 -27 -27 -26 -23 -20 -19 -18 -18 -17 -17 -17 -17 -17 -17 -16 -14 -11 -10 -10 -9 -9 -9 -8 -8 -8 -8 -9 -8 -7 -7 -7 -7 -7 -8 -8 -8 -8 -8 -8 -8 -8

GFSGL_850_dewp_054.txt.gz
Dewpoint
-2 -2 -3 -1 7 8 7 7 8 9 10 9 9 8 4 1 -0 -3 -3 -7 -11 -12 -9 -7 -13 -15 -15 -15 -17 -17 -17 -16 -14 -15 -15 -14 -14 -15 -16 -16 -16 -15 -16
-1 -1 -1 8 10 9 7 8 10 10 9 8 7 3 0 -1 0 -4 -7 -5 -0 -6 -13 -14 -14 -15 -16 -17 -18 -17 -17 -16 -15 -13 -11 -11 -10 -11 -12 -12 -14 -16 -16
2 2 6 9 10 9 8 9 9 8 8 5 2 1 0 -3 -6 -3 -4 -11 -13 -9 -6 -13 -15 -17 -19 -19 -17 -17 -17 -14 -11 -10 -9 -9 -9 -11 -11 -13 -12 -14 -14
6 6 8 8 9 9 8 8 7 6 4 1 -1 -3 -3 -7 -9 -7 -4 -2 -2 -7 -14 -17 -19 -21 -21 -18 -18 -17 -13 -10 -10 -10 -9 -8 -9 -10 -11 -10 -11 -13 -13
7 8 8 8 8 6 6 5 4 1 -0 -1 -1 -6 -10 -5 1 2 2 -3 -9 -15 -19 -22 -22 -22 -21 -19 -15 -11 -10 -10 -9 -8 -8 -9 -9 -10 -11 -12 -11 -11 -11
3 3 4 4 3 2 2 1 -0 -2 -4 -4 -2 -0 0 0 -1 -7 -11 -14 -16 -20 -22 -23 -24 -25 -24 -20 -16 -13 -9 -8 -8 -8 -8 -8 -9 -10 -12 -10 -9 -9 -9
-0 -1 -1 -0 1 0 -1 -2 -3 -2 -1 -0 -1 -2 -6 -5 -5 -12 -14 -16 -21 -22 -23 -25 -26 -25 -22 -20 -18 -14 -9 -9 -8 -8 -8 -10 -10 -12 -10 -9 -9 -9 -9
-2 -2 -3 -1 -2 -3 -3 -1 -1 -1 -2 -3 -2 -1 -1 -11 -14 -14 -17 -21 -21 -23 -25 -25 -23 -23 -22 -19 -10 -8 -9 -9 -9 -10 -10 -10 -9 -9 -9 -9 -9 -10 -10
-4 -6 -6 -4 -4 -2 -0 -0 -1 -2 -1 -1 -1 -7 -14 -14 -15 -18 -20 -21 -23 -24 -24 -23 -22 -22 -19 -9 -8 -8 -8 -9 -10 -11 -11 -9 -9 -10 -11 -10 -11 -10 -10
-7 -6 -3 -0 -0 0 -0 -1 -0 -0 -0 -3 -13 -14 -14 -16 -19 -19 -20 -22 -22 -25 -26 -23 -21 -18 -10 -8 -8 -8 -9 -11 -11 -10 -11 -11 -12 -12 -11 -10 -10 -10 -10
-1 0 -0 -0 -0 -0 -1 -0 -0 -3 -14 -14 -14 -15 -18 -19 -19 -20 -22 -22 -21 -22 -23 -21 -19 -14 -9 -8 -9 -10 -11 -9 -9 -11 -12 -12 -11 -11 -11 -10 -10 -10 -10
-1 -0 -0 -1 -1 -1 -0 -6 -14 -14 -14 -14 -16 -20 -21 -22 -23 -26 -27 -26 -23 -20 -18 -15 -11 -9 -10 -13 -16 -16 -10 -10 -12 -11 -11 -11 -10 -10 -10 -10 -10 -10 -9
-1 -1 -0 -0 -2 -10 -14 -15 -16 -14 -14 -17 -21 -22 -23 -25 -28 -28 -24 -21 -19 -14 -12 -10 -11 -13 -17 -18 -17 -14 -12 -11 -11 -11 -10 -10 -10 -10 -10 -10 -10 -10 -10
-0 -0 -1 -10 -14 -15 -16 -16 -14 -14 -20 -22 -22 -24 -26 -27 -25 -22 -20 -18 -14 -12 -12 -15 -16 -17 -18 -16 -12 -11 -11 -11 -10 -10 -10 -9 -9 -9 -9 -9 -10 -9 -9
-1 -7 -13 -15 -16 -17 -16 -14 -16 -20 -22 -22 -24 -26 -25 -23 -18 -12 -12 -11 -10 -12 -13 -18 -19 -18 -15 -12 -11 -11 -11 -10 -10 -10 -9 -9 -9 -9 -9 -10 -10 -10 -10
-9 -12 -15 -17 -18 -16 -13 -16 -20 -22 -23 -24 -26 -24 -18 -16 -13 -17 -18 -16 -18 -16 -17 -17 -17 -14 -11 -11 -11 -11 -10 -10 -10 -9 -9 -8 -9 -9 -9 -10 -9 -9 -9
-9 -13 -18 -19 -16 -13 -19 -22 -22 -23 -24 -25 -24 -22 -21 -20 -19 -19 -19 -19 -19 -17 -17 -16 -13 -11 -11 -10 -10 -10 -10 -10 -9 -9 -8 -8 -8 -9 -9 -9 -9 -9 -9
-14 -19 -18 -14 -14 -21 -22 -22 -23 -24 -26 -26 -24 -23 -21 -19 -18 -17 -17 -19 -19 -17 -15 -12 -11 -11 -10 -10 -10 -9 -9 -9 -9 -8 -8 -8 -8 -8 -9 -9 -9 -9 -9
-19 -17 -13 -16 -21 -22 -22 -23 -25 -26 -26 -25 -23 -20 -20 -19 -17 -16 -17 -18 -17 -16 -13 -11 -11 -10 -10 -10 -9 -9 -9 -9 -8 -8 -8 -8 -8 -8 -8 -8 -8 -8 -8
-16 -13 -17 -21 -22 -22 -23 -24 -26 -26 -24 -22 -21 -20 -19 -19 -18 -18 -18 -18 -15 -14 -12 -11 -11 -10 -9 -9 -9 -9 -9 -9 -8 -8 -8 -8 -8 -8 -8 -8 -8 -8 -8
-13 -17 -21 -22 -22 -23 -24 -27 -26 -24 -22 -21 -19 -18 -16 -15 -17 -17 -18 -17 -15 -12 -11 -11 -10 -10 -9 -9 -9 -9 -9 -8 -8 -7 -8 -9 -8 -8 -8 -8 -8 -8 -8
-17 -20 -21 -21 -22 -24 -28 -26 -24 -22 -21 -19 -19 -18 -17 -17 -17 -18 -18 -15 -13 -11 -10 -10 -10 -9 -9 -9 -9 -9 -9 -8 -8 -7 -8 -8 -8 -8 -8 -8 -8 -8 -8
-20 -21 -21 -22 -24 -28 -26 -24 -22 -20 -19 -18 -18 -17 -17 -17 -17 -18 -16 -14 -11 -11 -10 -9 -9 -9 -9 -8 -8 -8 -8 -8 -7 -7 -7 -8 -8 -8 -8 -8 -8 -8 -8
-21 -21 -21 -24 -28 -27 -25 -22 -20 -19 -18 -18 -18 -17 -17 -18 -18 -16 -15 -12 -11 -10 -9 -9 -9 -9 -8 -8 -8 -8 -7 -7 -7 -8 -7 -7 -7 -8 -8 -8 -8 -8 -8
-21 -21 -23 -28 -27 -26 -23 -21 -20 -19 -18 -18 -18 -18 -17 -18 -17 -16 -13 -11 -10 -10 -9 -9 -8 -8 -8 -8 -8 -8 -7 -7 -8 -8 -8 -8 -8 -8 -7 -7 -8 -8 -8
-21 -21 -27 -28 -27 -23 -22 -20 -19 -19 -19 -18 -18 -18 -18 -18 -17 -15 -11 -11 -10 -9 -9 -9 -8 -8 -8 -8 -8 -8 -8 -8 -8 -8 -8 -8 -8 -8 -8 -8 -7 -8 -8

GFSGL_850_dewp_057.txt.gz
Dewpoint
-5 -5 -6 -6 -2 -3 -2 1 8 6 6 7 8 9 9 8 6 4 2 -1 -3 -7 -6 -2 -6 -3 -11 -14 -15 -15 -16 -16 -14 -16 -17 -18 -17 -18 -21 -18 -18 -17 -20
-5 -6 -1 -1 -1 -1 1 6 9 9 8 9 9 9 7 4 2 0 -3 -4 -3 -1 -1 -3 -6 -9 -9 -10 -15 -17 -18 -16 -15 -15 -14 -14 -13 -14 -13 -13 -14 -17 -19
-3 0 3 3 3 4 8 8 9 8 9 9 8 6 1 1 -3 -5 -3 -2 -1 -2 -6 -1 -1 -9 -12 -17 -19 -19 -18 -17 -16 -13 -11 -11 -10 -10 -11 -12 -13 -16 -17
4 5 6 6 7 8 8 8 7 8 8 7 5 3 0 -3 -3 -3 -2 -5 -6 -1 -2 -2 -5 -10 -17 -21 -21 -19 -18 -17 -12 -11 -10 -8 -8 -10 -10 -11 -11 -14 -13
5 6 6 7 6 6 6 6 6 6 5 4 1 -4 -3 -4 -5 -7 -5 0 -0 -3 -12 -15 -19 -21 -22 -22 -21 -19 -12 -9 -11 -9 -7 -8 -9 -10 -10 -11 -12 -11 -11
4 4 4 4 4 4 4 4 3 2 -0 -3 -3 -2 -2 -2 -0 0 -0 -2 -6 -16 -19 -20 -22 -23 -24 -24 -22 -18 -14 -9 -8 -8 -8 -8 -9 -9 -11 -11 -10 -9 -9
3 2 0 -0 0 -1 -1 -2 -3 -3 -3 -2 -1 -2 -0 0 -0 -0 -2 -6 -13 -16 -20 -21 -24 -25 -23 -22 -21 -19 -14 -11 -8 -8 -8 -9 -10 -11 -10 -9 -9 -9 -9
-0 -1 -2 -2 -1 -2 -3 -2 -2 -1 -1 -1 0 0 -0 -1 -3 -10 -14 -17 -19 -21 -22 -23 -21 -21 -23 -22 -17 -10 -10 -9 -9 -10 -10 -10 -9 -9 -9 -9 -9 -10 -10
1 1 1 -0 -1 -2 -1 -1 -0 -0 -0 0 -0 -0 -3 -12 -14 -16 -18 -19 -20 -21 -20 -19 -20 -22 -22 -18 -9 -8 -8 -9 -11 -11 -12 -11 -11 -10 -11 -11 -11 -10 -10
-2 -3 -3 -3 -1 -0 0 0 -0 -1 -0 -0 -2 -13 -14 -15 -17 -19 -16 -16 -18 -19 -23 -23 -21 -19 -16 -8 -8 -9 -10 -13 -12 -11 -13 -12 -12 -12 -11 -11 -10 -10 -10
-5 -4 -2 -1 -1 -0 -0 -1 -1 -1 -4 -14 -14 -15 -16 -18 -18 -17 -17 -21 -23 -26 -24 -23 -20 -15 -9 -9 -9 -11 -15 -10 -10 -12 -12 -12 -11 -11 -11 -10 -10 -10 -9
-2 -1 -1 -1 -1 -1 -1 -3 -12 -15 -15 -14 -15 -18 -20 -20 -21 -24 -26 -27 -24 -22 -21 -18 -15 -11 -12 -17 -19 -18 -12 -11 -12 -11 -11 -11 -11 -10 -10 -10 -10 -9 -9
-1 -1 -1 -1 -2 -9 -15 -16 -16 -14 -14 -17 -21 -22 -22 -24 -26 -27 -24 -21 -20 -16 -14 -12 -14 -18 -19 -19 -17 -13 -12 -11 -11 -11 -10 -10 -10 -9 -10 -10 -10 -10 -10
-1 -1 -2 -11 -15 -16 -16 -15 -14 -16 -20 -22 -22 -23 -24 -26 -24 -20 -20 -20 -17 -14 -15 -17 -18 -19 -18 -15 -12 -11 -11 -10 -10 -10 -10 -9 -9 -9 -9 -9 -9 -10 -10
-3 -10 -14 -15 -16 -17 -16 -14 -16 -20 -21 -22 -23 -24 -23 -22 -21 -21 -14 -13 -12 -18 -16 -19 -19 -18 -13 -11 -11 -11 -10 -10 -10 -10 -9 -9 -9 -8 -9 -9 -9 -9 -9
-10 -12 -16 -17 -17 -15 -14 -17 -21 -22 -22 -24 -25 -26 -24 -21 -17 -18 -17 -16 -19 -20 -20 -18 -17 -13 -11 -11 -10 -10 -10 -10 -10 -9 -9 -8 -8 -8 -8 -9 -8 -9 -9
-10 -15 -18 -18 -15 -14 -19 -21 -22 -22 -23 -25 -25 -23 -22 -20 -19 -19 -20 -19 -19 -20 -18 -16 -12 -11 -11 -10 -10 -10 -10 -9 -9 -9 -8 -8 -8 -8 -8 -8 -9 -9 -9
-13 -18 -18 -15 -13 -18 -21 -22 -23 -24 -25 -25 -24 -23 -21 -20 -18 -18 -19 -19 -20 -19 -17 -13 -11 -11 -10 -10 -10 -10 -10 -9 -9 -9 -8 -8 -8 -8 -8 -9 -9 -9 -9
-17 -19 -15 -13 -19 -21 -22 -23 -24 -25 -26 -25 -23 -22 -21 -19 -18 -17 -18 -18 -19 -17 -15 -12 -11 -11 -10 -10 -9 -9 -9 -9 -8 -8 -8 -8 -8 -8 -8 -9 -9 -9 -9
-19 -15 -14 -19 -21 -22 -22 -23 -26 -26 -24 -23 -21 -20 -20 -19 -18 -18 -18 -19 -17 -15 -12 -11 -11 -10 -10 -9 -9 -9 -9 -9 -8 -8 -8 -8 -8 -8 -8 -8 -8 -8 -9
-15 -13 -19 -21 -21 -22 -23 -27 -26 -25 -23 -21 -20 -19 -18 -18 -18 -18 -19 -18 -15 -13 -11 -10 -10 -10 -9 -9 -9 -9 -9 -9 -8 -8 -8 -8 -8 -8 -8 -8 -8 -9 -8
-13 -19 -21 -21 -22 -23 -27 -27 -25 -23 -21 -20 -19 -18 -18 -17 -18 -18 -19 -16 -14 -11 -10 -10 -9 -9 -9 -9 -9 -9 -9 -8 -8 -8 -8 -8 -8 -8 -8 -8 -8 -8 -8
-18 -21 -21 -21 -23 -27 -27 -26 -23 -21 -20 -20 -19 -19 -18 -19 -19 -19 -17 -16 -12 -11 -10 -9 -9 -9 -8 -8 -8 -8 -8 -8 -8 -8 -7 -8 -8 -8 -8 -8 -8 -8 -8
-20 -21 -21 -22 -27 -28 -26 -23 -21 -20 -20 -19 -19 -19 -19 -19 -18 -18 -17 -13 -11 -10 -9 -9 -9 -8 -8 -8 -8 -8 -8 -8 -8 -9 -7 -8 -8 -8 -8 -8 -8 -8 -8
-21 -21 -21 -24 -28 -27 -25 -23 -21 -20 -20 -19 -19 -19 -19 -19 -18 -18 -15 -12 -11 -10 -9 -9 -8 -8 -8 -8 -8 -8 -8 -8 -8 -8 -8 -8 -9 -8 -7 -8 -8 -8 -8
-21 -21 -22 -28 -28 -27 -24 -22 -20 -20 -19 -19 -19 -18 -19 -19 -19 -18 -13 -11 -11 -10 -9 -9 -8 -8 -8 -8 -8 -8 -8 -8 -8 -8 -8 -9 -8 -7 -7 -7 -7 -7 -8

GFSGL_850_dewp_060.txt.gz
Dewpoint
-3 -4 -5 -5 -5 -5 -5 -3 -2 -2 3 8 9 9 9 9 9 8 7 3 -2 -4 -4 -3 -7 -7 -6 -2 -3 -8 -10 -12 -16 -17 -18 -18 -19 -19 -20 -20 -19 -17 -18
-3 -4 -4 -4 -3 1 1 1 3 4 6 10 9 9 8 8 8 5 2 -3 -4 -2 -4 -5 -3 0 -1 -3 -3 -7 -16 -17 -17 -17 -17 -17 -16 -18 -18 -17 -15 -15 -15
-1 -2 -2 -0 4 5 4 5 6 7 8 8 8 8 7 6 4 0 -1 -1 -3 -4 -3 -0 -1 -1 -1 -3 -5 -10 -18 -18 -17 -16 -15 -14 -14 -15 -12 -12 -12 -13 -17
1 0 2 5 6 6 7 7 6 6 7 7 7 6 4 1 -0 -2 -5 -5 -2 -1 -1 -0 0 -0 -2 -8 -19 -19 -19 -19 -18 -16 -13 -13 -10 -10 -10 -11 -11 -14 -15
2 2 5 5 5 5 6 5 5 4 5 5 5 2 -2 -3 -2 -1 -1 -2 -3 0 0 -0 -2 -13 -20 -22 -22 -21 -21 -23 -20 -16 -11 -9 -9 -9 -9 -10 -12 -12 -11
3 4 4 4 4 3 4 4 3 1 -0 -0 -0 0 -0 -2 -2 -3 -4 -0 0 0 -2 -16 -21 -22 -22 -23 -23 -22 -23 -21 -16 -10 -8 -8 -9 -9 -10 -12 -10 -10 -9
1 2 2 2 2 2 1 -0 -0 -0 0 -0 -3 -4 -2 -1 -1 -0 -0 0 -1 -14 -18 -20 -21 -22 -23 -24 -25 -26 -24 -17 -10 -8 -8 -9 -10 -12 -11 -10 -9 -9 -10
-2 -1 -1 -0 0 -1 -2 -3 -5 -6 -4 -3 -1 -1 -0 -0 -0 0 -6 -15 -18 -19 -20 -21 -22 -24 -25 -25 -24 -15 -10 -11 -10 -10 -11 -13 -12 -9 -9 -9 -9 -11 -11
-2 -2 -2 -0 -0 -0 -1 -2 -1 -1 -1 -1 -0 -0 -0 -1 -9 -15 -17 -18 -18 -19 -21 -24 -25 -25 -24 -22 -9 -8 -9 -11 -14 -16 -15 -13 -12 -12 -11 -11 -11 -10 -10
-1 -1 -1 -1 -1 -1 -1 -1 -1 -1 -0 -1 -1 -4 -14 -15 -16 -18 -20 -19 -21 -24 -26 -24 -22 -20 -13 -8 -8 -9 -13 -17 -16 -15 -13 -12 -12 -11 -11 -10 -10 -9 -9
-4 -3 -2 -1 -1 -1 -1 -1 -1 -1 -1 -7 -14 -15 -16 -17 -19 -19 -19 -23 -26 -26 -22 -20 -19 -17 -10 -11 -11 -14 -17 -10 -10 -12 -11 -11 -11 -11 -10 -10 -10 -9 -9
-2 -2 -1 -1 -1 -1 -1 -2 -8 -15 -14 -14 -16 -18 -19 -20 -20 -23 -25 -25 -21 -22 -20 -18 -19 -21 -20 -20 -19 -17 -10 -11 -11 -11 -11 -11 -10 -10 -10 -9 -9 -9 -9
-1 -1 -1 -1 -3 -11 -15 -15 -15 -14 -15 -18 -20 -21 -22 -23 -24 -24 -22 -21 -21 -19 -19 -21 -21 -20 -20 -19 -15 -12 -11 -11 -11 -11 -10 -10 -9 -9 -9 -9 -9 -9 -10
-1 -1 -6 -14 -16 -16 -15 -14 -14 -17 -20 -21 -22 -23 -24 -23 -22 -21 -20 -20 -21 -20 -21 -20 -20 -19 -18 -14 -11 -11 -11 -10 -10 -10 -10 -9 -9 -9 -9 -9 -9 -9 -9
-5 -13 -15 -16 -16 -16 -14 -15 -18 -21 -21 -22 -23 -24 -23 -23 -22 -22 -18 -18 -16 -19 -18 -20 -19 -17 -13 -11 -11 -11 -10 -10 -10 -10 -9 -9 -9 -9 -9 -9 -9 -9 -9
-12 -15 -17 -17 -16 -14 -15 -19 -21 -22 -22 -23 -24 -25 -26 -23 -21 -20 -18 -18 -19 -20 -20 -19 -18 -13 -11 -11 -11 -10 -10 -10 -9 -9 -9 -8 -8 -8 -9 -9 -9 -9 -9
-13 -17 -18 -17 -14 -14 -20 -21 -22 -22 -23 -24 -25 -24 -23 -21 -21 -20 -19 -19 -19 -20 -20 -18 -14 -11 -11 -11 -10 -10 -10 -9 -9 -9 -8 -8 -8 -8 -8 -9 -9 -9 -9
-15 -18 -18 -14 -14 -20 -21 -22 -22 -23 -25 -26 -24 -23 -22 -21 -20 -19 -19 -19 -19 -19 -18 -15 -12 -11 -11 -10 -10 -10 -10 -9 -9 -8 -8 -8 -8 -9 -8 -8 -8 -8 -8
-17 -18 -16 -13 -18 -21 -22 -22 -23 -27 -27 -25 -23 -21 -20 -19 -19 -19 -19 -19 -20 -18 -16 -12 -11 -11 -10 -10 -9 -9 -9 -9 -9 -8 -8 -8 -8 -9 -9 -8 -8 -8 -8
-18 -18 -13 -17 -21 -22 -22 -23 -27 -27 -25 -23 -22 -21 -19 -19 -19 -19 -19 -19 -19 -16 -13 -11 -11 -10 -10 -9 -9 -9 -9 -9 -8 -8 -8 -8 -8 -8 -9 -8 -8 -8 -8
-19 -14 -15 -20 -21 -22 -23 -28 -27 -25 -23 -21 -21 -20 -19 -19 -19 -19 -19 -19 -16 -14 -11 -11 -10 -9 -9 -9 -9 -9 -9 -9 -8 -8 -8 -8 -8 -9 -9 -8 -8 -8 -8
-16 -14 -19 -21 -21 -22 -27 -28 -26 -23 -22 -21 -20 -20 -19 -19 -19 -19 -19 -17 -15 -12 -11 -10 -10 -9 -9 -8 -8 -9 -9 -9 -8 -8 -8 -8 -8 -9 -9 -8 -8 -8 -8
-13 -18 -21 -21 -22 -24 -28 -27 -24 -23 -22 -21 -20 -20 -20 -20 -19 -19 -18 -17 -13 -11 -10 -10 -9 -9 -8 -8 -8 -8 -8 -8 -8 -8 -8 -8 -8 -8 -8 -8 -7 -8 -8
-16 -20 -21 -21 -22 -28 -28 -26 -24 -22 -21 -21 -20 -20 -20 -19 -19 -19 -18 -16 -12 -11 -10 -9 -9 -9 -8 -8 -8 -8 -8 -8 -8 -8 -8 -7 -8 -8 -8 -8 -8 -8 -8
-18 -21 -21 -21 -24 -28 -28 -25 -23 -21 -21 -20 -20 -20 -19 -19 -19 -19 -18 -14 -12 -11 -10 -9 -9 -8 -8 -8 -8 -8 -8 -8 -8 -8 -8 -8 -8 -8 -8 -7 -7 -8 -8
-20 -21 -21 -21 -27 -29 -28 -25 -23 -21 -20 -20 -20 -19 -19 -19 -19 -19 -18 -14 -12 -11 -10 -9 -8 -8 -8 -8 -8 -8 -8 -8 -8 -8 -9 -8 -8 -8 -7 -7 -7 -8 -8

GFSGL_850_dewp_063.txt.gz
Dewpoint
-1 -1 -2 -4 -4 -5 -5 -5 -5 -5 -4 -0 2 3 9 9 9 10 10 9 8 7 3 -2 -6 -6 -5 -7 -5 -1 1 -1 -0 -2 -8 -16 -19 -20 -21 -22 -23 -21 -20
-0 -1 -2 -4 -4 -5 -5 -5 -3 -1 0 4 7 8 9 9 9 8 8 7 5 -0 -5 -7 -6 -3 -3 -1 0 0 1 -2 -6 -14 -17 -20 -21 -21 -20 -22 -19 -18 -17
2 1 0 -1 -2 -3 -1 2 3 5 7 7 7 7 7 7 8 7 5 2 -3 -6 -6 -3 -2 -1 0 0 -0 -1 -4 -13 -17 -15 -17 -22 -21 -22 -16 -15 -16 -17 -20
2 2 1 1 1 1 5 5 6 6 6 6 6 7 6 5 4 2 -2 -4 -6 -3 -1 -1 1 0 -0 -0 -3 -14 -19 -19 -20 -20 -18 -16 -13 -13 -13 -13 -11 -15 -15
2 3 4 4 4 4 4 4 4 4 4 4 4 4 3 1 -2 -4 -3 -3 -2 -1 0 -0 -0 -0 -4 -19 -21 -22 -22 -23 -22 -15 -12 -10 -10 -9 -8 -10 -10 -9 -9
1 2 3 4 3 3 3 3 2 2 2 1 1 -2 -4 -3 -3 -3 -2 -0 0 -0 -0 -0 -3 -19 -21 -22 -21 -21 -21 -21 -12 -10 -10 -9 -9 -9 -9 -9 -9 -9 -9
1 1 1 1 2 2 1 1 1 0 0 -1 -2 -3 -2 -1 -0 -0 0 -0 -0 -1 -10 -19 -20 -20 -20 -21 -23 -24 -21 -16 -13 -10 -9 -9 -9 -13 -10 -9 -9 -9 -9
-0 -1 -1 -1 -1 -0 -0 -1 -0 -1 -1 -1 -1 -1 -1 -1 -1 -1 0 -2 -15 -18 -18 -19 -20 -23 -24 -25 -21 -17 -17 -15 -13 -12 -13 -15 -12 -9 -9 -9 -10 -10 -10
-0 -1 -1 -1 -1 -1 -1 -1 -2 -2 -2 -2 -2 -2 -1 -1 -3 -11 -16 -17 -16 -18 -21 -24 -25 -25 -23 -17 -10 -11 -15 -17 -18 -18 -16 -13 -12 -12 -11 -11 -11 -10 -10
-0 -1 -1 -1 -2 -2 -2 -2 -2 -2 -2 -2 -2 -2 -4 -12 -17 -19 -20 -19 -22 -25 -24 -23 -23 -23 -22 -9 -9 -14 -17 -19 -17 -14 -13 -12 -12 -11 -11 -10 -9 -9 -9
-2 -1 -1 -2 -2 -1 -1 -1 -1 -1 -2 -7 -15 -16 -17 -19 -16 -17 -21 -25 -25 -23 -22 -21 -21 -22 -20 -21 -19 -20 -19 -11 -12 -12 -12 -12 -11 -11 -10 -10 -9 -9 -9
-1 -1 -2 -1 -1 -1 -1 -4 -13 -14 -15 -16 -18 -19 -20 -20 -22 -23 -23 -21 -21 -22 -20 -20 -21 -22 -22 -21 -21 -17 -12 -12 -11 -11 -11 -11 -11 -10 -10 -9 -9 -9 -9
-2 -1 -1 -1 -5 -13 -15 -15 -14 -15 -18 -20 -21 -22 -23 -23 -22 -21 -20 -21 -20 -20 -21 -22 -22 -22 -21 -19 -14 -12 -11 -11 -11 -10 -10 -10 -10 -9 -9 -9 -10 -9 -9
-1 -1 -8 -15 -16 -15 -14 -14 -17 -20 -21 -22 -22 -23 -23 -22 -21 -18 -21 -21 -22 -22 -21 -21 -21 -20 -17 -12 -11 -11 -11 -10 -10 -10 -10 -10 -9 -9 -9 -9 -9 -9 -10
-7 -15 -16 -17 -16 -15 -14 -17 -20 -21 -22 -23 -24 -24 -23 -23 -20 -21 -20 -19 -20 -20 -21 -20 -20 -17 -12 -11 -11 -11 -10 -10 -10 -10 -10 -9 -9 -9 -9 -9 -9 -9 -9
-15 -17 -17 -17 -15 -14 -18 -20 -21 -22 -23 -24 -26 -27 -25 -23 -21 -21 -21 -20 -20 -20 -21 -20 -17 -12 -11 -11 -11 -10 -10 -10 -10 -9 -9 -8 -9 -9 -9 -9 -9 -8 -9
-16 -18 -18 -16 -14 -17 -20 -21 -22 -22 -24 -26 -26 -25 -24 -22 -21 -20 -20 -19 -20 -20 -20 -18 -14 -12 -11 -11 -10 -10 -10 -10 -9 -9 -8 -8 -9 -9 -9 -9 -9 -9 -9
-16 -18 -17 -14 -16 -20 -21 -22 -22 -24 -27 -26 -25 -23 -22 -21 -20 -19 -20 -19 -20 -20 -18 -15 -12 -11 -11 -10 -10 -9 -9 -9 -9 -9 -9 -8 -9 -9 -9 -9 -9 -8 -8
-17 -18 -16 -14 -19 -21 -22 -22 -25 -28 -27 -25 -23 -22 -21 -20 -19 -19 -19 -20 -21 -19 -16 -12 -11 -10 -10 -10 -9 -9 -9 -9 -9 -9 -8 -8 -9 -9 -8 -9 -9 -8 -8
-18 -18 -14 -17 -20 -21 -22 -23 -28 -28 -25 -23 -22 -21 -21 -20 -20 -19 -20 -20 -20 -17 -13 -11 -10 -10 -9 -9 -9 -9 -9 -9 -9 -9 -8 -9 -9 -8 -8 -9 -9 -8 -8
-18 -17 -14 -18 -21 -21 -22 -28 -28 -26 -24 -23 -22 -21 -20 -20 -20 -20 -21 -20 -18 -15 -11 -11 -10 -9 -9 -9 -8 -8 -8 -9 -8 -8 -8 -9 -9 -8 -9 -8 -8 -8 -8
-18 -15 -15 -20 -21 -22 -25 -29 -28 -25 -23 -23 -22 -21 -20 -20 -20 -20 -20 -18 -17 -13 -11 -10 -10 -9 -9 -9 -8 -8 -8 -8 -8 -8 -8 -9 -8 -8 -9 -8 -8 -8 -8
-18 -14 -18 -21 -21 -22 -28 -29 -27 -24 -23 -22 -21 -21 -20 -20 -20 -19 -19 -18 -16 -12 -11 -10 -10 -9 -9 -8 -8 -8 -8 -8 -9 -8 -8 -8 -9 -9 -9 -8 -8 -8 -8
-15 -15 -19 -21 -21 -23 -29 -29 -27 -24 -22 -22 -21 -21 -20 -20 -19 -19 -19 -18 -16 -12 -11 -11 -10 -9 -8 -8 -8 -8 -8 -9 -9 -9 -8 -8 -9 -8 -8 -8 -8 -8 -8
-14 -16 -20 -21 -21 -24 -29 -29 -26 -24 -22 -21 -21 -21 -20 -19 -19 -19 -19 -18 -16 -13 -11 -10 -9 -9 -8 -8 -8 -8 -8 -8 -9 -9 -8 -8 -8 -8 -8 -8 -8 -8 -8
-14 -18 -21 -21 -21 -26 -29 -29 -26 -24 -22 -21 -21 -21 -20 -19 -19 -19 -19 -19 -17 -13 -11 -10 -9 -8 -8 -9 -9 -9 -9 -9 -9 -9 -8 -8 -8 -9 -8 -8 -8 -8 -9

GFSGL_850_dewp_066.txt.gz
Dewpoint
1 0 -1 -1 -2 -3 -4 -4 -4 -4 -4 -4 -4 -2 2 7 9 9 9 9 9 9 8 7 7 5 1 -2 -7 -6 -3 -3 -0 0 -0 -0 -1 -9 -16 -18 -20 -21 -21
2 1 1 0 -1 -2 -3 -4 -4 -4 -4 -2 -0 3 6 7 8 8 8 8 8 7 7 5 4 -2 -7 -7 -4 -1 0 1 0 -0 -0 -7 -16 -18 -21 -22 -23 -21 -19
2 2 2 1 1 0 -0 -1 -2 -1 1 4 6 6 7 7 7 7 7 7 6 4 1 -1 -7 -7 -4 -1 0 1 0 -0 -1 -8 -15 -17 -19 -19 -16 -11 -14 -17 -14
2 3 3 2 2 2 2 2 4 5 5 5 5 5 6 6 6 6 5 4 2 -3 -6 -6 -3 -1 0 0 -0 -0 -2 -13 -15 -14 -12 -9 -9 -9 -9 -8 -8 -9 -10
2 3 3 3 4 4 4 4 4 4 4 4 4 4 4 4 3 1 -1 -2 -3 -5 -3 -1 0 0 -0 -0 -4 -18 -21 -21 -21 -17 -8 -7 -7 -8 -8 -8 -9 -9 -8
1 2 3 3 3 3 3 3 2 2 2 2 1 -1 -3 -3 -3 -3 -4 -3 -1 -1 0 0 -0 -0 -14 -21 -22 -22 -23 -19 -10 -7 -7 -7 -8 -8 -9 -9 -8 -8 -8
0 1 1 1 1 1 1 1 1 1 0 -0 -1 -2 -2 -2 -2 -1 -1 -1 -0 -0 -0 -2 -15 -20 -20 -21 -23 -25 -23 -19 -16 -9 -8 -8 -9 -9 -9 -10 -8 -8 -8
-0 -0 -0 0 0 1 0 -0 -0 -1 -1 -2 -2 -2 -2 -2 -1 -1 -1 -1 -3 -9 -18 -19 -19 -22 -24 -25 -23 -17 -17 -13 -12 -13 -11 -10 -9 -9 -8 -8 -8 -8 -8
1 0 -0 -0 -0 -1 -1 -1 -1 -2 -2 -2 -2 -2 -2 -2 -2 -4 -11 -17 -18 -19 -22 -24 -26 -24 -22 -22 -11 -12 -10 -14 -18 -20 -17 -14 -12 -12 -11 -11 -10 -8 -9
-0 -0 -1 -1 -2 -2 -2 -2 -1 -2 -2 -2 -2 -2 -7 -16 -18 -19 -21 -22 -24 -25 -24 -24 -22 -21 -20 -12 -14 -14 -19 -18 -15 -13 -12 -12 -12 -11 -11 -10 -10 -9 -9
-1 -1 -2 -1 -1 -2 -2 -2 -2 -2 -2 -6 -14 -17 -18 -11 -13 -21 -24 -24 -23 -23 -22 -20 -20 -21 -22 -22 -21 -18 -18 -11 -10 -12 -12 -12 -11 -11 -10 -10 -9 -9 -9
-1 -1 -1 -2 -2 -2 -2 -7 -11 -14 -16 -18 -19 -19 -19 -20 -22 -22 -23 -22 -24 -21 -20 -20 -21 -23 -22 -21 -20 -18 -14 -12 -12 -12 -11 -11 -11 -11 -10 -10 -9 -9 -9
-1 -1 -2 -2 -5 -14 -15 -14 -15 -18 -20 -21 -21 -22 -23 -22 -21 -20 -20 -22 -22 -22 -22 -21 -22 -22 -21 -19 -15 -12 -12 -11 -11 -11 -11 -11 -11 -10 -10 -10 -10 -9 -9
-1 -2 -8 -15 -16 -14 -14 -17 -20 -21 -22 -22 -23 -23 -23 -23 -22 -19 -19 -18 -20 -19 -20 -21 -21 -21 -18 -13 -12 -11 -11 -11 -11 -10 -10 -10 -10 -9 -9 -9 -9 -9 -10
-6 -15 -16 -16 -15 -15 -17 -20 -21 -22 -23 -23 -24 -26 -25 -22 -17 -21 -20 -16 -16 -20 -21 -21 -20 -18 -13 -12 -11 -11 -10 -10 -10 -10 -10 -9 -9 -9 -9 -9 -10 -10 -9
-16 -17 -17 -16 -14 -17 -20 -21 -22 -22 -24 -27 -28 -27 -24 -23 -22 -21 -21 -21 -21 -21 -21 -21 -19 -14 -12 -11 -11 -10 -10 -10 -10 -10 -9 -9 -9 -9 -9 -9 -9 -9 -9
-17 -18 -17 -15 -15 -19 -21 -22 -22 -24 -27 -28 -26 -25 -24 -23 -22 -21 -21 -20 -21 -21 -21 -20 -15 -12 -11 -11 -10 -10 -10 -10 -9 -9 -9 -9 -9 -9 -9 -9 -9 -9 -9
-17 -18 -17 -14 -17 -20 -22 -22 -23 -26 -28 -26 -25 -23 -22 -21 -21 -21 -21 -20 -21 -21 -20 -17 -12 -11 -11 -10 -10 -9 -9 -9 -9 -9 -9 -9 -8 -9 -9 -9 -9 -9 -8
-18 -18 -16 -14 -19 -21 -22 -22 -26 -29 -27 -25 -24 -23 -22 -21 -20 -20 -21 -20 -21 -21 -18 -13 -11 -11 -10 -9 -9 -9 -9 -9 -9 -9 -9 -9 -8 -9 -9 -9 -9 -9 -9
-17 -18 -15 -15 -20 -22 -22 -23 -29 -28 -26 -24 -23 -23 -22 -22 -21 -21 -21 -21 -21 -19 -16 -12 -11 -10 -10 -9 -9 -9 -8 -8 -8 -8 -9 -8 -8 -9 -9 -9 -9 -9 -8
-16 -18 -15 -16 -20 -22 -22 -25 -29 -28 -25 -24 -23 -22 -22 -22 -22 -22 -21 -21 -20 -18 -14 -12 -11 -10 -9 -9 -9 -8 -8 -8 -8 -8 -9 -9 -8 -8 -8 -9 -8 -9 -8
-16 -18 -14 -17 -21 -22 -22 -28 -29 -28 -25 -24 -23 -22 -22 -22 -21 -21 -20 -20 -18 -17 -13 -12 -11 -10 -9 -9 -9 -8 -8 -9 -8 -8 -8 -8 -8 -8 -8 -9 -9 -8 -8
-17 -18 -14 -18 -21 -22 -22 -29 -29 -28 -26 -24 -23 -22 -21 -21 -21 -20 -20 -19 -19 -17 -14 -12 -11 -10 -10 -9 -8 -8 -9 -9 -9 -8 -8 -8 -9 -9 -9 -9 -8 -8 -8
-17 -17 -14 -18 -21 -21 -22 -29 -30 -28 -26 -24 -23 -22 -22 -21 -21 -20 -20 -19 -19 -18 -15 -13 -11 -10 -10 -9 -8 -8 -9 -9 -9 -9 -8 -9 -9 -8 -8 -8 -8 -8 -8
-17 -16 -15 -19 -21 -21 -23 -29 -30 -29 -26 -24 -22 -22 -22 -21 -21 -20 -19 -19 -19 -19 -17 -13 -11 -10 -9 -9 -9 -9 -9 -9 -9 -8 -8 -8 -8 -8 -9 -9 -8 -8 -8
-17 -15 -15 -19 -21 -21 -23 -28 -30 -29 -25 -23 -22 -21 -21 -21 -21 -20 -19 -19 -19 -19 -17 -13 -11 -10 -9 -9 -9 -9 -9 -9 -9 -9 -8 -9 -9 -9 -8 -8 -8 -8 -8

GFSGL_850_dewp_069.txt.gz
Dewpoint
2 1 1 0 -0 -1 -2 -2 -3 -3 -3 -3 -4 -3 -3 -2 1 6 8 8 8 8 8 7 7 7 7 5 3 2 2 1 -0 -2 -1 -0 0 0 -0 -0 -7 -19 -20
3 2 1 1 1 1 0 -1 -1 -2 -2 -2 -2 -2 -0 2 5 6 7 7 7 7 7 6 6 5 4 3 1 -2 -2 -2 -0 1 1 0 -0 -0 -7 -14 -16 -21 -21
2 3 2 2 1 1 1 0 -0 -0 0 2 3 4 5 5 5 6 6 6 6 6 5 4 3 2 1 -5 -3 -1 0 1 0 -0 -1 -4 -15 -19 -19 -20 -19 -17 -13
2 3 3 3 2 2 2 2 3 3 4 5 5 5 5 5 5 5 5 4 4 3 1 -1 -3 -3 -3 -1 0 1 -0 -0 -2 -8 -17 -14 -15 -15 -11 -10 -8 -8 -14
2 2 3 3 3 3 3 4 4 4 4 4 4 4 4 3 2 2 2 1 0 -1 -3 -4 -3 -1 0 1 -0 -0 -5 -17 -21 -20 -18 -10 -8 -8 -8 -8 -9 -10 -13
1 1 2 3 3 3 3 3 3 3 3 2 2 1 -0 -0 -2 -2 -3 -3 -3 -3 -1 -1 -1 -0 -1 -1 -7 -20 -24 -25 -22 -16 -12 -13 -8 -8 -8 -9 -9 -12 -11
1 1 1 1 1 2 1 1 1 0 0 -0 -1 -1 -1 -2 -2 -2 -2 -1 -1 -1 -1 -2 -2 -10 -18 -21 -24 -26 -25 -23 -20 -16 -14 -9 -8 -9 -10 -12 -11 -9 -10
-0 -0 -0 0 1 0 -0 -1 -1 -1 -1 -2 -2 -1 -1 -2 -2 -1 -2 -1 -1 -2 -4 -7 -18 -22 -25 -26 -25 -18 -16 -15 -12 -12 -13 -14 -13 -12 -10 -10 -10 -10 -10
-0 -1 -0 -0 -1 -1 -1 -1 -1 -2 -2 -2 -2 -2 -2 -2 -2 -1 -4 -13 -18 -20 -22 -23 -24 -24 -24 -25 -19 -13 -15 -12 -13 -19 -21 -17 -14 -13 -12 -12 -11 -10 -9
-0 -1 -1 -2 -2 -2 -1 -2 -2 -2 -2 -2 -2 -7 -16 -18 -20 -21 -22 -19 -15 -18 -20 -22 -23 -23 -24 -24 -23 -20 -16 -18 -18 -13 -12 -12 -12 -12 -11 -11 -10 -9 -8
-1 -2 -2 -2 -2 -2 -1 -2 -2 -2 -4 -13 -16 -16 -14 -18 -22 -24 -24 -24 -22 -23 -22 -21 -21 -23 -24 -25 -25 -23 -21 -18 -12 -11 -12 -11 -11 -10 -10 -9 -9 -9 -9
-2 -1 -1 -1 -1 -2 -2 -5 -11 -15 -18 -19 -20 -21 -22 -23 -23 -23 -24 -24 -25 -24 -22 -22 -22 -24 -24 -23 -22 -20 -16 -12 -12 -12 -11 -11 -10 -10 -10 -10 -9 -9 -9
-1 -2 -2 -2 -6 -14 -14 -15 -18 -19 -20 -21 -22 -22 -22 -22 -22 -22 -22 -23 -24 -23 -22 -22 -22 -22 -22 -21 -18 -13 -12 -12 -11 -11 -11 -10 -10 -10 -10 -10 -9 -9 -10
-1 -2 -6 -15 -15 -14 -15 -18 -20 -21 -22 -22 -22 -22 -22 -21 -18 -14 -13 -12 -14 -15 -18 -21 -22 -21 -20 -15 -12 -12 -11 -11 -11 -11 -10 -10 -10 -10 -10 -9 -9 -10 -10
-2 -12 -16 -16 -15 -15 -19 -20 -21 -22 -23 -23 -26 -27 -25 -18 -20 -24 -23 -21 -20 -20 -21 -21 -21 -19 -15 -12 -11 -11 -11 -11 -10 -10 -10 -10 -10 -10 -9 -9 -9 -9 -9
-14 -17 -16 -15 -15 -17 -20 -21 -22 -23 -26 -29 -29 -27 -26 -25 -23 -22 -22 -21 -21 -21 -21 -20 -19 -16 -12 -12 -11 -11 -11 -10 -10 -10 -10 -10 -9 -9 -9 -9 -10 -9 -9
-17 -17 -17 -15 -15 -19 -20 -21 -22 -25 -29 -29 -27 -26 -25 -23 -23 -22 -21 -21 -22 -21 -21 -20 -19 -13 -12 -11 -11 -10 -10 -9 -9 -9 -9 -9 -9 -9 -9 -9 -9 -9 -9
-17 -18 -17 -15 -16 -20 -22 -22 -23 -27 -29 -28 -26 -25 -24 -23 -23 -22 -22 -22 -21 -21 -22 -20 -16 -12 -11 -11 -10 -10 -9 -9 -9 -9 -9 -9 -9 -9 -9 -9 -9 -9 -9
-18 -18 -17 -15 -16 -20 -22 -22 -24 -29 -29 -27 -25 -25 -24 -23 -23 -22 -22 -22 -22 -22 -22 -19 -13 -11 -11 -10 -9 -9 -9 -9 -8 -8 -8 -8 -9 -9 -9 -9 -9 -9 -9
-17 -18 -18 -15 -17 -20 -22 -22 -25 -30 -29 -27 -25 -25 -24 -23 -23 -22 -22 -23 -22 -22 -20 -17 -12 -11 -10 -10 -9 -9 -9 -8 -8 -8 -8 -9 -9 -9 -9 -9 -9 -9 -9
-14 -18 -18 -15 -16 -20 -22 -22 -26 -30 -29 -27 -25 -25 -24 -23 -23 -22 -22 -22 -22 -21 -19 -17 -13 -11 -11 -10 -9 -9 -9 -8 -8 -9 -9 -9 -9 -9 -9 -9 -9 -9 -9
-10 -16 -18 -15 -16 -20 -22 -22 -26 -30 -30 -28 -26 -24 -24 -23 -23 -22 -22 -21 -20 -19 -18 -17 -14 -12 -11 -10 -10 -9 -9 -8 -9 -9 -9 -9 -9 -9 -9 -9 -9 -9 -9
-9 -12 -18 -16 -15 -20 -22 -22 -25 -30 -30 -28 -26 -24 -23 -23 -23 -22 -21 -21 -21 -20 -19 -18 -16 -13 -12 -11 -10 -9 -8 -9 -9 -9 -9 -9 -9 -9 -9 -9 -10 -9 -9
-8 -11 -17 -16 -15 -20 -22 -22 -24 -29 -30 -29 -26 -24 -23 -23 -22 -22 -22 -21 -20 -20 -20 -19 -18 -15 -12 -11 -10 -9 -9 -9 -9 -9 -9 -8 -9 -9 -8 -9 -9 -8 -8
-8 -10 -17 -16 -15 -20 -21 -22 -23 -29 -30 -29 -27 -24 -23 -22 -22 -22 -21 -21 -20 -20 -20 -20 -18 -16 -13 -11 -9 -9 -9 -9 -9 -9 -9 -8 -8 -9 -8 -9 -9 -9 -9
-8 -9 -16 -16 -15 -19 -21 -21 -23 -27 -30 -30 -27 -24 -23 -22 -22 -22 -21 -20 -20 -20 -20 -20 -19 -16 -12 -10 -9 -9 -9 -9 -9 -9 -9 -9 -9 -8 -9 -8 -9 -8 -9

GFSGL_850_dewp_072.txt.gz
Dewpoint
2 2 1 2 2 1 0 -1 -1 -1 -1 -1 -2 -2 -2 -1 0 1 3 6 6 7 7 7 7 7 7 6 5 4 4 3 3 2 2 1 0 -1 -0 -1 -0 -1 -4
2 3 2 2 2 2 1 0 -1 -1 -1 -1 0 -0 -0 0 2 2 4 5 5 5 6 6 6 5 4 4 3 3 2 1 1 0 0 -0 -0 -0 -1 -1 -8 -18 -22
2 2 2 2 1 1 1 1 1 1 0 0 1 1 2 3 4 5 5 5 5 5 5 5 4 3 3 2 -0 -1 -1 -0 0 0 -0 -1 -3 -13 -18 -20 -17 -17 -16
2 2 2 2 2 2 3 2 3 2 2 2 3 3 4 4 4 4 4 4 4 3 2 1 1 -0 -2 -2 -1 -0 -0 0 -0 -2 -9 -20 -20 -15 -14 -15 -14 -14 -17
1 2 2 2 3 3 3 3 4 4 4 3 3 3 3 3 3 2 3 2 1 0 -1 -2 -3 -2 -1 -1 -1 -1 -4 -8 -11 -22 -22 -18 -15 -13 -11 -9 -10 -17 -20
1 1 2 2 3 3 3 3 2 2 1 1 1 1 1 0 -1 -1 -2 -1 -2 -3 -3 -1 -1 -2 -2 -1 -3 -7 -19 -22 -23 -23 -23 -19 -12 -9 -8 -10 -16 -18 -14
1 1 1 1 2 2 2 1 0 -0 -1 -1 -1 -1 -1 -2 -2 -2 -2 -1 -1 -1 -1 -1 -1 -1 -2 -7 -20 -23 -25 -22 -21 -20 -17 -15 -13 -13 -17 -19 -15 -13 -12
0 0 1 1 1 1 -0 -1 -1 -1 -1 -1 -1 -1 -2 -2 -2 -2 -2 -1 -1 -1 -2 -6 -14 -22 -23 -23 -23 -21 -15 -14 -13 -15 -18 -20 -22 -20 -16 -13 -12 -12 -12
0 -0 0 0 -1 -1 -1 -2 -2 -2 -2 -2 -2 -2 -2 -2 -2 -5 -12 -19 -21 -22 -23 -24 -24 -23 -22 -23 -18 -16 -14 -15 -16 -20 -22 -17 -14 -13 -13 -12 -12 -11 -11
-0 -0 -1 -1 -1 -2 -2 -2 -2 -2 -2 -2 -7 -16 -19 -20 -22 -23 -23 -21 -21 -22 -23 -23 -22 -22 -24 -24 -24 -21 -20 -19 -21 -18 -12 -13 -12 -12 -12 -11 -11 -11 -10
-1 -2 -2 -2 -2 -2 -2 -2 -2 -5 -14 -17 -18 -18 -20 -22 -23 -24 -24 -24 -23 -23 -20 -19 -21 -23 -23 -24 -24 -23 -22 -21 -17 -12 -13 -12 -12 -11 -11 -11 -11 -10 -10
-2 -2 -2 -2 -2 -2 -4 -7 -14 -17 -19 -20 -21 -22 -23 -23 -24 -25 -26 -26 -25 -24 -23 -22 -21 -21 -23 -23 -22 -21 -17 -13 -12 -12 -12 -11 -11 -11 -11 -11 -10 -10 -9
-1 -1 -1 -2 -4 -11 -15 -17 -19 -19 -20 -22 -22 -23 -25 -26 -25 -23 -22 -23 -23 -22 -21 -21 -22 -23 -23 -22 -20 -15 -12 -12 -12 -11 -11 -11 -10 -10 -10 -10 -10 -9 -9
-1 -2 -2 -11 -15 -15 -16 -18 -20 -21 -22 -23 -24 -27 -26 -24 -21 -19 -20 -19 -21 -21 -22 -22 -23 -22 -21 -17 -13 -12 -12 -11 -11 -11 -11 -11 -10 -10 -10 -10 -9 -9 -10
-2 -4 -14 -15 -15 -15 -18 -20 -21 -22 -24 -26 -29 -29 -28 -26 -25 -24 -23 -23 -22 -22 -23 -23 -22 -21 -18 -13 -12 -12 -11 -11 -11 -10 -10 -10 -10 -10 -10 -9 -9 -9 -10
-3 -14 -16 -15 -15 -17 -20 -21 -22 -23 -26 -31 -31 -28 -27 -26 -24 -24 -24 -23 -23 -23 -22 -22 -21 -20 -16 -12 -12 -11 -11 -10 -10 -10 -10 -10 -10 -9 -9 -9 -9 -9 -9
-11 -17 -17 -15 -15 -18 -20 -21 -22 -24 -29 -31 -29 -27 -27 -26 -25 -25 -24 -23 -23 -22 -22 -22 -21 -19 -13 -12 -11 -11 -10 -9 -9 -9 -9 -9 -9 -9 -9 -9 -9 -9 -9
-16 -17 -17 -16 -15 -19 -21 -22 -23 -26 -30 -31 -28 -27 -26 -25 -25 -25 -24 -24 -23 -23 -22 -22 -20 -16 -12 -11 -11 -10 -9 -9 -9 -9 -8 -8 -8 -8 -9 -9 -9 -9 -9
-17 -18 -18 -16 -15 -18 -21 -22 -23 -25 -30 -30 -29 -27 -26 -25 -25 -24 -24 -24 -24 -24 -23 -23 -20 -15 -12 -11 -10 -10 -9 -9 -9 -8 -8 -9 -9 -9 -9 -9 -9 -9 -9
-16 -18 -18 -17 -15 -16 -20 -22 -23 -25 -30 -30 -28 -27 -26 -25 -25 -25 -24 -23 -23 -23 -23 -22 -19 -15 -12 -11 -10 -10 -9 -9 -9 -8 -9 -9 -9 -9 -9 -9 -9 -9 -9
-13 -16 -18 -18 -16 -15 -20 -22 -22 -24 -30 -30 -29 -27 -26 -25 -25 -24 -23 -23 -22 -21 -21 -20 -18 -16 -13 -12 -11 -11 -10 -9 -9 -9 -9 -9 -9 -9 -9 -9 -9 -9 -9
-10 -12 -16 -18 -18 -15 -18 -21 -22 -23 -28 -30 -30 -28 -27 -25 -25 -24 -24 -23 -22 -21 -21 -20 -19 -18 -16 -13 -12 -11 -10 -9 -9 -9 -9 -9 -9 -9 -9 -9 -9 -9 -9
-6 -9 -12 -16 -18 -16 -16 -20 -22 -22 -26 -30 -30 -29 -27 -25 -24 -24 -23 -23 -22 -21 -21 -20 -20 -19 -18 -15 -13 -12 -10 -9 -9 -9 -9 -9 -9 -9 -9 -9 -10 -9 -9
-2 -6 -8 -11 -17 -17 -15 -19 -22 -22 -24 -28 -30 -30 -28 -26 -24 -23 -23 -22 -22 -21 -20 -20 -20 -20 -19 -17 -14 -12 -10 -9 -9 -9 -9 -9 -9 -9 -9 -10 -9 -9 -9
-1 -2 -6 -9 -14 -18 -15 -17 -21 -22 -22 -26 -30 -30 -28 -25 -24 -23 -23 -22 -22 -21 -21 -20 -20 -20 -19 -18 -14 -11 -10 -9 -9 -9 -9 -9 -9 -9 -9 -9 -8 -8 -9
-1 -1 -4 -8 -9 -17 -16 -16 -20 -22 -22 -24 -29 -30 -28 -25 -24 -23 -22 -21 -21 -20 -19 -18 -18 -18 -18 -16 -12 -10 -9 -9 -9 -9 -9 -9 -9 -9 -9 -9 -8 -8 -9

GFSGL_850_dewp_075.txt.gz
Dewpoint
2 2 2 1 2 1 0 -1 -1 -0 1 1 1 -0 -1 -2 -2 -1 -0 1 3 5 6 6 5 6 6 7 7 6 5 4 3 3 3 2 2 2 1 -0 -0 -0 -0
1 2 2 2 1 2 1 1 0 -0 -1 -0 -1 -1 -2 -2 -1 1 1 3 4 4 4 5 5 5 5 5 5 4 4 3 2 2 1 1 0 -0 0 -0 -1 -2 -11
1 1 2 2 2 1 1 0 0 0 0 0 0 -0 0 1 2 3 4 4 4 4 4 4 4 4 3 2 2 1 0 -0 0 0 0 -0 -0 -1 -4 -12 -17 -16 -16
1 2 2 2 2 2 2 2 2 2 2 2 2 3 3 3 3 3 3 3 3 3 4 3 3 2 1 -1 -1 -0 -0 -0 0 -0 -1 -4 -9 -15 -17 -17 -16 -14 -13
1 2 2 2 2 2 3 3 2 3 3 3 3 3 3 3 3 2 2 2 2 2 1 1 -0 -1 -1 -1 -1 -1 -1 -1 -2 -5 -17 -21 -19 -15 -13 -12 -14 -13 -18
1 1 1 2 3 3 3 3 3 2 2 1 1 1 1 -0 -1 -1 -1 -1 -1 -2 -2 -1 -1 -1 -1 -1 -1 -1 -1 -13 -19 -20 -20 -22 -16 -13 -12 -13 -16 -19 -14
1 1 1 1 2 2 2 1 1 0 -0 -1 -1 -1 -1 -1 -1 -1 -1 -1 -1 -1 -1 -1 -1 -2 -2 -4 -13 -21 -22 -23 -23 -20 -19 -17 -16 -16 -17 -20 -17 -13 -13
0 1 1 1 1 1 0 -0 -1 -1 -1 -1 -1 -1 -2 -2 -2 -2 -2 -1 -1 -2 -4 -7 -13 -20 -23 -23 -20 -20 -17 -14 -15 -14 -16 -18 -19 -20 -18 -14 -13 -12 -12
0 0 0 1 0 -0 -1 -1 -1 -2 -2 -2 -2 -2 -2 -4 -6 -12 -19 -22 -22 -23 -23 -23 -23 -22 -19 -21 -21 -18 -16 -16 -15 -14 -18 -17 -15 -13 -12 -12 -12 -12 -12
0 0 -0 -1 -1 -1 -2 -2 -2 -2 -2 -5 -14 -19 -21 -23 -24 -24 -24 -24 -25 -25 -25 -23 -21 -22 -23 -23 -24 -23 -22 -20 -19 -21 -14 -12 -12 -12 -12 -11 -11 -11 -10
0 -0 -1 -1 -2 -2 -2 -2 -2 -7 -16 -18 -19 -21 -23 -24 -24 -26 -28 -27 -27 -26 -24 -23 -22 -23 -23 -24 -25 -24 -23 -21 -20 -14 -12 -12 -12 -11 -11 -10 -11 -11 -10
-0 -2 -2 -1 -2 -2 -3 -8 -14 -17 -19 -21 -23 -24 -25 -26 -27 -27 -27 -26 -25 -24 -23 -22 -22 -22 -23 -24 -23 -22 -19 -15 -12 -12 -12 -11 -11 -11 -11 -11 -11 -10 -10
-1 -2 -2 -2 -2 -6 -11 -16 -18 -19 -21 -23 -24 -25 -26 -26 -25 -23 -24 -24 -24 -24 -22 -23 -23 -23 -23 -22 -20 -15 -12 -12 -12 -11 -11 -11 -11 -11 -11 -11 -11 -10 -10
-2 -2 -2 -2 -9 -14 -16 -18 -20 -21 -22 -24 -25 -27 -26 -26 -24 -24 -24 -24 -24 -23 -23 -23 -23 -23 -22 -18 -14 -12 -12 -11 -11 -11 -11 -11 -11 -10 -10 -10 -10 -10 -10
-1 -1 -2 -12 -15 -15 -17 -19 -21 -22 -23 -25 -28 -28 -28 -27 -26 -26 -25 -24 -24 -23 -24 -23 -23 -22 -21 -17 -13 -12 -12 -11 -11 -10 -10 -10 -10 -10 -10 -10 -10 -10 -9
-2 -2 -10 -15 -15 -15 -18 -20 -22 -23 -25 -30 -31 -29 -28 -28 -26 -26 -26 -25 -24 -24 -24 -23 -23 -23 -22 -15 -12 -12 -11 -11 -10 -10 -9 -9 -9 -9 -9 -9 -9 -9 -9
-2 -6 -15 -16 -15 -16 -19 -21 -22 -23 -26 -30 -30 -28 -28 -28 -27 -26 -25 -25 -25 -25 -23 -23 -24 -23 -20 -14 -12 -12 -11 -10 -9 -9 -9 -9 -8 -8 -8 -9 -9 -9 -9
-2 -10 -16 -16 -15 -16 -18 -20 -21 -22 -26 -30 -30 -29 -27 -27 -26 -26 -25 -25 -25 -25 -25 -24 -24 -22 -19 -13 -12 -11 -10 -10 -9 -9 -9 -8 -9 -9 -9 -9 -9 -9 -9
-5 -14 -17 -17 -15 -15 -18 -20 -22 -23 -25 -31 -31 -29 -27 -27 -26 -26 -25 -24 -24 -25 -25 -25 -24 -21 -17 -13 -12 -11 -10 -10 -9 -9 -9 -9 -9 -9 -9 -9 -9 -9 -9
-6 -15 -17 -17 -17 -15 -16 -20 -22 -23 -23 -29 -31 -30 -28 -28 -26 -25 -25 -24 -24 -23 -22 -22 -21 -20 -18 -14 -12 -12 -11 -10 -10 -9 -9 -9 -9 -9 -9 -9 -9 -9 -9
-5 -13 -17 -17 -17 -17 -15 -18 -21 -23 -23 -27 -31 -30 -29 -28 -26 -25 -25 -24 -24 -23 -23 -22 -20 -20 -18 -17 -15 -13 -12 -11 -11 -10 -9 -9 -9 -9 -10 -9 -9 -9 -9
-3 -9 -14 -17 -18 -18 -16 -16 -20 -22 -23 -24 -29 -30 -30 -29 -27 -25 -24 -24 -24 -24 -23 -22 -21 -20 -20 -19 -17 -16 -14 -12 -11 -10 -9 -9 -9 -10 -9 -9 -9 -9 -9
-2 -5 -10 -13 -16 -18 -18 -15 -17 -21 -22 -22 -26 -29 -30 -29 -28 -26 -25 -24 -23 -23 -22 -22 -21 -21 -20 -19 -19 -18 -16 -13 -12 -10 -9 -9 -10 -10 -9 -9 -9 -10 -10
-0 -2 -6 -9 -11 -14 -18 -17 -16 -18 -21 -22 -23 -27 -30 -30 -28 -26 -25 -24 -23 -23 -22 -21 -21 -21 -20 -20 -20 -19 -17 -14 -11 -10 -9 -9 -9 -9 -9 -9 -9 -9 -9
-0 -1 -1 -4 -8 -10 -13 -17 -16 -16 -20 -22 -22 -24 -29 -30 -29 -26 -24 -24 -23 -23 -22 -21 -20 -19 -19 -19 -19 -18 -16 -13 -10 -9 -9 -10 -10 -10 -9 -10 -10 -9 -9
-1 -1 -1 -1 -2 -5 -9 -15 -16 -16 -18 -21 -22 -22 -27 -30 -29 -26 -24 -24 -23 -22 -20 -17 -15 -13 -13 -14 -15 -15 -13 -11 -10 -9 -9 -9 -9 -9 -9 -9 -9 -9 -9

GFSGL_850_dewp_078.txt.gz
Dewpoint
2 2 2 2 2 1 1 1 1 1 1 2 3 3 3 3 2 1 0 -0 0 1 2 3 5 5 5 4 5 5 6 5 4 4 3 3 2 2 1 0 0 0 -0
1 2 2 2 2 2 2 2 1 1 1 0 0 -0 -1 -1 -1 -1 -0 0 1 2 3 3 4 4 4 4 4 5 4 3 3 2 2 2 1 1 0 -0 -1 -2 -2
1 1 2 2 2 2 1 1 1 1 0 0 0 -0 -0 -0 0 1 2 2 3 3 3 3 3 3 4 4 4 3 3 2 1 0 0 0 0 -0 -1 -1 -2 -10 -15
1 1 2 2 2 2 1 1 1 1 1 1 1 1 1 2 2 2 3 3 3 3 2 2 2 3 3 2 1 -0 -0 0 0 0 0 -0 -1 -2 -10 -14 -14 -15 -15
1 1 2 2 2 2 2 2 2 2 2 2 3 2 2 3 2 3 3 2 2 2 2 1 1 0 -0 -1 -1 -0 -0 0 -0 -1 -1 -4 -14 -14 -15 -16 -13 -13 -16
1 1 1 2 2 2 2 2 3 3 2 2 1 1 1 1 1 0 -0 -0 -0 -1 -1 -1 -1 -1 -1 -1 -1 -1 -1 -2 -4 -10 -20 -20 -17 -19 -16 -14 -14 -18 -16
0 1 1 1 2 2 3 2 1 1 0 -0 -0 -0 -1 -1 -1 -1 -1 -1 -1 -1 -1 -1 -1 -2 -1 -2 -5 -11 -21 -25 -23 -22 -21 -19 -17 -15 -16 -18 -20 -16 -14
0 0 1 1 1 2 1 0 -0 -1 -1 -1 -1 -1 -1 -2 -1 -2 -2 -3 -4 -4 -5 -9 -16 -20 -23 -24 -24 -23 -20 -18 -17 -15 -15 -16 -17 -19 -21 -20 -15 -13 -12
0 0 0 1 1 0 -0 -1 -1 -1 -1 -2 -2 -2 -5 -8 -12 -21 -22 -23 -23 -23 -23 -23 -23 -24 -24 -27 -27 -27 -23 -19 -18 -19 -20 -21 -19 -14 -12 -12 -12 -12 -12
0 0 0 1 -0 -1 -1 -1 -2 -2 -2 -5 -17 -20 -22 -23 -24 -24 -25 -25 -25 -26 -26 -25 -25 -25 -25 -25 -25 -25 -24 -21 -20 -19 -19 -14 -12 -12 -12 -12 -12 -11 -11
0 0 -0 -1 -1 -1 -2 -2 -2 -4 -15 -19 -20 -22 -23 -24 -27 -29 -29 -28 -27 -27 -26 -24 -23 -24 -24 -24 -25 -24 -22 -21 -19 -18 -14 -12 -12 -12 -12 -11 -10 -10 -11
0 -0 -1 -1 -2 -2 -2 -2 -11 -17 -19 -21 -22 -24 -25 -27 -27 -26 -26 -26 -26 -25 -23 -23 -23 -24 -24 -24 -23 -22 -20 -17 -14 -12 -12 -12 -12 -11 -11 -11 -10 -11 -10
-0 -1 -1 -2 -2 -2 -4 -13 -18 -20 -22 -23 -24 -25 -27 -27 -25 -24 -24 -25 -25 -25 -24 -24 -24 -24 -24 -23 -21 -18 -14 -12 -12 -12 -12 -11 -11 -11 -11 -11 -11 -10 -10
-0 -2 -2 -2 -2 -5 -13 -18 -19 -21 -22 -24 -26 -27 -28 -27 -25 -24 -25 -26 -26 -25 -25 -25 -24 -24 -23 -22 -18 -15 -13 -12 -12 -11 -11 -11 -11 -11 -10 -10 -10 -10 -10
-1 -2 -2 -2 -7 -14 -16 -18 -20 -21 -23 -25 -27 -29 -29 -28 -27 -27 -27 -27 -26 -25 -25 -25 -24 -23 -22 -20 -16 -13 -12 -12 -12 -11 -11 -10 -10 -10 -10 -10 -10 -9 -9
-1 -2 -2 -4 -13 -15 -17 -19 -21 -22 -23 -25 -30 -30 -29 -28 -28 -27 -27 -27 -27 -26 -26 -25 -24 -24 -23 -21 -15 -12 -12 -12 -11 -10 -10 -9 -9 -9 -9 -8 -9 -9 -9
-1 -1 -2 -10 -15 -15 -17 -19 -21 -22 -23 -26 -31 -30 -28 -28 -28 -27 -27 -26 -26 -26 -26 -25 -25 -24 -23 -21 -15 -12 -12 -11 -10 -10 -9 -9 -9 -9 -9 -9 -9 -9 -9
-1 -2 -3 -14 -16 -15 -16 -18 -21 -22 -22 -25 -29 -30 -29 -28 -28 -27 -27 -27 -26 -25 -26 -26 -25 -25 -24 -21 -15 -12 -12 -11 -10 -9 -9 -9 -9 -9 -9 -9 -9 -9 -9
-1 -2 -5 -15 -16 -16 -15 -17 -19 -20 -21 -23 -29 -31 -30 -28 -27 -27 -27 -26 -26 -25 -24 -24 -24 -25 -23 -21 -17 -13 -12 -12 -11 -10 -10 -9 -9 -9 -9 -9 -9 -9 -9
-1 -2 -6 -15 -16 -16 -15 -16 -18 -20 -22 -23 -26 -30 -30 -29 -28 -27 -27 -26 -25 -25 -24 -24 -22 -21 -20 -19 -18 -16 -14 -13 -12 -11 -11 -10 -9 -9 -9 -9 -10 -10 -10
-1 -2 -6 -14 -17 -17 -17 -15 -16 -19 -22 -23 -23 -28 -30 -30 -30 -28 -27 -26 -25 -25 -24 -24 -23 -22 -21 -21 -20 -19 -18 -16 -14 -12 -12 -11 -9 -9 -9 -9 -10 -10 -9
-1 -1 -3 -11 -16 -17 -17 -17 -15 -16 -20 -22 -23 -24 -29 -30 -30 -29 -28 -26 -25 -25 -24 -23 -23 -22 -21 -21 -21 -20 -20 -19 -17 -15 -13 -11 -10 -9 -9 -10 -10 -10 -10
-0 -0 -2 -4 -11 -16 -17 -18 -17 -16 -17 -20 -22 -22 -25 -28 -30 -30 -29 -27 -25 -24 -24 -23 -23 -22 -21 -21 -21 -21 -21 -20 -19 -17 -14 -12 -10 -9 -9 -10 -10 -10 -10
-0 0 -0 -1 -5 -12 -15 -17 -18 -18 -16 -17 -21 -22 -22 -25 -28 -30 -30 -28 -26 -24 -24 -23 -22 -21 -21 -20 -20 -20 -20 -20 -19 -18 -15 -12 -10 -9 -9 -10 -10 -10 -10
0 -0 -0 -0 -1 -5 -10 -13 -15 -17 -17 -16 -19 -21 -22 -23 -25 -30 -30 -28 -26 -25 -24 -23 -21 -19 -17 -15 -15 -14 -15 -17 -17 -15 -13 -10 -9 -9 -10 -10 -10 -10 -10
-0 -0 -1 -1 -1 -2 -2 -3 -7 -14 -17 -16 -14 -18 -21 -22 -23 -28 -30 -29 -26 -25 -24 -23 -20 -16 -13 -12 -12 -12 -12 -12 -13 -12 -11 -9 -9 -10 -10 -10 -10 -10 -10

GFSGL_850_dewp_081.txt.gz
Dewpoint
2 2 2 2 2 1 1 1 1 1 1 3 5 6 8 8 8 8 8 7 4 1 1 2 3 2 4 3 4 4 3 4 5 5 4 4 3 2 1 0 0 -0 0
1 1 1 1 2 2 2 2 2 1 1 2 2 3 3 2 0 -1 -1 -1 -0 0 1 2 2 3 3 3 3 3 3 3 4 4 3 3 2 1 1 0 0 -0 -0
1 1 1 1 2 2 2 2 1 1 1 1 1 1 0 -0 -1 -1 -0 0 1 2 2 2 3 3 3 3 3 3 3 3 2 2 1 1 1 0 -0 -1 -1 -1 -2
0 0 1 1 1 2 2 1 1 1 1 1 1 1 1 1 1 1 2 2 2 2 2 2 2 2 2 2 1 1 1 1 0 0 1 0 -0 -1 -1 -2 -10 -15 -17
0 1 1 1 2 2 2 2 2 2 2 2 2 2 2 2 2 2 3 3 2 2 2 1 1 0 -0 -1 -0 -0 -0 -0 -0 0 -0 -1 -2 -9 -14 -15 -16 -16 -15
1 1 1 1 1 2 2 2 2 2 3 2 2 2 2 2 2 1 1 1 1 -0 -1 -1 -0 -1 -1 -1 -1 -1 -1 -1 -1 -2 -6 -16 -18 -16 -17 -16 -14 -15 -22
1 1 1 1 1 2 2 2 2 2 1 1 1 0 -0 -1 -1 -1 -1 -1 -1 -1 -1 -1 -1 -2 -3 -4 -7 -13 -19 -23 -24 -23 -22 -22 -20 -19 -17 -16 -17 -21 -16
0 0 0 1 1 2 2 1 1 0 -0 -1 -1 -1 -1 -1 -1 -2 -4 -7 -11 -15 -17 -20 -23 -24 -24 -24 -23 -22 -22 -21 -20 -20 -19 -18 -18 -19 -18 -18 -19 -14 -13
0 0 0 1 1 1 1 0 -1 -1 -1 -1 -1 -2 -2 -10 -21 -23 -24 -24 -25 -26 -26 -27 -26 -26 -25 -27 -27 -27 -25 -22 -19 -20 -20 -21 -22 -21 -9 -10 -10 -11 -12
-0 0 0 0 1 1 -0 -1 -1 -1 -2 -2 -7 -16 -22 -24 -25 -26 -28 -29 -29 -29 -29 -28 -26 -26 -25 -24 -26 -26 -26 -25 -23 -22 -21 -20 -15 -13 -12 -12 -12 -11 -11
-0 -0 0 0 0 -0 -1 -1 -2 -2 -5 -17 -21 -23 -24 -27 -29 -31 -31 -30 -29 -29 -27 -26 -25 -25 -25 -26 -26 -26 -25 -25 -23 -22 -19 -15 -12 -12 -12 -12 -11 -11 -11
-0 -0 -0 -0 -1 -1 -2 -2 -2 -8 -18 -19 -21 -24 -26 -28 -29 -29 -29 -29 -29 -28 -26 -26 -25 -25 -25 -25 -25 -24 -24 -22 -18 -15 -13 -13 -12 -12 -12 -11 -11 -11 -11
-1 -0 -0 -1 -1 -2 -2 -2 -11 -16 -18 -21 -24 -26 -27 -28 -27 -27 -28 -29 -29 -28 -26 -27 -27 -26 -25 -25 -24 -23 -20 -16 -13 -12 -12 -12 -12 -11 -11 -11 -11 -11 -11
-1 -0 -1 -1 -2 -2 -2 -9 -17 -20 -22 -23 -25 -27 -29 -28 -27 -27 -28 -27 -27 -27 -27 -26 -26 -26 -25 -24 -22 -19 -17 -14 -12 -12 -12 -11 -11 -11 -11 -11 -10 -10 -10
-1 -0 -1 -2 -2 -2 -8 -16 -19 -20 -21 -23 -26 -28 -28 -28 -28 -29 -28 -28 -28 -28 -29 -27 -26 -25 -25 -23 -22 -19 -15 -13 -12 -12 -12 -11 -11 -10 -10 -9 -9 -9 -9
-1 -1 -2 -2 -2 -5 -13 -17 -19 -20 -22 -25 -27 -30 -30 -29 -29 -29 -28 -28 -28 -28 -27 -26 -26 -26 -25 -25 -23 -19 -15 -13 -12 -12 -11 -10 -10 -9 -9 -9 -9 -9 -9
-1 -1 -2 -2 -3 -11 -15 -17 -19 -21 -23 -24 -26 -31 -31 -29 -29 -29 -28 -28 -27 -27 -27 -27 -27 -27 -26 -25 -24 -21 -15 -12 -12 -11 -11 -10 -9 -9 -9 -9 -9 -9 -9
-1 -1 -2 -2 -4 -14 -15 -16 -19 -21 -22 -23 -25 -29 -31 -29 -29 -28 -28 -28 -27 -26 -26 -25 -25 -26 -26 -26 -24 -21 -17 -13 -12 -12 -11 -10 -9 -9 -9 -9 -9 -9 -9
-1 -1 -1 -2 -6 -15 -15 -15 -17 -19 -21 -21 -22 -26 -30 -30 -29 -28 -28 -28 -27 -27 -26 -26 -25 -24 -23 -23 -23 -21 -19 -16 -14 -12 -12 -11 -10 -9 -9 -9 -9 -9 -9
-1 -1 -1 -2 -6 -15 -16 -15 -16 -17 -19 -20 -22 -23 -26 -30 -30 -29 -29 -28 -27 -27 -26 -26 -25 -25 -24 -23 -22 -21 -20 -19 -18 -16 -14 -13 -12 -11 -10 -9 -9 -9 -10
-1 -1 -1 -2 -4 -12 -16 -16 -16 -16 -17 -19 -21 -22 -23 -27 -30 -30 -30 -29 -27 -27 -26 -25 -25 -24 -24 -24 -23 -22 -22 -21 -20 -19 -18 -17 -14 -12 -11 -10 -9 -9 -10
-1 -1 -1 -1 -3 -8 -15 -17 -17 -16 -16 -16 -19 -22 -22 -23 -27 -30 -30 -29 -28 -27 -26 -26 -25 -24 -24 -23 -22 -22 -22 -21 -20 -20 -19 -19 -17 -15 -13 -11 -9 -9 -10
-1 -0 -0 -1 -2 -3 -10 -16 -17 -17 -17 -16 -16 -19 -22 -22 -23 -26 -29 -29 -29 -28 -27 -26 -25 -24 -23 -22 -22 -21 -21 -21 -20 -20 -20 -19 -18 -17 -14 -11 -10 -10 -10
-0 -0 -0 -0 -0 -1 -2 -7 -15 -17 -18 -18 -17 -16 -19 -21 -22 -23 -25 -28 -30 -30 -27 -26 -25 -25 -24 -22 -20 -18 -17 -16 -16 -17 -17 -18 -17 -16 -13 -10 -9 -10 -10
0 0 -0 -0 -0 -0 -1 -2 -6 -13 -15 -16 -18 -17 -16 -19 -22 -22 -23 -25 -28 -30 -28 -26 -25 -25 -24 -21 -17 -14 -13 -12 -12 -12 -12 -13 -14 -13 -11 -10 -10 -10 -10
-0 -0 -0 -0 -1 -1 -1 -1 -1 -6 -5 -5 -14 -17 -16 -17 -15 -10 -17 -11 -24 -29 -28 -26 -25 -24 -24 -22 -16 -13 -12 -11 -11 -11 -11 -11 -11 -11 -10 -10 -10 -10 -10

GFSGL_850_dewp_084.txt.gz
Dewpoint
2 2 2 2 1 1 1 1 1 1 1 1 3 6 9 9 8 8 8 9 8 7 4 2 1 1 2 3 3 2 3 3 3 3 2 3 3 3 3 3 2 2 1
1 1 1 1 1 1 2 2 1 2 1 2 2 3 4 5 5 6 5 4 2 1 -0 0 1 2 2 3 3 3 3 3 3 3 3 3 2 2 2 2 2 1 0
1 1 0 0 1 1 1 1 1 1 2 2 1 1 1 1 1 0 -0 0 0 0 1 2 2 3 3 3 2 2 2 3 2 2 1 1 1 1 1 1 1 0 -0
0 0 -0 0 0 1 1 1 1 1 1 1 1 1 1 1 1 1 1 1 1 2 2 2 2 2 2 2 1 1 1 0 0 0 0 0 0 0 -0 -1 -1 -4 -11
0 0 0 1 1 1 1 2 2 2 2 1 1 1 1 1 2 2 2 3 3 2 2 1 1 1 1 -0 -0 -0 -0 -0 -0 -0 -0 -1 -1 -2 -6 -11 -15 -16 -17
0 1 1 1 1 1 2 2 2 2 2 2 2 2 2 2 2 2 2 2 2 1 0 0 0 -0 -1 -1 -1 -1 -1 -2 -2 -2 -4 -6 -13 -16 -17 -17 -19 -19 -20
1 1 1 0 0 1 2 2 2 2 2 2 1 1 1 1 1 0 -0 -0 -1 -1 -1 -1 -2 -4 -6 -11 -16 -22 -23 -24 -24 -23 -23 -22 -21 -19 -18 -18 -19 -22 -23
1 1 0 0 0 1 1 1 1 2 1 1 -0 -1 -1 -1 -1 -1 -1 -3 -8 -15 -21 -25 -25 -24 -24 -24 -25 -25 -25 -24 -24 -23 -22 -21 -21 -21 -21 -20 -21 -21 -16
0 0 0 0 1 1 1 1 1 0 -1 -1 -1 -1 -1 -2 -8 -18 -23 -26 -27 -27 -27 -27 -27 -27 -28 -28 -28 -28 -27 -25 -23 -24 -23 -22 -21 -19 -20 -16 -13 -13 -13
0 0 -0 0 0 1 1 0 -1 -1 -1 -1 -2 -3 -12 -23 -24 -26 -28 -29 -29 -29 -29 -28 -28 -28 -27 -27 -27 -28 -28 -27 -26 -24 -23 -22 -20 -15 -13 -13 -12 -12 -12
0 -0 -0 -0 0 1 0 -1 -1 -1 -1 -2 -10 -20 -23 -26 -29 -31 -30 -30 -29 -30 -28 -27 -27 -28 -28 -27 -28 -28 -27 -27 -24 -23 -20 -17 -15 -13 -13 -12 -12 -11 -11
0 -0 -0 -0 -0 -0 -1 -1 -1 -2 -4 -17 -21 -22 -25 -27 -29 -29 -30 -30 -31 -29 -28 -28 -28 -29 -28 -28 -28 -28 -27 -24 -21 -17 -14 -13 -13 -12 -12 -12 -12 -11 -11
-0 -0 -0 -0 -0 -1 -1 -2 -2 -5 -18 -19 -21 -24 -26 -27 -27 -27 -28 -30 -29 -29 -29 -30 -29 -29 -28 -27 -26 -26 -24 -20 -17 -14 -13 -13 -12 -12 -12 -11 -11 -11 -11
-0 -1 -0 -0 -1 -1 -2 -2 -3 -15 -17 -20 -23 -25 -27 -27 -27 -27 -27 -27 -29 -29 -29 -29 -28 -28 -27 -27 -25 -23 -21 -18 -15 -13 -13 -13 -12 -12 -11 -11 -11 -10 -10
-1 -1 -1 -1 -1 -2 -2 -3 -11 -16 -19 -22 -24 -25 -26 -28 -28 -28 -29 -29 -29 -30 -30 -28 -27 -27 -27 -27 -25 -24 -21 -17 -14 -13 -13 -13 -12 -11 -10 -10 -9 -9 -9
-1 -1 -1 -1 -1 -2 -2 -6 -16 -18 -20 -21 -23 -26 -28 -29 -29 -29 -30 -30 -30 -30 -29 -28 -27 -28 -28 -27 -26 -25 -24 -20 -15 -13 -13 -12 -11 -10 -10 -9 -9 -9 -9
-2 -2 -1 -1 -1 -2 -3 -10 -17 -19 -20 -22 -24 -26 -30 -31 -29 -29 -30 -30 -30 -29 -28 -28 -27 -27 -27 -27 -27 -26 -25 -22 -17 -13 -13 -12 -11 -10 -10 -9 -9 -9 -9
-1 -1 -1 -1 -2 -2 -4 -13 -16 -18 -19 -21 -23 -24 -28 -30 -30 -29 -29 -30 -29 -28 -28 -28 -28 -27 -26 -25 -25 -25 -24 -23 -20 -17 -14 -13 -12 -11 -11 -10 -9 -9 -9
-1 -1 -1 -1 -2 -2 -6 -14 -15 -16 -19 -21 -21 -23 -24 -28 -30 -30 -29 -29 -29 -28 -28 -28 -27 -27 -27 -26 -25 -24 -23 -21 -20 -19 -19 -18 -16 -13 -12 -11 -10 -9 -9
-1 -1 -1 -2 -1 -2 -6 -14 -15 -15 -17 -19 -20 -21 -21 -23 -27 -30 -30 -30 -30 -29 -28 -28 -27 -27 -27 -26 -25 -24 -24 -23 -22 -21 -21 -20 -19 -18 -16 -13 -12 -11 -10
-1 -1 -1 -1 -1 -2 -4 -12 -16 -15 -15 -16 -18 -19 -19 -22 -23 -26 -30 -30 -31 -30 -29 -28 -27 -27 -26 -26 -25 -24 -23 -22 -22 -21 -21 -20 -20 -19 -19 -17 -14 -13 -12
-1 -1 -1 -1 -1 -2 -2 -5 -12 -16 -16 -16 -16 -16 -17 -20 -22 -23 -24 -28 -30 -30 -30 -30 -29 -27 -26 -25 -25 -24 -23 -22 -21 -21 -21 -21 -20 -20 -20 -19 -17 -15 -13
-0 -1 -1 -0 -1 -1 -1 -2 -5 -11 -16 -17 -17 -16 -15 -16 -19 -22 -23 -24 -27 -29 -29 -30 -30 -29 -26 -25 -25 -24 -22 -20 -19 -18 -17 -17 -17 -18 -18 -18 -17 -16 -13
1 0 0 -1 -0 -0 -1 -1 -2 -4 -9 -15 -17 -17 -17 -16 -16 -18 -21 -22 -23 -25 -27 -29 -30 -30 -26 -25 -25 -24 -22 -18 -15 -14 -13 -12 -12 -12 -12 -13 -14 -13 -11
1 0 0 -0 -1 -0 -0 -0 -0 -1 -1 -5 -12 -16 -17 -17 -17 -16 -18 -22 -22 -23 -20 -13 -20 -29 -26 -25 -25 -24 -22 -18 -14 -13 -12 -11 -11 -11 -11 -11 -11 -11 -10
-0 -0 -0 -0 -0 -0 -0 -0 -0 -0 -1 -1 -1 -7 -10 -7 -15 -17 -17 -20 -19 -11 -7 -5 -23 -28 -26 -25 -24 -23 -23 -19 -14 -13 -11 -10 -10 -10 -10 -10 -10 -10 -11

GFSGL_850_dewp_087.txt.gz
Dewpoint
-1 -0 0 0 1 1 0 0 0 0 -0 0 0 2 7 9 9 9 9 8 7 8 8 7 4 3 1 2 3 3 3 2 4 4 3 3 2 2 2 3 2 2 2
1 1 1 1 1 1 2 2 1 1 2 2 2 2 4 7 8 8 8 8 8 8 8 5 1 0 1 1 2 2 3 3 3 3 3 2 2 2 2 2 1 1 1
1 1 1 1 0 0 1 1 1 1 1 2 2 2 2 3 3 4 4 3 2 1 0 -0 -0 1 1 2 2 2 2 3 3 2 2 1 1 1 1 1 0 0 0
1 1 0 -0 -0 -0 0 0 1 1 1 1 1 1 1 1 1 1 1 0 0 0 0 1 1 1 2 2 2 1 1 1 0 0 0 0 1 0 -0 -0 -1 -1 -3
1 0 0 0 0 0 1 1 1 1 1 1 1 1 1 1 1 1 1 1 1 2 2 2 1 1 1 0 -0 0 -0 -0 -0 -1 -1 -1 -1 -2 -4 -7 -11 -16 -19
1 1 1 1 1 1 1 1 1 2 2 2 2 2 1 2 2 2 2 2 3 2 2 1 1 0 -0 -1 -1 -1 -2 -4 -6 -6 -7 -8 -12 -15 -18 -20 -21 -22 -22
1 1 1 1 1 0 0 1 1 2 2 2 2 2 2 1 2 2 2 2 1 0 -0 -1 -1 -2 -4 -11 -21 -26 -26 -25 -25 -23 -23 -22 -21 -21 -21 -21 -22 -23 -24
1 1 1 1 0 0 1 1 1 1 2 2 1 1 0 -0 0 -0 -0 -1 -1 -2 -5 -14 -20 -25 -27 -28 -29 -29 -28 -28 -26 -25 -25 -24 -24 -24 -25 -24 -23 -22 -19
1 1 0 0 0 0 1 1 1 1 1 1 -0 -1 -1 -1 -1 -1 -4 -12 -22 -26 -27 -28 -28 -30 -30 -30 -30 -30 -29 -27 -26 -27 -27 -27 -25 -26 -22 -17 -14 -13 -13
1 0 0 0 0 0 1 0 -0 -1 -1 -1 -1 -1 -1 -5 -19 -23 -25 -27 -28 -29 -29 -29 -30 -29 -30 -30 -30 -29 -28 -27 -27 -26 -25 -24 -23 -20 -15 -14 -13 -13 -12
0 0 0 -0 -0 0 0 -0 -1 -2 -2 -2 -2 -3 -15 -23 -26 -28 -30 -30 -30 -30 -29 -28 -28 -29 -31 -29 -29 -28 -28 -28 -26 -24 -22 -19 -16 -14 -14 -13 -13 -13 -12
-0 0 -0 -0 -0 0 -0 -1 -2 -2 -2 -2 -6 -17 -22 -25 -28 -30 -30 -31 -31 -29 -28 -27 -27 -30 -30 -29 -28 -28 -28 -28 -23 -20 -17 -15 -14 -13 -13 -12 -12 -12 -12
0 0 -0 -0 -0 -0 -1 -1 -2 -2 -2 -6 -18 -20 -23 -26 -26 -28 -29 -30 -30 -29 -28 -29 -31 -30 -29 -28 -27 -28 -27 -24 -21 -17 -14 -14 -13 -13 -12 -12 -12 -11 -11
-0 0 -0 -0 -0 -0 -1 -1 -1 -2 -5 -17 -19 -22 -24 -25 -26 -26 -27 -27 -28 -29 -29 -29 -29 -28 -27 -27 -27 -26 -24 -22 -20 -17 -15 -14 -14 -13 -12 -12 -11 -11 -10
-0 -0 -1 -1 -1 -1 -1 -1 -2 -3 -14 -17 -20 -22 -24 -26 -27 -27 -27 -28 -28 -28 -29 -28 -27 -27 -27 -27 -27 -26 -25 -23 -21 -18 -15 -14 -13 -13 -12 -11 -11 -10 -10
-1 -1 -1 -1 -1 -1 -2 -2 -3 -9 -14 -18 -21 -23 -25 -27 -28 -28 -29 -29 -29 -29 -29 -28 -27 -27 -28 -28 -27 -27 -26 -26 -24 -20 -16 -14 -13 -12 -12 -11 -11 -10 -10
-1 -1 -1 -1 -1 -1 -1 -2 -3 -13 -17 -19 -21 -23 -26 -27 -29 -29 -29 -29 -29 -29 -29 -27 -28 -28 -28 -27 -27 -26 -26 -25 -24 -22 -19 -16 -14 -13 -12 -12 -11 -10 -10
-1 -1 -1 -1 -1 -1 -1 -2 -3 -13 -18 -20 -21 -23 -25 -27 -31 -30 -29 -29 -29 -29 -28 -28 -29 -29 -28 -27 -27 -26 -25 -24 -24 -22 -21 -19 -18 -17 -15 -14 -12 -11 -10
-1 -1 -1 -1 -1 -1 -1 -2 -4 -12 -17 -18 -19 -21 -23 -24 -28 -30 -30 -30 -29 -29 -29 -29 -29 -28 -28 -27 -26 -26 -25 -25 -24 -23 -23 -21 -21 -20 -20 -19 -17 -14 -12
-1 -1 -1 -1 -1 -1 -2 -2 -4 -12 -15 -16 -18 -20 -21 -22 -23 -25 -28 -30 -30 -30 -30 -29 -28 -28 -28 -27 -26 -26 -25 -25 -23 -23 -22 -21 -21 -20 -21 -20 -20 -19 -16
-1 -0 -1 -1 -1 -1 -2 -2 -3 -10 -15 -15 -16 -18 -19 -19 -20 -21 -22 -26 -29 -30 -30 -30 -29 -28 -28 -27 -26 -25 -25 -24 -23 -22 -21 -21 -21 -21 -20 -20 -20 -20 -19
0 -0 -1 -0 -0 -1 -1 -1 -2 -4 -12 -15 -16 -16 -16 -16 -17 -19 -21 -23 -24 -26 -29 -30 -30 -29 -28 -27 -26 -25 -25 -25 -23 -21 -20 -19 -18 -18 -18 -18 -18 -17 -17
1 0 0 -0 -0 -0 -1 -1 -1 -2 -3 -9 -15 -16 -16 -16 -16 -16 -17 -20 -22 -23 -25 -28 -29 -29 -29 -28 -27 -25 -24 -24 -24 -22 -19 -16 -14 -13 -13 -12 -12 -12 -13
1 1 0 -0 -0 -0 -0 -1 -1 -1 -1 -2 -4 -9 -14 -16 -16 -16 -16 -16 -19 -22 -22 -24 -26 -27 -27 -26 -27 -26 -25 -24 -23 -23 -19 -15 -13 -12 -11 -11 -11 -11 -11
-0 -0 -0 -0 -0 -0 -0 -1 -1 -1 -1 -1 -1 -1 -4 -10 -15 -16 -17 -17 -16 -18 -21 -22 -23 -19 -10 -7 -21 -26 -24 -23 -21 -23 -20 -16 -13 -12 -11 -10 -10 -10 -10
-1 -1 -1 -1 -1 -1 -1 -1 -1 -1 -1 -1 -1 -1 -1 -1 -2 -8 -12 -13 -17 -17 -17 -19 -21 -9 -4 -8 -27 -26 -24 -19 -19 -22 -21 -16 -14 -12 -10 -10 -10 -10 -10

GFSGL_850_dewp_090.txt.gz
Dewpoint
-1 -1 -1 -2 -2 -2 -2 -2 -2 -2 -2 -2 -2 -2 -1 -1 4 8 8 9 9 9 10 9 8 8 7 4 4 2 3 3 4 3 3 3 3 2 2 2 2 2 2
0 -0 0 1 1 1 1 1 1 1 1 1 1 1 2 3 7 8 9 9 9 9 8 8 8 6 3 0 1 2 2 3 3 3 3 3 2 2 2 2 2 2 1
1 2 1 1 1 1 1 1 1 1 1 1 1 2 2 3 5 7 7 7 8 8 8 7 5 1 -0 1 1 2 2 2 3 3 3 2 2 1 1 1 1 0 0
1 1 1 0 0 -0 -0 0 0 0 0 0 1 1 2 2 2 3 3 4 4 3 1 1 0 1 1 1 2 2 1 1 1 1 1 0 0 0 0 -0 -1 -1 -2
1 1 1 0 0 0 -0 -0 0 1 1 1 1 1 1 1 1 1 1 1 1 1 1 1 1 2 1 1 1 0 0 -0 -0 -0 -1 -1 -1 -1 -1 -3 -6 -10 -15
1 1 1 1 1 1 0 0 1 1 1 1 2 1 1 1 1 1 1 2 2 2 2 2 1 1 1 1 0 -1 -1 -1 -3 -4 -6 -6 -8 -12 -16 -19 -21 -22 -14
1 1 1 1 1 1 0 0 1 1 1 1 1 1 2 2 2 2 2 2 2 2 2 1 0 -0 -1 -2 -9 -15 -21 -25 -26 -26 -24 -23 -23 -23 -23 -22 -23 -23 -23
1 1 1 1 1 1 0 0 1 1 1 1 2 2 1 1 1 2 2 1 1 0 -0 -1 -2 -9 -21 -26 -26 -28 -29 -29 -29 -27 -27 -26 -26 -26 -26 -26 -24 -23 -21
1 1 1 1 1 0 0 0 1 1 1 1 1 1 -0 -0 -0 -1 -0 -1 -1 -2 -10 -22 -26 -28 -29 -30 -31 -30 -30 -28 -29 -30 -30 -30 -30 -29 -27 -22 -16 -14 -12
1 1 1 0 0 0 0 0 0 0 -0 -0 -1 -1 -1 -1 -1 -1 -3 -12 -22 -26 -27 -28 -30 -30 -29 -31 -31 -30 -29 -29 -29 -29 -28 -27 -27 -25 -19 -16 -14 -14 -13
1 1 0 0 0 -0 -0 0 0 -0 -1 -2 -2 -2 -1 -4 -14 -23 -24 -25 -27 -28 -28 -28 -28 -30 -31 -32 -31 -30 -29 -28 -28 -27 -24 -22 -19 -16 -15 -14 -14 -13 -13
1 0 -0 0 0 -0 -0 0 -0 -1 -1 -2 -2 -2 -8 -20 -24 -27 -30 -29 -28 -28 -28 -28 -27 -30 -32 -31 -31 -29 -29 -29 -26 -23 -20 -17 -15 -14 -14 -13 -13 -13 -12
0 -0 -0 -0 -0 -0 -0 -0 -1 -1 -2 -2 -2 -6 -16 -22 -25 -29 -29 -29 -30 -29 -28 -27 -29 -31 -30 -30 -29 -29 -29 -27 -23 -20 -17 -15 -14 -14 -14 -14 -13 -13 -12
-0 -0 -0 0 -0 -0 -0 -0 -1 -1 -2 -2 -3 -15 -20 -22 -25 -26 -27 -28 -29 -30 -29 -30 -30 -29 -28 -27 -28 -28 -26 -24 -22 -20 -17 -15 -15 -14 -14 -13 -13 -12 -12
-0 -0 -0 -0 -0 -0 -0 -1 -1 -1 -2 -2 -8 -18 -21 -24 -26 -25 -25 -25 -26 -27 -27 -28 -28 -27 -27 -27 -27 -27 -26 -24 -23 -21 -18 -16 -14 -14 -14 -13 -12 -12 -11
-0 -0 -0 -0 -1 -1 -1 -1 -2 -2 -2 -4 -16 -17 -21 -23 -25 -27 -27 -27 -28 -28 -29 -28 -27 -27 -27 -28 -28 -27 -26 -26 -25 -23 -21 -18 -16 -15 -14 -13 -13 -12 -11
-1 -1 -1 -1 -1 -1 -1 -1 -2 -2 -3 -12 -15 -18 -22 -23 -25 -27 -27 -28 -27 -28 -29 -28 -26 -27 -28 -28 -28 -27 -27 -26 -25 -24 -23 -21 -19 -18 -17 -16 -15 -14 -12
-0 -1 -1 -1 -1 -1 -1 -1 -2 -2 -3 -12 -16 -20 -22 -24 -26 -28 -28 -28 -28 -29 -29 -28 -26 -27 -28 -28 -27 -27 -26 -26 -26 -25 -24 -22 -21 -20 -20 -20 -20 -19 -16
-0 -0 -0 -1 -2 -1 -1 -2 -2 -2 -3 -10 -16 -19 -21 -22 -24 -26 -28 -29 -28 -28 -27 -27 -27 -28 -28 -27 -27 -26 -26 -25 -25 -25 -24 -23 -22 -22 -21 -21 -21 -20 -20
-0 -1 -1 -1 -1 -2 -2 -2 -2 -2 -2 -7 -15 -18 -19 -20 -21 -23 -26 -29 -30 -30 -28 -28 -28 -27 -27 -27 -27 -26 -25 -25 -24 -24 -24 -22 -22 -21 -21 -20 -20 -20 -20
1 0 -0 -0 -0 -1 -2 -2 -1 -1 -2 -4 -13 -16 -17 -19 -20 -21 -22 -23 -24 -26 -29 -29 -29 -29 -28 -28 -27 -27 -26 -24 -24 -24 -23 -22 -21 -20 -20 -19 -19 -19 -18
1 1 0 -0 -0 -1 -1 -1 -1 -1 -2 -2 -8 -14 -15 -15 -17 -18 -20 -20 -21 -22 -23 -26 -29 -29 -29 -28 -28 -27 -27 -25 -24 -24 -23 -22 -21 -19 -18 -17 -16 -15 -14
1 1 0 -0 -0 -0 -1 -1 -1 -1 -1 -1 -2 -6 -13 -15 -15 -15 -16 -17 -17 -18 -21 -22 -23 -26 -28 -29 -29 -29 -28 -26 -23 -23 -23 -22 -21 -19 -16 -14 -13 -12 -12
-0 0 0 -0 -0 -1 -0 -1 -1 -1 -1 -1 -1 -1 -2 -6 -12 -15 -16 -16 -16 -15 -16 -19 -22 -23 -25 -27 -28 -28 -26 -21 -24 -24 -22 -21 -21 -19 -16 -13 -12 -11 -10
-1 -1 -1 -1 -1 -1 -1 -1 -1 -1 -1 -1 -1 -1 -1 -1 -1 -4 -8 -14 -17 -17 -16 -16 -18 -21 -22 -18 -25 -20 -9 -5 -23 -24 -22 -19 -20 -20 -16 -14 -13 -11 -10
-2 -2 -2 -2 -2 -2 -2 -2 -2 -2 -2 -1 -1 -1 -1 -1 -1 -1 -1 -1 -7 -14 -15 -14 -11 -6 -11 -11 -21 -9 -4 -13 -26 -24 -19 -15 -19 -21 -18 -15 -12 -10 -10

GFSGL_850_dewp_093.txt.gz
Dewpoint
0 -1 -1 -1 -2 -2 -2 -2 -3 -3 -2 -2 -2 -2 -2 -2 -1 0 3 4 8 9 9 10 6 9 9 7 7 6 5 4 6 5 5 4 3 2 2 2 2 2 2
-1 -1 -0 -1 -1 -1 -1 -1 -0 -0 0 0 1 1 1 2 2 3 5 8 9 9 8 9 8 9 8 7 5 2 1 2 3 3 3 3 3 2 2 2 2 1 2
0 -0 -0 0 1 1 1 1 1 1 1 1 1 2 2 2 4 4 6 7 8 8 8 8 8 7 7 4 0 1 2 2 2 2 3 3 2 2 1 1 1 1 1
1 1 1 1 1 0 0 -0 -0 -0 -0 -0 0 1 1 2 3 4 6 7 7 7 7 7 7 5 1 0 1 1 2 2 2 2 2 1 1 0 0 0 -0 -1 -1
2 1 1 1 0 0 0 0 -0 -0 -0 0 0 1 1 1 1 2 2 3 3 4 3 2 1 1 1 1 1 1 1 0 0 0 -0 -0 -0 -1 -1 -2 -2 -4 -10
1 1 1 1 0 0 1 0 0 0 0 0 1 1 1 1 1 1 1 1 1 1 1 1 1 1 1 1 1 0 -0 -0 -1 -1 -2 -2 -4 -6 -9 -13 -19 -22 -16
1 1 1 1 1 1 1 1 0 0 0 0 1 1 1 1 1 1 1 1 2 2 2 2 2 1 1 0 -0 -1 -2 -6 -13 -18 -18 -17 -18 -23 -25 -25 -25 -25 -26
1 1 1 1 1 1 1 1 0 0 0 1 1 1 1 1 2 2 2 2 2 2 2 1 0 -0 -1 -3 -13 -25 -27 -28 -29 -28 -27 -26 -27 -26 -27 -27 -27 -27 -26
2 2 1 1 1 1 1 1 0 0 1 1 1 1 1 1 1 1 2 1 1 1 0 -1 -1 -7 -20 -27 -29 -30 -31 -31 -30 -30 -29 -29 -30 -31 -30 -27 -22 -19 -15
2 2 1 1 1 1 0 0 0 0 1 1 0 -0 0 -1 -1 -1 -1 -1 -1 -1 -3 -13 -25 -28 -28 -30 -32 -31 -30 -29 -29 -28 -29 -30 -29 -27 -25 -21 -17 -16 -15
2 2 1 1 1 0 0 0 -0 0 0 0 -0 -1 -1 -1 -1 -1 -2 -4 -11 -22 -25 -26 -27 -29 -29 -31 -33 -30 -29 -29 -29 -28 -27 -26 -24 -21 -18 -16 -16 -15 -15
2 1 1 1 0 0 0 -0 -0 0 0 -1 -1 -2 -2 -2 -3 -11 -21 -23 -24 -24 -26 -26 -26 -27 -30 -33 -32 -31 -29 -30 -27 -25 -24 -22 -19 -17 -16 -15 -15 -14 -14
2 1 1 0 -0 -0 0 -0 -0 -0 -0 -1 -2 -2 -2 -5 -16 -23 -26 -29 -27 -27 -26 -26 -27 -28 -31 -31 -31 -29 -29 -28 -25 -23 -21 -19 -17 -16 -15 -15 -15 -14 -14
1 0 0 -0 -0 0 -0 -0 -0 0 -0 -1 -2 -2 -2 -8 -19 -24 -28 -28 -28 -29 -27 -27 -28 -30 -30 -29 -28 -29 -28 -26 -24 -23 -21 -20 -17 -16 -16 -15 -15 -14 -14
-0 -0 -0 -0 -0 -0 -0 -0 0 -0 -1 -1 -2 -2 -3 -14 -21 -23 -24 -24 -25 -27 -27 -28 -28 -29 -28 -28 -27 -27 -26 -25 -25 -24 -23 -21 -18 -17 -16 -16 -15 -14 -13
0 -0 -0 -0 -0 -0 -0 -0 -0 -1 -2 -2 -3 -2 -5 -17 -20 -22 -23 -22 -23 -24 -26 -27 -27 -27 -27 -27 -27 -27 -26 -26 -26 -25 -24 -22 -20 -19 -18 -17 -16 -15 -14
1 -0 -1 -1 -0 -0 -1 -0 -1 -1 -2 -2 -3 -3 -12 -17 -19 -21 -23 -25 -25 -25 -27 -27 -28 -27 -26 -27 -28 -28 -27 -26 -26 -26 -25 -24 -23 -22 -21 -20 -19 -18 -17
1 0 -0 -0 -0 -1 -1 -1 -1 -2 -2 -2 -2 -4 -15 -16 -20 -22 -24 -24 -25 -26 -28 -27 -28 -27 -26 -27 -27 -27 -27 -26 -25 -25 -25 -24 -24 -23 -22 -22 -21 -21 -21
1 0 0 -0 -0 -1 -2 -2 -2 -2 -2 -2 -2 -5 -14 -17 -20 -21 -23 -24 -26 -28 -28 -27 -27 -27 -26 -27 -27 -27 -27 -26 -25 -25 -24 -24 -23 -23 -22 -21 -21 -20 -19
2 1 1 -0 -0 -1 -1 -2 -2 -2 -2 -2 -2 -2 -12 -16 -19 -21 -23 -25 -28 -30 -30 -28 -28 -27 -27 -27 -27 -27 -27 -27 -26 -24 -24 -24 -23 -23 -22 -21 -20 -20 -19
1 1 0 0 0 -0 -1 -1 -2 -2 -2 -2 -1 -1 -4 -14 -18 -19 -21 -22 -23 -24 -27 -28 -29 -29 -28 -28 -27 -27 -27 -27 -26 -25 -23 -23 -23 -23 -22 -20 -20 -19 -18
1 1 0 0 0 -0 -0 -1 -1 -2 -2 -2 -1 -1 -1 -5 -13 -16 -18 -19 -21 -21 -22 -22 -22 -24 -27 -29 -28 -28 -28 -27 -27 -26 -24 -23 -22 -22 -21 -20 -19 -18 -16
0 0 0 -0 -0 -0 -0 -1 -1 -1 -1 -2 -2 -2 -1 -1 -5 -13 -15 -16 -16 -18 -18 -19 -19 -20 -22 -24 -26 -28 -28 -28 -28 -26 -24 -20 -20 -23 -21 -20 -20 -17 -15
-1 -0 -0 -0 -0 -0 -0 -0 -1 -1 -1 -1 -2 -2 -2 -2 -1 -2 -7 -13 -15 -15 -15 -16 -16 -16 -17 -21 -22 -24 -27 -28 -28 -27 -23 -9 -13 -23 -20 -19 -20 -18 -15
-2 -1 -1 -1 -1 -1 -1 -1 -1 -1 -1 -1 -2 -2 -2 -2 -2 -2 -1 -1 -2 -7 -10 -14 -16 -16 -15 -16 -20 -22 -19 -26 -27 -25 -11 -4 -17 -23 -20 -18 -19 -19 -15
-4 -3 -2 -2 -2 -2 -3 -3 -2 -2 -2 -2 -2 -2 -2 -2 -2 -2 -2 -2 -2 -2 -1 -2 -5 -12 -16 -15 -15 -16 -9 -12 -12 -18 -5 -8 -24 -23 -19 -17 -19 -19 -16

GFSGL_850_dewp_096.txt.gz
Dewpoint
2 2 2 0 1 2 3 2 -0 -1 -2 -3 -2 -2 -2 -2 -1 -1 -1 0 3 6 9 10 6 9 9 9 8 9 7 7 6 6 6 5 4 3 2 2 2 2 2
3 3 2 2 -0 -1 -2 -2 -2 -2 -2 -1 -0 -0 0 0 1 1 2 6 8 8 8 8 8 8 8 8 8 8 7 3 2 4 4 4 3 2 2 2 2 2 2
3 3 3 1 -0 -1 -1 -1 -1 -0 0 0 1 1 1 1 2 2 4 5 7 7 7 8 8 8 8 7 6 6 0 0 1 2 3 2 2 2 2 2 1 1 1
0 -0 -0 0 -0 -0 0 0 0 -0 -0 -1 -1 -0 -0 0 1 2 3 5 6 6 7 7 6 6 6 6 5 0 1 1 1 2 2 2 2 2 1 0 0 -0 -1
1 1 1 1 1 0 0 -0 -0 0 -0 -0 -0 -1 -0 -0 0 1 2 2 4 5 5 5 5 6 5 2 1 1 1 1 1 1 1 0 0 -0 -0 -1 -1 -2 -5
2 1 1 1 1 0 0 0 0 0 0 0 0 -0 0 0 1 1 1 2 2 2 2 2 2 1 1 1 1 1 1 0 -0 -0 -0 -1 -1 -4 -4 -5 -6 -11 -21
1 1 1 1 1 1 1 1 1 1 1 0 0 0 1 1 1 1 1 1 1 1 1 2 2 1 2 1 1 1 0 -0 -1 -2 -3 -9 -13 -16 -18 -21 -24 -25 -26
1 1 1 1 1 1 1 1 1 1 0 0 0 0 1 1 1 1 1 2 2 2 2 2 2 1 1 1 -0 -1 -2 -6 -13 -18 -24 -25 -25 -25 -27 -27 -28 -28 -28
2 2 1 1 1 1 1 1 1 1 0 0 0 0 1 1 1 1 1 1 1 1 1 1 1 0 -1 -1 -8 -22 -27 -26 -27 -29 -28 -29 -29 -30 -30 -30 -30 -26 -23
2 2 2 2 1 1 1 1 1 0 0 0 0 0 0 0 0 -0 0 0 0 0 1 0 -1 -2 -11 -24 -27 -28 -29 -28 -28 -29 -31 -33 -33 -32 -32 -30 -24 -19 -17
2 2 2 2 1 1 1 1 0 0 0 0 0 0 -0 -1 -1 -1 -1 -1 -1 -1 -1 -4 -14 -24 -27 -28 -30 -29 -29 -27 -27 -28 -30 -29 -28 -27 -24 -20 -17 -17 -16
2 2 2 1 1 1 1 0 0 0 -0 0 0 -0 -1 -1 -2 -2 -2 -2 -5 -13 -20 -23 -23 -26 -27 -28 -30 -32 -29 -29 -28 -29 -28 -26 -24 -21 -18 -17 -16 -16 -15
2 2 2 1 1 1 0 -0 0 -0 0 0 -0 -0 -1 -2 -2 -2 -7 -19 -22 -23 -23 -24 -26 -25 -26 -30 -32 -31 -30 -30 -29 -27 -26 -24 -21 -18 -17 -16 -16 -16 -16
2 1 1 0 0 -0 -0 -0 0 -0 -0 0 -0 -1 -1 -2 -2 -9 -19 -23 -28 -27 -26 -26 -26 -25 -26 -30 -30 -31 -29 -28 -27 -26 -25 -23 -20 -18 -17 -17 -16 -16 -16
1 0 0 -0 -0 -0 -0 -0 -0 -0 -0 -1 -1 -1 -2 -2 -2 -11 -19 -23 -25 -25 -26 -27 -26 -27 -29 -29 -28 -27 -27 -27 -26 -25 -25 -24 -21 -20 -19 -18 -18 -18 -17
0 0 0 0 -0 -0 -0 -0 -0 -0 -0 -1 -2 -2 -2 -3 -5 -15 -19 -21 -21 -20 -22 -25 -26 -26 -27 -27 -26 -26 -27 -26 -26 -26 -25 -24 -24 -23 -21 -22 -22 -21 -20
1 0 1 0 -0 -0 -1 -1 -1 -1 -1 -1 -2 -2 -3 -3 -6 -16 -19 -21 -21 -22 -25 -25 -26 -27 -27 -26 -26 -27 -28 -28 -27 -26 -26 -25 -25 -24 -23 -23 -22 -22 -22
1 1 1 1 0 0 0 -0 -1 -1 -2 -1 -2 -2 -3 -3 -8 -16 -18 -20 -22 -23 -27 -27 -28 -28 -28 -27 -26 -27 -28 -28 -28 -26 -26 -25 -25 -24 -24 -23 -23 -22 -22
1 1 1 1 0 0 0 -0 -1 -2 -2 -2 -2 -2 -2 -2 -6 -15 -16 -20 -22 -24 -27 -28 -28 -28 -28 -27 -26 -26 -28 -28 -28 -27 -26 -25 -24 -24 -24 -23 -22 -22 -21
1 1 1 1 1 0 -0 -0 -1 -2 -2 -2 -2 -2 -2 -2 -6 -14 -16 -20 -22 -25 -27 -29 -30 -28 -27 -26 -26 -27 -27 -27 -27 -27 -26 -25 -24 -24 -23 -23 -22 -21 -20
0 0 0 0 1 0 -0 -1 -1 -1 -2 -2 -2 -2 -2 -2 -3 -10 -15 -18 -20 -21 -23 -24 -26 -29 -29 -28 -27 -27 -27 -27 -27 -27 -27 -26 -24 -23 -23 -23 -22 -21 -20
-1 -0 -0 -0 -0 -0 -0 -1 -1 -1 -1 -1 -2 -2 -2 -2 -2 -2 -5 -12 -17 -18 -19 -20 -21 -22 -23 -24 -26 -27 -28 -28 -28 -28 -27 -26 -25 -23 -23 -21 -21 -21 -20
-1 -1 -1 -1 -1 -1 -1 -1 -1 -1 -1 -1 -1 -1 -2 -2 -2 -2 -1 -2 -5 -13 -16 -16 -18 -19 -20 -20 -20 -21 -23 -26 -28 -28 -27 -27 -26 -24 -21 -17 -22 -21 -19
-2 -2 -1 -1 -1 -1 -1 -1 -1 -1 -1 -1 -1 -2 -2 -2 -2 -2 -2 -2 -1 -2 -8 -12 -14 -15 -15 -16 -16 -17 -18 -21 -23 -26 -27 -27 -27 -25 -16 -8 -14 -22 -19
-11 -5 -3 -2 -2 -2 -2 -3 -3 -2 -2 -2 -2 -2 -2 -2 -2 -2 -2 -2 -2 -2 -2 -2 -3 -9 -14 -15 -15 -16 -15 -16 -21 -23 -26 -23 -27 -26 -10 -5 -15 -22 -19
-18 -18 -16 -12 -7 -4 -4 -4 -4 -4 -4 -4 -4 -3 -3 -3 -3 -3 -2 -2 -2 -2 -2 -2 -2 -2 -2 -3 -7 -13 -15 -15 -16 -21 -14 -9 -25 -17 -8 -5 -17 -15 -19

GFSGL_850_dewp_099.txt.gz
Dewpoint
1 -0 0 3 5 5 6 6 6 6 6 5 3 -1 -2 -3 -3 -3 -3 -3 -3 -2 1 6 9 7 10 9 9 7 8 8 8 8 7 6 5 4 3 2 2 2 2
1 1 1 2 2 1 1 -1 -1 -1 -1 -2 -2 -1 -1 -1 -1 -0 0 0 -0 -0 3 5 7 8 6 7 8 9 8 8 8 6 6 5 4 3 2 2 2 2 2
2 2 3 2 2 2 2 2 1 -1 -1 -1 -0 0 0 1 1 1 1 2 3 4 5 7 7 7 7 7 8 7 7 7 5 2 3 3 3 2 2 1 1 1 1
4 4 3 2 2 2 1 -0 -0 0 0 -0 -0 -1 -1 -1 -0 0 0 2 3 5 6 6 6 7 7 7 7 6 6 4 1 1 2 3 2 2 1 1 1 0 -0
2 2 1 1 0 -0 -1 0 0 -0 -0 -0 -0 -0 -0 -0 -1 -1 0 0 2 3 5 5 5 5 5 5 5 5 3 1 1 1 2 2 2 2 1 0 -0 -1 -2
1 1 1 1 1 0 0 0 0 0 0 0 0 0 0 0 0 0 0 1 1 2 3 4 4 4 5 5 4 1 1 1 1 1 1 1 0 0 -1 -1 -2 -4 -8
1 1 1 1 1 1 0 1 1 1 1 1 1 0 0 0 -0 0 1 1 1 1 2 2 2 2 1 1 1 1 1 1 0 -0 -0 -1 -2 -3 -6 -7 -8 -12 -23
2 1 1 1 1 1 1 1 1 1 1 1 0 0 0 0 -0 0 1 1 1 1 2 2 2 2 2 2 1 1 0 0 -0 -1 -2 -5 -12 -13 -18 -20 -23 -25 -27
2 1 1 1 1 1 1 1 1 1 1 1 1 0 0 -0 -0 0 1 1 1 1 1 1 1 2 1 1 1 -0 -1 -2 -7 -17 -20 -25 -24 -23 -24 -26 -29 -29 -30
2 2 2 1 1 1 1 1 1 1 1 1 0 0 0 -0 -0 0 1 -0 0 0 0 0 1 0 -0 -1 -1 -7 -21 -25 -26 -27 -27 -30 -29 -29 -30 -31 -30 -29 -23
2 2 2 2 2 2 2 1 1 1 0 0 0 0 0 0 -0 -0 -1 -1 -1 -1 -1 -0 -1 -1 -4 -14 -21 -26 -26 -27 -27 -26 -28 -30 -30 -30 -29 -29 -24 -20 -18
2 2 2 2 2 2 1 1 0 0 0 0 -0 0 -0 -0 -1 -1 -2 -2 -2 -2 -2 -3 -8 -16 -22 -24 -27 -29 -29 -27 -25 -27 -28 -27 -26 -26 -23 -20 -18 -17 -17
2 2 2 2 2 1 1 0 0 -0 0 0 0 0 -1 -1 -1 -1 -2 -2 -3 -10 -16 -19 -20 -21 -22 -24 -27 -28 -30 -28 -27 -27 -27 -25 -24 -21 -19 -18 -17 -17 -17
2 2 2 1 1 0 0 -0 -0 -0 0 -0 -0 -0 -0 -1 -1 -2 -2 -8 -17 -22 -24 -24 -23 -23 -24 -23 -27 -29 -29 -28 -27 -26 -24 -24 -23 -20 -19 -19 -18 -17 -17
1 1 1 0 0 0 0 -0 -0 -0 -0 -0 0 -0 -1 -1 -1 -2 -3 -12 -17 -22 -24 -24 -24 -25 -25 -24 -26 -27 -28 -27 -26 -24 -25 -25 -23 -22 -21 -20 -20 -20 -20
1 0 1 0 1 0 0 -0 -0 -0 -0 -0 -0 -0 -1 -2 -2 -2 -5 -15 -18 -19 -21 -24 -25 -26 -24 -25 -25 -25 -26 -25 -24 -23 -25 -25 -24 -23 -22 -22 -22 -23 -22
0 1 1 1 1 0 0 0 1 0 -1 -1 -1 -2 -2 -2 -3 -3 -8 -17 -19 -20 -22 -21 -22 -23 -24 -24 -25 -25 -25 -25 -23 -24 -25 -25 -25 -25 -24 -24 -24 -23 -23
0 0 0 1 1 1 1 0 0 0 -1 -1 -2 -2 -2 -3 -3 -3 -7 -15 -18 -17 -21 -24 -24 -24 -25 -26 -27 -26 -26 -26 -27 -27 -26 -25 -25 -25 -25 -24 -24 -23 -22
1 1 1 0 0 1 0 0 -0 -0 -1 -1 -2 -2 -2 -3 -3 -4 -5 -14 -16 -19 -21 -23 -25 -25 -25 -26 -27 -27 -26 -26 -27 -27 -27 -26 -25 -24 -23 -23 -23 -23 -22
-1 0 0 0 0 0 0 -0 -0 -1 -1 -1 -2 -2 -2 -3 -3 -3 -3 -10 -14 -16 -20 -22 -24 -25 -27 -27 -26 -25 -25 -25 -26 -27 -27 -27 -26 -25 -24 -23 -23 -23 -22
-2 -1 -0 -0 -0 -0 -0 -0 -1 -1 -1 -1 -1 -1 -2 -3 -3 -3 -2 -3 -10 -14 -16 -19 -20 -22 -24 -27 -27 -26 -25 -26 -26 -27 -27 -27 -27 -26 -25 -24 -23 -22 -21
-1 -1 -1 -1 -1 -1 -1 -1 -1 -1 -1 -1 -1 -1 -2 -2 -2 -2 -2 -2 -2 -5 -11 -15 -17 -19 -20 -21 -23 -25 -26 -27 -27 -28 -28 -28 -27 -26 -26 -25 -23 -22 -20
-2 -2 -2 -1 -1 -1 -1 -1 -2 -2 -2 -1 -1 -1 -1 -2 -2 -2 -2 -2 -2 -1 -1 -2 -6 -13 -16 -18 -19 -20 -21 -22 -23 -25 -27 -27 -27 -27 -26 -26 -25 -23 -17
-18 -12 -5 -3 -2 -2 -2 -2 -2 -2 -3 -3 -2 -2 -2 -2 -2 -2 -2 -2 -2 -2 -2 -2 -2 -2 -8 -14 -15 -15 -17 -18 -19 -19 -21 -23 -26 -25 -17 -26 -26 -23 -14
-19 -19 -19 -19 -16 -10 -5 -4 -4 -4 -4 -4 -4 -4 -4 -3 -3 -3 -2 -2 -2 -2 -2 -2 -2 -2 -2 -2 -6 -12 -15 -15 -15 -15 -16 -18 -21 -23 -14 -20 -22 -24 -11
-18 -18 -18 -18 -18 -18 -18 -17 -15 -11 -7 -6 -5 -5 -5 -5 -5 -4 -4 -4 -4 -3 -3 -3 -3 -3 -3 -3 -2 -2 -2 -6 -13 -14 -13 -14 -17 -21 -24 -22 -11 -18 -12

GFSGL_850_dewp_102.txt.gz
Dewpoint
9 9 7 7 6 6 6 5 6 6 6 7 8 8 8 7 4 0 -2 -2 -2 -2 -2 -2 -1 5 7 8 8 9 8 8 9 8 8 8 7 6 5 4 3 2 3
3 3 3 4 5 5 7 6 3 3 1 -1 1 -0 -1 -2 -1 -1 -1 -1 -0 -0 0 0 1 4 6 7 7 8 8 8 7 8 8 7 6 5 4 3 2 2 2
1 1 1 2 3 2 2 1 1 0 1 -1 -1 -1 0 0 0 0 0 0 0 1 2 2 4 5 7 6 6 8 7 8 8 7 6 6 5 4 3 2 1 1 1
2 2 2 2 2 1 1 1 1 1 0 -1 -1 -0 -1 -1 -1 -1 -1 -1 -0 -0 1 5 6 6 7 7 7 7 7 7 6 6 4 3 3 3 2 1 1 1 1
3 3 3 3 3 3 2 1 0 0 -0 -0 -0 -0 0 0 0 0 -0 -0 -0 1 0 2 4 5 5 6 6 6 6 5 5 4 2 2 2 2 1 1 1 1 -0
3 3 3 3 2 1 1 1 0 0 -0 0 0 0 0 0 0 0 -0 -0 0 0 1 2 3 4 4 4 4 4 4 5 2 1 2 2 2 1 1 1 1 -0 -2
2 1 1 1 1 1 1 0 0 0 0 0 1 1 0 0 0 0 -0 -1 0 1 1 2 2 3 3 3 3 3 3 2 1 1 1 1 1 1 1 -0 -1 -2 -4
1 1 1 1 1 1 1 1 1 1 1 1 1 1 1 0 0 0 -0 -1 0 1 1 1 2 2 2 2 2 1 2 2 1 1 0 -0 -1 -2 -3 -4 -5 -8 -12
2 2 1 1 1 1 1 1 1 1 1 1 1 1 1 0 0 0 -1 -1 1 1 0 0 1 1 1 1 1 1 1 0 0 -0 -0 -1 -4 -11 -13 -16 -19 -22 -23
2 2 1 1 1 1 1 1 1 1 1 1 1 1 0 0 0 -0 -1 -1 0 0 0 0 0 0 0 1 0 -1 -1 -2 -5 -12 -16 -22 -24 -25 -24 -25 -25 -27 -27
2 2 2 2 2 1 1 2 1 1 1 1 0 0 0 0 0 -0 -0 -1 -1 -1 -0 -0 -0 -0 -1 -1 -1 -3 -10 -18 -22 -24 -25 -24 -27 -27 -28 -30 -29 -27 -23
2 2 2 2 2 2 2 2 1 1 1 0 -0 0 0 -0 -0 -1 -2 -1 -2 -1 -1 -1 -1 -2 -3 -8 -17 -21 -23 -23 -23 -23 -25 -26 -27 -28 -27 -27 -24 -19 -18
2 2 2 2 2 2 2 1 1 0 -0 -0 0 0 -0 -1 -1 -1 -1 -2 -2 -2 -3 -5 -8 -13 -18 -20 -22 -24 -25 -26 -23 -22 -24 -25 -24 -24 -23 -21 -18 -17 -17
2 2 2 2 2 2 1 1 0 0 -0 -0 -0 -0 -0 -0 -1 -1 -1 -2 -2 -2 -11 -19 -19 -19 -20 -20 -21 -23 -25 -25 -24 -23 -23 -23 -22 -22 -20 -18 -17 -17 -17
2 2 2 1 1 1 0 0 0 -0 -0 -0 -0 -0 -0 -0 -1 -2 -2 -3 -3 -12 -17 -21 -23 -23 -22 -22 -22 -22 -26 -26 -26 -24 -23 -23 -22 -21 -19 -19 -18 -18 -18
1 1 0 0 0 0 0 0 0 1 1 0 -0 -0 -0 -1 -2 -2 -2 -3 -5 -14 -17 -22 -23 -24 -24 -23 -22 -22 -24 -25 -25 -23 -24 -23 -23 -22 -20 -20 -20 -20 -21
1 0 0 0 0 0 0 1 1 1 1 1 0 -1 -1 -1 -2 -3 -3 -3 -9 -14 -17 -19 -19 -20 -23 -24 -23 -23 -24 -23 -23 -23 -22 -22 -23 -22 -20 -21 -22 -23 -23
-0 1 0 0 0 0 0 0 0 0 0 0 -0 -1 -2 -2 -2 -3 -3 -3 -7 -13 -16 -16 -21 -21 -21 -22 -23 -24 -25 -24 -23 -24 -23 -23 -23 -23 -22 -24 -24 -23 -23
-2 -1 0 0 0 0 -0 0 -0 0 -0 -0 -0 -1 -2 -2 -2 -4 -4 -4 -4 -4 -12 -18 -20 -20 -21 -22 -23 -25 -26 -25 -24 -24 -25 -25 -25 -24 -24 -24 -23 -23 -22
-2 -2 -1 -0 -0 -0 -0 -0 -0 -0 -0 -0 -1 -1 -1 -2 -3 -3 -3 -3 -4 -4 -10 -16 -18 -20 -22 -22 -23 -24 -24 -25 -26 -25 -25 -26 -26 -25 -25 -24 -23 -23 -23
-2 -2 -2 -1 -1 -0 -0 -1 -1 -1 -1 -1 -1 -1 -1 -2 -2 -2 -3 -3 -3 -3 -4 -7 -13 -15 -18 -20 -21 -23 -25 -25 -24 -24 -24 -25 -26 -26 -26 -26 -24 -23 -23
-2 -2 -2 -1 -1 -1 -1 -1 -1 -1 -1 -1 -1 -1 -2 -2 -2 -2 -2 -2 -3 -3 -2 -2 -3 -8 -14 -16 -18 -19 -21 -24 -26 -24 -24 -25 -25 -26 -26 -25 -25 -24 -23
-14 -10 -6 -2 -2 -2 -2 -2 -2 -2 -2 -2 -2 -2 -2 -2 -2 -2 -2 -2 -2 -3 -3 -3 -2 -2 -2 -4 -11 -16 -18 -20 -21 -23 -23 -24 -25 -25 -25 -25 -25 -25 -25
-20 -20 -20 -19 -16 -7 -4 -3 -3 -3 -3 -3 -3 -3 -3 -3 -3 -3 -2 -2 -2 -2 -2 -3 -3 -3 -2 -2 -2 -4 -11 -16 -17 -18 -19 -19 -20 -21 -23 -24 -24 -24 -10
-18 -18 -18 -19 -19 -19 -19 -17 -15 -11 -7 -6 -6 -5 -5 -5 -4 -4 -4 -4 -4 -3 -3 -3 -3 -3 -3 -3 -3 -3 -2 -3 -10 -14 -14 -15 -17 -17 -18 -21 -22 -22 -6
-17 -17 -17 -17 -16 -16 -17 -17 -17 -17 -16 -15 -11 -7 -8 -7 -6 -6 -6 -6 -5 -5 -4 -4 -4 -4 -4 -4 -3 -3 -3 -3 -3 -4 -8 -13 -13 -14 -14 -16 -18 -18 -7

GFSGL_850_dewp_105.txt.gz
Dewpoint
7 7 9 10 10 8 7 7 7 6 6 6 6 7 6 7 7 7 5 2 -1 -2 -2 -1 -0 -0 -1 1 9 8 9 10 9 9 8 8 8 7 7 6 5 4 3
5 7 9 9 7 6 6 6 6 6 7 7 4 2 1 0 -1 -1 -1 -1 -0 0 0 0 1 2 2 7 7 7 8 8 8 8 8 8 8 7 6 5 4 3 2
4 7 8 9 8 8 7 6 7 8 5 1 -0 -0 -1 -1 -1 -0 -0 -1 -1 -1 -0 0 1 2 4 6 7 7 7 7 7 7 7 7 7 6 5 4 3 1 1
3 3 3 3 3 4 5 6 4 1 1 1 1 -0 -0 -1 -1 -1 -0 -0 -0 -0 -0 -0 0 2 4 6 6 6 6 7 7 6 6 6 5 5 4 3 2 1 1
2 2 2 2 2 2 2 1 1 2 1 0 -0 -0 -0 -0 0 0 0 0 -0 -0 -0 0 0 1 3 4 5 6 6 6 6 6 5 5 5 3 2 2 2 1 0
3 3 3 3 2 2 3 3 2 0 0 -0 0 0 0 0 0 0 0 0 -0 -1 -1 -0 1 1 3 3 3 4 4 5 4 4 4 4 1 2 2 2 1 1 0
3 3 3 3 3 3 1 1 1 0 0 0 0 1 1 1 1 0 0 0 0 -1 -1 -0 1 1 2 2 2 3 3 3 3 3 3 2 2 2 2 1 1 1 0
2 2 1 1 1 1 1 1 0 0 1 1 1 1 1 1 1 1 1 0 0 -1 -1 -0 0 1 1 1 1 2 2 1 1 2 2 1 1 1 1 1 0 -0 -1
1 1 1 1 1 1 1 1 1 1 1 1 1 1 1 1 1 0 0 0 -0 -1 -1 0 0 -0 -0 -0 -0 1 0 0 1 1 1 0 -0 -1 -1 -2 -3 -4 -6
2 2 2 1 1 1 1 1 1 1 1 1 1 1 1 1 0 0 0 -0 -0 -1 -1 -0 0 -0 -0 -0 -0 -0 -0 -0 -0 -0 -0 -1 -1 -2 -6 -10 -11 -13 -16
2 2 2 1 1 1 1 1 1 2 2 1 1 1 0 0 0 0 -0 -0 -1 -1 -1 -1 -1 -1 -1 -1 -1 -1 -2 -4 -9 -14 -19 -19 -17 -17 -17 -18 -21 -22 -23
2 2 2 2 2 2 2 2 2 2 1 1 0 0 -0 0 0 -1 -1 -1 -1 -1 -1 -1 -2 -2 -2 -2 -2 -7 -10 -13 -17 -19 -21 -23 -23 -21 -24 -25 -26 -26 -26
2 2 2 2 2 2 2 2 2 1 1 0 0 -0 -0 0 -0 -0 -0 -1 -1 -1 -2 -2 -2 -3 -5 -8 -13 -18 -20 -22 -22 -21 -21 -22 -23 -23 -24 -25 -24 -23 -19
3 2 2 2 2 2 2 2 1 1 0 0 -0 -0 -0 -0 0 -0 -0 -1 -1 -2 -2 -3 -8 -15 -17 -17 -17 -18 -21 -23 -21 -20 -18 -19 -21 -23 -22 -21 -19 -18 -16
2 2 2 2 2 2 2 1 0 0 0 0 1 0 0 0 -0 -0 -1 -1 -1 -2 -3 -7 -16 -20 -22 -21 -20 -19 -20 -20 -22 -20 -20 -20 -21 -21 -20 -19 -17 -17 -17
1 1 1 1 1 1 0 0 1 1 1 1 1 1 0 0 -0 -1 -1 -2 -2 -3 -3 -9 -16 -18 -21 -22 -21 -19 -19 -20 -22 -23 -21 -21 -21 -20 -19 -18 -18 -17 -18
0 1 1 0 0 0 1 0 0 0 1 1 1 1 0 -0 -1 -2 -2 -2 -3 -3 -4 -8 -13 -10 -18 -20 -22 -21 -21 -21 -20 -20 -20 -21 -21 -21 -19 -19 -18 -18 -20
-2 -1 -1 0 0 0 0 0 0 0 1 1 1 0 0 -0 -1 -2 -3 -3 -3 -3 -4 -8 -14 -13 -17 -18 -18 -19 -21 -21 -21 -20 -20 -21 -20 -19 -19 -20 -20 -20 -22
-2 -2 -2 -2 -1 -0 -0 0 0 0 0 0 0 0 -0 -0 -1 -2 -3 -3 -3 -4 -4 -4 -7 -12 -16 -16 -18 -19 -20 -21 -22 -22 -22 -22 -21 -19 -20 -21 -21 -22 -23
-2 -2 -2 -2 -2 -1 -1 -0 -0 -0 -0 -0 -0 -0 -0 -1 -1 -2 -2 -3 -3 -3 -3 -4 -4 -6 -15 -16 -17 -19 -20 -20 -21 -23 -24 -23 -23 -22 -22 -23 -23 -22 -22
-2 -2 -2 -2 -2 -2 -1 -1 -1 -1 -1 -1 -1 -1 -1 -1 -1 -1 -2 -2 -2 -3 -3 -3 -3 -3 -6 -9 -13 -16 -18 -20 -22 -23 -23 -23 -23 -23 -24 -25 -25 -24 -23
-6 -5 -3 -2 -2 -2 -2 -2 -2 -2 -2 -2 -1 -1 -2 -2 -1 -1 -2 -2 -2 -2 -2 -3 -3 -3 -3 -3 -5 -10 -14 -17 -19 -22 -24 -24 -22 -22 -22 -23 -24 -24 -24
-20 -20 -19 -17 -11 -4 -3 -3 -3 -3 -3 -3 -2 -2 -3 -3 -3 -3 -3 -2 -2 -2 -2 -3 -3 -3 -3 -3 -2 -2 -4 -11 -16 -17 -18 -20 -22 -22 -21 -22 -23 -24 -24
-20 -20 -19 -19 -19 -19 -18 -15 -8 -5 -4 -4 -4 -4 -4 -4 -4 -4 -4 -4 -4 -4 -4 -3 -3 -3 -3 -3 -3 -3 -2 -2 -3 -8 -14 -16 -18 -19 -19 -20 -22 -22 -23
-18 -18 -18 -18 -18 -18 -18 -18 -18 -18 -17 -16 -14 -9 -7 -7 -6 -6 -6 -6 -6 -5 -5 -5 -5 -4 -4 -4 -4 -4 -3 -3 -3 -3 -3 -7 -13 -15 -16 -17 -17 -18 -20
-12 -13 -15 -16 -16 -16 -16 -16 -16 -16 -16 -15 -15 -15 -15 -15 -11 -9 -9 -8 -8 -7 -6 -6 -6 -6 -5 -5 -5 -5 -5 -4 -4 -4 -4 -4 -4 -6 -11 -13 -14 -15 -16

GFSGL_850_dewp_108.txt.gz
Dewpoint
5 5 7 7 8 9 9 9 8 8 7 6 6 5 6 7 6 6 5 3 1 -1 -1 -1 -1 0 1 1 1 2 4 8 8 9 8 8 8 8 7 7 7 6 5
5 6 6 8 9 9 9 8 7 7 6 6 6 6 3 1 -0 -1 -1 -1 -1 -0 -0 -1 -0 -0 1 2 2 7 7 7 7 7 7 7 8 7 7 6 6 5 5
6 5 5 9 9 9 8 7 7 7 7 7 7 2 -0 0 -0 -0 -1 -1 -1 -1 -1 -0 -0 -0 -0 0 2 5 6 7 7 7 7 7 7 7 6 6 5 4 3
5 5 6 8 9 8 8 8 7 7 7 4 1 1 1 -0 -1 -1 -0 -0 0 -0 -0 -1 -1 -0 0 1 3 4 6 6 6 6 6 6 6 6 6 5 4 3 2
3 3 4 4 5 5 5 5 5 3 1 1 1 0 -0 -0 -0 0 0 0 0 -0 -0 -0 -0 -0 -0 1 2 3 4 5 5 5 5 5 5 5 5 5 3 2 2
3 2 2 2 2 3 3 2 1 2 2 1 -0 -0 0 0 0 0 0 0 0 0 0 0 -1 -1 -0 1 2 2 3 3 4 4 4 4 4 4 3 3 2 2 1
3 3 3 3 3 3 2 3 3 1 0 -0 0 0 1 1 1 1 1 1 1 1 0 -0 -1 -2 -2 0 1 2 1 2 2 3 3 3 3 3 2 2 2 1 1
3 3 3 3 3 3 3 1 1 0 0 0 1 1 1 1 1 1 1 1 0 0 0 -0 -1 -2 -1 0 -0 -0 0 1 1 1 2 2 2 1 1 1 1 0 0
2 2 2 2 1 1 1 1 0 1 1 1 1 1 1 1 1 1 1 0 0 -0 -0 -1 -1 -1 0 -0 -1 -1 -0 -0 -0 0 0 0 1 1 0 0 -0 -0 -0
2 2 2 2 2 1 1 1 1 1 1 1 2 2 1 1 0 0 0 0 -0 -0 -1 -1 -1 -1 -1 -0 -1 -1 -0 -1 -0 -0 -0 -0 -0 0 -1 -1 -1 -1 -2
2 2 2 2 1 1 1 1 1 1 2 2 2 1 0 0 -0 0 0 -0 -0 -1 -1 -1 -1 -1 -1 -1 -1 -1 -1 -2 -3 -4 -6 -7 -5 -3 -3 -4 -6 -7 -10
2 2 2 2 2 2 1 1 2 2 2 2 1 0 -0 -0 -0 -0 -0 -0 -1 -1 -1 -1 -2 -2 -1 -1 -2 -2 -3 -5 -6 -9 -14 -18 -19 -18 -17 -16 -16 -18 -19
2 2 2 2 2 2 2 2 2 2 2 1 0 -0 -1 -1 -1 -0 -0 -0 -1 -1 -1 -2 -2 -2 -2 -3 -4 -7 -13 -17 -19 -20 -19 -19 -19 -20 -21 -21 -23 -24 -24
3 3 2 2 2 2 2 2 2 2 1 1 0 0 -0 -0 -0 -0 -0 -0 -0 -1 -1 -1 -2 -3 -9 -13 -13 -16 -17 -18 -20 -21 -20 -16 -18 -20 -22 -21 -22 -22 -19
2 2 2 2 2 2 2 2 2 1 1 0 1 1 1 1 0 0 -0 -0 -1 -1 -2 -2 -2 -5 -13 -19 -17 -18 -18 -17 -18 -19 -18 -18 -17 -18 -20 -20 -20 -18 -16
1 1 1 1 2 2 1 1 1 1 0 1 2 1 1 1 1 -0 -1 -1 -1 -2 -2 -2 -3 -5 -13 -17 -18 -20 -19 -18 -19 -19 -18 -19 -18 -19 -19 -18 -18 -17 -16
-1 -0 0 1 1 1 0 0 0 0 1 1 1 1 1 1 1 0 -1 -1 -2 -2 -3 -3 -3 -5 -13 -10 -13 -18 -20 -21 -19 -18 -20 -19 -19 -18 -17 -18 -17 -17 -17
-2 -2 -2 -2 -1 -0 0 0 0 0 0 0 0 1 1 1 0 0 -1 -1 -2 -3 -3 -3 -3 -4 -11 -13 -14 -16 -18 -19 -20 -21 -21 -19 -19 -18 -18 -19 -19 -17 -17
-2 -2 -2 -2 -2 -2 -2 -1 -1 -0 -1 -1 0 -0 -0 -0 0 0 -1 -2 -3 -3 -3 -3 -4 -4 -4 -9 -12 -15 -15 -16 -17 -19 -21 -22 -21 -20 -20 -19 -18 -19 -19
-2 -2 -2 -2 -2 -2 -2 -2 -2 -1 -2 -1 -0 -0 -0 -1 -0 -0 -1 -1 -2 -3 -3 -3 -3 -3 -4 -4 -7 -14 -15 -17 -19 -19 -20 -21 -23 -22 -22 -21 -20 -19 -20
-5 -4 -3 -2 -2 -2 -2 -2 -2 -2 -1 -1 -1 -1 -1 -1 -1 -1 -1 -1 -2 -2 -3 -3 -3 -3 -3 -3 -4 -7 -8 -11 -15 -19 -20 -21 -21 -22 -22 -23 -23 -23 -22
-20 -20 -18 -13 -9 -4 -3 -2 -2 -2 -2 -2 -2 -2 -2 -2 -2 -2 -2 -2 -2 -3 -3 -3 -3 -3 -3 -3 -3 -3 -3 -3 -8 -12 -14 -16 -18 -21 -22 -21 -21 -22 -23
-20 -20 -19 -19 -19 -19 -18 -10 -4 -4 -4 -3 -3 -3 -3 -4 -4 -4 -4 -4 -4 -4 -4 -4 -4 -3 -3 -3 -3 -3 -3 -3 -2 -3 -5 -11 -15 -17 -19 -21 -21 -20 -20
-19 -19 -19 -18 -18 -18 -18 -18 -18 -18 -17 -12 -7 -6 -5 -5 -5 -5 -5 -5 -5 -5 -5 -5 -5 -5 -4 -4 -4 -4 -4 -4 -4 -3 -3 -3 -3 -8 -14 -16 -18 -21 -21
-12 -12 -12 -14 -15 -15 -16 -16 -16 -16 -16 -16 -16 -16 -16 -15 -14 -13 -13 -11 -8 -7 -6 -6 -6 -6 -6 -6 -5 -5 -5 -5 -5 -5 -5 -5 -5 -4 -4 -8 -13 -15 -16
-12 -12 -13 -13 -13 -14 -14 -15 -15 -15 -15 -15 -15 -14 -14 -14 -14 -15 -14 -14 -14 -13 -13 -10 -10 -9 -7 -7 -7 -7 -7 -6 -6 -6 -6 -6 -6 -5 -6 -6 -5 -7 -11

GFSGL_850_dewp_111.txt.gz
Dewpoint
7 7 7 8 8 8 9 9 9 8 8 7 6 6 6 6 5 4 3 2 1 -1 -1 -1 -0 -0 -1 -0 0 1 2 4 7 7 8 7 8 7 7 8 7 6 6
6 6 6 7 8 9 10 9 9 8 8 6 6 6 6 3 0 -0 -0 -1 -1 -1 -1 -1 -1 -1 -1 -1 -0 -0 1 6 6 7 7 7 7 7 6 7 6 6 5
6 6 6 6 8 9 10 10 8 8 7 6 6 7 3 0 0 0 -0 -1 -1 -1 -1 -0 -1 -1 -1 -1 -0 0 1 4 6 6 6 6 7 7 7 7 6 5 5
7 6 5 6 9 10 9 8 7 7 7 7 7 3 1 1 0 -1 -1 -1 -0 -0 -0 -0 -1 -0 -0 -0 -1 -0 1 2 5 5 5 6 6 6 6 6 5 5 4
6 6 5 6 8 8 8 8 8 7 7 6 2 1 1 0 -1 -1 -0 0 0 0 -0 -0 0 0 -0 -0 -1 -0 0 2 4 4 5 5 5 5 5 5 5 4 3
4 4 4 4 5 5 5 5 5 5 3 1 2 1 -0 -0 -0 0 0 1 1 0 1 1 0 0 -0 -1 -2 -2 1 2 2 3 4 4 4 4 4 4 4 3 2
3 3 3 3 2 3 3 3 2 2 2 1 0 0 -0 0 0 1 1 1 1 1 1 0 0 -0 -1 -2 -2 -1 0 1 1 1 2 2 3 3 3 3 2 2 2
3 3 3 3 3 3 2 2 3 2 1 0 0 0 1 1 1 1 1 1 0 0 0 -0 -0 -1 -1 -2 -1 -1 -1 -1 -0 -0 0 1 2 2 2 1 1 1 1
4 4 4 3 3 3 3 3 1 1 0 0 1 1 1 1 1 1 0 0 0 -0 -0 -1 -1 -1 -1 -1 -0 -1 -1 -1 -0 -0 -0 -0 0 1 1 1 1 0 0
3 2 2 2 2 2 1 1 1 1 1 1 1 2 2 1 0 -0 -0 0 0 -0 -1 -1 -1 -1 -1 -1 -1 -1 -1 -1 -0 -0 -0 -0 0 0 0 0 -0 -0 -0
2 2 2 2 2 1 1 1 1 1 1 1 2 2 1 -0 -0 -1 -0 -0 -0 -0 -0 -1 -1 -1 -1 -1 -1 -1 -1 -1 -1 -2 -3 -4 -3 -2 -1 -1 -1 -1 -1
2 2 2 2 1 1 1 1 1 1 1 2 2 1 0 -0 -1 -1 -1 -1 -0 -1 -1 -1 -1 -2 -2 -2 -2 -2 -2 -3 -4 -5 -6 -9 -15 -17 -14 -9 -6 -5 -5
2 2 2 2 2 2 1 1 1 2 2 2 2 1 0 -0 -1 -1 -1 -1 -1 -1 -1 -1 -1 -1 -2 -3 -4 -4 -7 -10 -14 -17 -18 -18 -18 -18 -19 -18 -18 -16 -15
3 2 2 2 2 2 2 2 2 2 2 2 1 1 0 0 0 0 -0 -0 -0 -0 -0 -1 -1 -2 -2 -6 -12 -11 -13 -16 -17 -19 -18 -19 -18 -18 -20 -21 -22 -22 -21
3 3 3 3 2 2 2 2 2 2 2 2 1 0 1 1 1 1 0 -1 -1 -1 -1 -1 -2 -2 -2 -6 -13 -18 -15 -18 -18 -18 -18 -18 -17 -16 -18 -20 -20 -19 -19
1 1 2 2 2 2 2 2 2 2 1 1 0 1 1 1 1 1 1 -1 -1 -1 -1 -2 -3 -3 -3 -5 -12 -16 -17 -20 -20 -19 -18 -18 -19 -17 -16 -17 -18 -18 -17
-1 -1 -0 0 0 0 0 0 0 0 0 0 1 1 1 1 1 1 1 -0 -1 -2 -2 -3 -3 -3 -3 -5 -11 -11 -14 -17 -19 -21 -19 -19 -19 -19 -18 -19 -18 -17 -16
-2 -2 -2 -2 -2 -1 -1 -1 -0 0 0 0 0 0 0 0 0 0 -0 -0 -1 -2 -3 -3 -3 -3 -3 -4 -9 -11 -13 -16 -17 -19 -20 -21 -19 -20 -19 -20 -20 -19 -18
-3 -3 -3 -3 -2 -2 -3 -3 -3 -2 -2 -1 -0 -1 -0 -1 -0 -0 -1 -1 -1 -2 -3 -3 -3 -3 -3 -4 -4 -8 -11 -14 -15 -16 -18 -20 -21 -21 -20 -20 -20 -20 -19
-3 -3 -3 -3 -3 -3 -3 -3 -2 -2 -2 -2 -1 -1 -1 -1 -1 -1 -1 -1 -1 -2 -2 -3 -3 -3 -4 -4 -4 -4 -5 -11 -15 -16 -17 -17 -18 -19 -21 -22 -21 -20 -18
-18 -16 -12 -9 -6 -4 -3 -3 -2 -2 -2 -2 -2 -2 -2 -2 -2 -2 -1 -2 -2 -2 -2 -2 -3 -3 -4 -3 -3 -3 -4 -7 -11 -10 -11 -14 -17 -20 -20 -21 -22 -22 -21
-20 -20 -20 -20 -20 -19 -17 -9 -4 -3 -3 -3 -3 -3 -3 -3 -3 -2 -2 -3 -3 -3 -3 -3 -3 -3 -3 -3 -3 -3 -4 -3 -5 -4 -3 -4 -8 -13 -16 -19 -20 -21 -22
-20 -19 -19 -18 -18 -18 -18 -18 -18 -16 -9 -5 -4 -4 -4 -4 -4 -4 -4 -4 -4 -4 -4 -4 -4 -4 -4 -4 -4 -4 -4 -4 -4 -4 -4 -4 -4 -4 -8 -13 -16 -19 -21
-16 -13 -13 -13 -14 -15 -16 -16 -17 -16 -16 -16 -16 -15 -12 -10 -9 -9 -8 -7 -6 -5 -6 -6 -5 -5 -6 -5 -5 -5 -5 -5 -5 -5 -5 -5 -4 -4 -4 -4 -6 -13 -15
-11 -12 -12 -13 -13 -13 -14 -14 -15 -15 -15 -15 -15 -14 -14 -14 -14 -14 -15 -14 -15 -14 -13 -11 -10 -8 -7 -7 -6 -6 -6 -6 -6 -6 -6 -6 -5 -5 -5 -5 -5 -4 -6
-14 -14 -15 -15 -14 -14 -14 -14 -14 -14 -14 -14 -14 -14 -14 -14 -14 -14 -14 -13 -13 -14 -14 -13 -13 -13 -13 -11 -10 -9 -9 -8 -7 -7 -7 -7 -7 -6 -6 -6 -6 -6 -6

GFSGL_850_dewp_114.txt.gz
Dewpoint
10 9 9 8 9 8 9 10 8 9 10 10 11 8 7 6 5 5 6 7 7 6 4 -0 -1 -1 -1 -1 -1 -0 1 2 5 5 6 5 7 7 7 7 7 7 7
8 9 9 9 9 10 9 9 9 9 9 9 7 6 6 6 6 5 3 1 -0 -1 -0 -1 -1 -1 -1 -1 -1 -1 -0 0 1 6 5 6 5 6 7 7 7 7 6
8 8 8 8 9 9 9 9 9 9 8 8 6 6 6 6 3 0 -0 -0 -1 -1 -1 -1 -1 -1 -1 -1 -1 -1 -1 -0 2 2 4 5 6 5 6 7 6 6 6
7 7 6 6 7 7 9 9 9 9 8 7 6 6 7 2 0 0 0 -1 -1 -1 -1 -1 -0 -1 -0 -0 -0 -0 -0 -0 0 2 5 5 5 5 5 6 6 6 5
6 6 6 6 7 8 10 10 9 8 7 7 7 7 2 1 1 0 -1 -1 -0 -0 0 0 -0 0 0 0 -0 -0 -1 -1 -0 1 3 4 4 5 5 5 5 4 3
7 6 6 7 8 9 9 8 8 8 7 7 6 2 1 1 0 -0 -0 0 0 1 1 1 1 1 0 -0 -0 -1 -2 -3 -2 1 2 2 3 4 4 4 4 3 3
7 8 8 9 9 9 9 8 8 7 6 4 1 1 1 -0 -0 0 1 1 1 1 1 1 0 -0 -0 -0 -1 -1 -2 -2 -0 0 1 1 2 2 2 3 3 3 3
4 4 4 5 5 5 5 4 4 3 2 1 1 0 0 0 1 1 1 1 1 0 0 0 -0 -1 -1 -1 -1 -1 -1 -1 -1 -0 0 0 0 1 1 2 2 1 1
3 3 3 3 3 3 2 2 2 2 2 1 0 0 1 1 1 1 0 -0 -0 -0 0 -0 -1 -1 -1 -1 -1 -1 -1 -1 -1 -1 -0 -0 -0 0 1 1 1 1 1
3 4 4 4 3 3 3 3 2 2 1 0 1 1 1 1 1 -0 -1 -1 -1 -0 -0 -0 -0 -1 -1 -1 -1 -1 -1 -1 -1 -1 -1 -0 -0 0 0 0 0 0 0
2 2 3 3 3 2 2 1 1 1 1 1 1 1 1 1 -0 -1 -1 -1 -1 -1 -1 -1 -1 -1 -1 -2 -1 -1 -1 -1 -1 -1 -2 -2 -3 -2 -1 -0 -0 -0 -0
2 2 2 2 2 2 1 1 1 1 1 1 1 2 2 0 -0 -1 -1 -1 -1 -1 -1 -1 -1 -1 -1 -2 -2 -2 -2 -2 -2 -5 -4 -5 -6 -10 -13 -9 -3 -1 -1
2 2 2 2 2 1 1 1 1 1 1 1 1 1 1 0 -0 -1 -1 -1 -1 -1 -1 -1 -0 -1 -1 -2 -3 -4 -4 -5 -8 -12 -14 -16 -16 -16 -17 -18 -17 -13 -8
2 2 2 2 2 1 1 1 1 1 1 1 1 1 1 0 0 0 1 0 -0 -1 -1 -1 -1 -1 -1 -2 -4 -8 -11 -10 -13 -16 -17 -19 -19 -19 -19 -20 -20 -19 -18
3 3 3 3 2 2 2 2 2 2 2 2 2 1 1 0 1 1 1 1 0 -1 -1 -1 -1 -1 -2 -3 -3 -6 -14 -16 -14 -18 -17 -18 -18 -18 -18 -19 -19 -20 -19
1 1 2 2 2 2 2 2 2 2 2 2 2 2 1 2 1 1 1 1 1 0 -2 -2 -2 -2 -3 -3 -3 -5 -11 -16 -17 -20 -19 -18 -18 -18 -18 -17 -18 -18 -18
-2 -1 -1 -1 0 1 1 2 1 1 1 1 1 1 1 1 1 1 1 1 1 -0 -2 -2 -2 -3 -3 -3 -4 -4 -11 -10 -14 -18 -19 -20 -18 -18 -18 -18 -18 -18 -18
-3 -2 -2 -2 -2 -1 -1 -1 -1 -0 -0 0 0 0 0 0 0 0 0 0 -0 -0 -1 -2 -2 -3 -3 -3 -4 -4 -8 -10 -13 -15 -17 -19 -19 -18 -18 -19 -18 -18 -18
-3 -3 -3 -3 -3 -2 -2 -2 -2 -2 -3 -3 -2 -1 -1 -1 -0 -0 -0 -0 -0 -0 -1 -1 -2 -3 -3 -3 -4 -4 -5 -8 -10 -13 -14 -16 -18 -18 -19 -19 -19 -18 -18
-10 -6 -5 -5 -4 -4 -3 -3 -2 -2 -2 -2 -2 -2 -1 -1 -1 -1 -1 -1 -1 -1 -1 -1 -2 -2 -3 -3 -4 -4 -4 -4 -6 -10 -14 -15 -16 -16 -17 -18 -20 -20 -19
-10 -20 -20 -20 -20 -17 -11 -5 -3 -3 -3 -2 -2 -2 -2 -2 -2 -2 -2 -2 -2 -2 -2 -2 -2 -2 -3 -3 -3 -4 -4 -4 -4 -4 -8 -12 -12 -12 -15 -17 -17 -19 -21
-18 -19 -20 -20 -20 -19 -19 -19 -17 -9 -4 -3 -3 -3 -3 -3 -3 -3 -3 -3 -3 -3 -3 -3 -3 -3 -3 -3 -3 -3 -3 -3 -4 -4 -4 -6 -5 -5 -5 -9 -13 -17 -19
-9 -11 -14 -16 -18 -18 -18 -18 -18 -17 -17 -14 -7 -5 -5 -5 -5 -4 -4 -4 -4 -4 -4 -4 -4 -4 -4 -5 -5 -4 -4 -4 -4 -4 -5 -5 -4 -4 -4 -4 -5 -9 -12
-15 -11 -10 -12 -12 -12 -13 -13 -14 -15 -15 -16 -16 -16 -15 -13 -10 -9 -8 -7 -7 -7 -6 -6 -6 -6 -7 -6 -6 -6 -6 -5 -5 -5 -5 -5 -5 -5 -5 -5 -4 -4 -4
-11 -11 -12 -14 -14 -14 -14 -14 -14 -14 -14 -14 -14 -14 -14 -14 -14 -14 -14 -14 -14 -14 -14 -14 -13 -12 -10 -9 -8 -7 -7 -7 -7 -7 -7 -6 -6 -6 -6 -6 -6 -6 -5
-9 -9 -10 -10 -13 -12 -10 -12 -14 -14 -14 -14 -14 -14 -13 -13 -13 -13 -13 -13 -13 -13 -13 -13 -13 -13 -13 -13 -13 -13 -11 -9 -8 -8 -8 -8 -8 -8 -7 -7 -7 -7 -7

GFSGL_850_dewp_117.txt.gz
Dewpoint
11 11 9 8 9 7 8 9 10 9 9 9 9 9 8 7 9 10 8 6 6 6 7 7 7 4 -1 -1 -1 -1 0 3 6 6 3 2 2 5 5 6 6 7 6
10 11 10 9 9 9 10 10 8 8 8 6 8 9 10 10 9 9 6 6 6 6 4 1 -1 -1 -1 -1 -1 -0 -1 0 2 3 3 2 4 5 5 5 6 6 6
9 9 8 8 10 9 8 8 9 8 8 9 10 10 10 9 9 6 6 5 2 -0 -1 -1 -1 -1 -1 -1 -1 -1 -1 -0 0 1 2 2 3 4 5 4 5 6 6
8 9 8 9 9 9 9 9 10 10 10 10 10 9 9 7 6 6 2 0 -0 -0 -1 -1 -1 -0 -0 -1 -0 -0 -0 -0 -0 -0 1 1 2 4 4 4 4 5 5
7 7 7 9 9 9 10 10 10 10 10 9 8 6 6 6 6 2 0 0 -0 -1 -1 -0 -0 -0 -0 0 0 0 0 -0 -1 -2 -1 2 2 2 3 4 4 5 4
8 7 7 7 9 8 9 10 10 9 9 8 7 6 6 7 2 1 1 -0 -1 -0 -0 0 0 0 1 1 -0 -0 -0 -1 -2 -2 -2 -0 1 1 2 3 3 4 3
8 8 8 8 8 9 10 10 9 9 8 7 7 7 6 3 1 0 -0 -0 0 0 1 1 1 1 -0 -0 -0 -1 -1 -1 -2 -2 -1 -0 0 0 1 2 2 2 3
9 9 9 8 8 8 9 9 8 8 8 7 7 5 2 1 0 0 0 1 1 1 1 0 0 0 -0 -1 -1 -1 -1 -1 -1 -1 -1 -1 -1 -0 0 0 1 1 2
4 6 7 8 9 9 8 8 8 7 6 4 2 1 1 0 0 1 1 1 0 -0 -0 -0 -0 -0 -1 -1 -1 -1 -1 -1 -1 -1 -1 -1 -0 -0 -0 0 0 1 1
4 3 3 4 4 4 4 4 4 3 2 1 1 1 0 0 1 1 1 -0 -1 -1 -1 -1 -1 -1 -1 -1 -1 -1 -1 -1 -1 -1 -1 -1 -1 -1 -0 -0 0 0 0
3 3 3 3 3 3 3 2 2 2 2 2 1 0 1 1 1 1 -0 -1 -1 -1 -1 -1 -1 -1 -1 -1 -1 -2 -2 -1 -1 -1 -1 -2 -2 -3 -3 -1 -1 -0 -0
2 2 2 2 3 3 3 2 2 2 1 1 1 1 1 1 1 0 -1 -1 -1 -1 -1 -1 -1 -1 -1 -1 -1 -2 -2 -2 -2 -2 -3 -5 -5 -5 -6 -9 -9 -3 -1
2 2 2 2 2 2 1 1 1 1 1 1 1 1 1 1 1 0 -0 -1 -1 -1 -1 -1 -1 -1 -1 -1 -1 -1 -2 -4 -4 -6 -9 -13 -14 -15 -15 -14 -16 -16 -11
3 2 2 2 2 2 1 1 1 1 1 1 1 1 1 1 1 0 -0 -0 -1 -0 -1 -1 -1 -2 -1 -1 -1 -1 -3 -6 -10 -10 -12 -16 -18 -19 -20 -20 -19 -19 -18
3 3 2 3 2 2 2 2 1 1 1 1 1 1 1 1 1 1 0 0 1 0 -0 -1 -2 -2 -1 -2 -2 -2 -3 -5 -12 -15 -14 -18 -19 -19 -19 -18 -18 -19 -19
-1 -0 1 1 2 2 1 1 1 1 0 1 1 1 1 1 1 1 1 1 1 1 0 0 -2 -2 -2 -2 -2 -3 -3 -4 -9 -15 -16 -19 -21 -20 -18 -18 -17 -17 -18
-2 -3 -2 -2 -1 -1 0 1 1 0 0 0 0 -0 -0 -0 -0 0 0 1 1 0 0 -0 -1 -2 -2 -2 -3 -3 -3 -4 -9 -11 -12 -17 -20 -20 -18 -17 -18 -17 -17
-1 -0 -2 -3 -3 -3 -2 -1 -1 -0 -0 -0 -0 -0 -0 -0 -0 -0 -0 -1 -1 -1 -0 -0 -1 -2 -2 -3 -3 -3 -4 -4 -6 -9 -11 -15 -17 -19 -19 -19 -18 -19 -18
-4 -3 -4 -4 -3 -3 -3 -3 -2 -2 -2 -2 -2 -3 -2 -1 -1 -1 -1 -1 -1 -0 -0 -1 -1 -1 -2 -3 -3 -3 -4 -4 -4 -7 -10 -12 -14 -15 -18 -19 -19 -19 -18
-10 -16 -17 -15 -13 -10 -7 -5 -4 -3 -3 -3 -3 -3 -2 -2 -2 -1 -1 -1 -2 -1 -1 -1 -2 -2 -2 -2 -3 -3 -3 -4 -4 -4 -5 -8 -11 -13 -15 -15 -16 -18 -20
-15 -11 -12 -17 -21 -21 -20 -19 -17 -10 -5 -4 -3 -3 -3 -3 -2 -2 -2 -2 -2 -2 -2 -2 -2 -2 -2 -2 -3 -3 -3 -3 -4 -4 -4 -4 -5 -10 -12 -13 -14 -16 -17
-15 -12 -10 -10 -11 -12 -15 -18 -19 -19 -18 -16 -7 -4 -4 -4 -3 -3 -3 -3 -3 -3 -3 -3 -3 -3 -3 -4 -4 -4 -4 -4 -4 -4 -5 -5 -5 -5 -7 -6 -5 -6 -10
-8 -11 -14 -14 -13 -13 -13 -14 -15 -16 -17 -17 -17 -16 -9 -5 -5 -5 -5 -5 -4 -4 -4 -4 -4 -4 -5 -5 -5 -5 -5 -5 -5 -5 -5 -5 -5 -6 -5 -5 -5 -5 -5
-14 -13 -12 -10 -9 -11 -12 -14 -14 -13 -13 -14 -15 -15 -15 -15 -14 -11 -9 -8 -7 -6 -6 -6 -6 -6 -6 -6 -6 -7 -7 -6 -6 -6 -6 -6 -6 -6 -6 -6 -6 -6 -5
-12 -11 -12 -13 -11 -9 -9 -9 -8 -9 -12 -13 -13 -14 -14 -14 -14 -14 -14 -14 -14 -14 -14 -14 -13 -13 -13 -12 -10 -9 -9 -8 -7 -7 -7 -7 -7 -7 -7 -7 -7 -7 -7
-12 -10 -8 -10 -15 -18 -19 -16 -13 -12 -10 -12 -13 -9 -10 -13 -13 -13 -13 -13 -13 -13 -13 -13 -13 -13 -13 -13 -13 -13 -12 -11 -11 -9 -8 -8 -8 -8 -8 -7 -7 -8 -8